Wetterdaten: Freitag, 24.06.2016
Datum Zeit Temp. A. Feuchte A. Luftdruck Regen Wind Richtung Richtung Sonnenschein ET UV Solar Taupunkt Windchill Windben Empfang
24.06.2016 00:00 21,3 C 79 % 1017,0 hPa 0,0 l/m 5,0 km/h (1 Bft) O-NO 68 0 min 0,000 mm 0,0 UV-I 0 W/m 17,5 C 21,3 C 6,4 km/h (2 Bft) 97,87 %
24.06.2016 00:02 21,3 C 79 % 1016,9 hPa 0,0 l/m 5,1 km/h (1 Bft) O-NO 61 0 min 0,000 mm 0,0 UV-I 0 W/m 17,5 C 21,3 C 8,0 km/h (2 Bft) 92,11 %
24.06.2016 00:04 21,4 C 79 % 1016,8 hPa 0,0 l/m 5,8 km/h (2 Bft) O-NO 62 0 min 0,000 mm 0,0 UV-I 0 W/m 17,6 C 21,4 C 8,0 km/h (2 Bft) 94,34 %
24.06.2016 00:06 21,4 C 78 % 1016,8 hPa 0,0 l/m 4,8 km/h (1 Bft) O-NO 59 0 min 0,000 mm 0,0 UV-I 0 W/m 17,4 C 21,4 C 8,0 km/h (2 Bft) 97,37 %
24.06.2016 00:08 21,5 C 78 % 1016,8 hPa 0,0 l/m 4,9 km/h (1 Bft) O-NO 67 0 min 0,000 mm 0,0 UV-I 0 W/m 17,5 C 21,5 C 8,0 km/h (2 Bft) 98,21 %
24.06.2016 00:10 21,5 C 78 % 1016,9 hPa 0,0 l/m 3,0 km/h (1 Bft) O-NO 65 0 min 0,000 mm 0,0 UV-I 0 W/m 17,5 C 21,5 C 6,4 km/h (2 Bft) 97,37 %
24.06.2016 00:12 21,5 C 78 % 1016,8 hPa 0,0 l/m 3,1 km/h (1 Bft) O-NO 66 0 min 0,000 mm 0,0 UV-I 0 W/m 17,5 C 21,5 C 4,8 km/h (1 Bft) 100,00 %
24.06.2016 00:14 21,5 C 78 % 1016,9 hPa 0,0 l/m 3,3 km/h (1 Bft) O-NO 67 0 min 0,000 mm 0,0 UV-I 0 W/m 17,5 C 21,5 C 4,8 km/h (1 Bft) 100,00 %
24.06.2016 00:16 21,5 C 78 % 1016,9 hPa 0,0 l/m 3,7 km/h (1 Bft) O-NO 70 0 min 0,000 mm 0,0 UV-I 0 W/m 17,5 C 21,5 C 4,8 km/h (1 Bft) 98,00 %
24.06.2016 00:18 21,5 C 78 % 1016,9 hPa 0,0 l/m 3,3 km/h (1 Bft) O-NO 73 0 min 0,000 mm 0,0 UV-I 0 W/m 17,5 C 21,5 C 6,4 km/h (2 Bft) 100,00 %
24.06.2016 00:20 21,5 C 78 % 1016,8 hPa 0,0 l/m 2,5 km/h (1 Bft) O-NO 73 0 min 0,000 mm 0,0 UV-I 0 W/m 17,5 C 21,5 C 4,8 km/h (1 Bft) 100,00 %
24.06.2016 00:22 21,4 C 78 % 1016,8 hPa 0,0 l/m 1,5 km/h (1 Bft) O-NO 73 0 min 0,000 mm 0,0 UV-I 0 W/m 17,4 C 21,4 C 3,2 km/h (1 Bft) 100,00 %
24.06.2016 00:24 21,4 C 78 % 1016,8 hPa 0,0 l/m 2,2 km/h (1 Bft) O-NO 73 0 min 0,000 mm 0,0 UV-I 0 W/m 17,4 C 21,4 C 3,2 km/h (1 Bft) 100,00 %
24.06.2016 00:26 21,5 C 78 % 1016,8 hPa 0,0 l/m 3,2 km/h (1 Bft) O-NO 67 0 min 0,000 mm 0,0 UV-I 0 W/m 17,5 C 21,5 C 6,4 km/h (2 Bft) 100,00 %
24.06.2016 00:28 21,5 C 78 % 1016,8 hPa 0,0 l/m 2,5 km/h (1 Bft) O-NO 67 0 min 0,000 mm 0,0 UV-I 0 W/m 17,5 C 21,5 C 3,2 km/h (1 Bft) 95,74 %
24.06.2016 00:30 21,5 C 78 % 1016,8 hPa 0,0 l/m 3,4 km/h (1 Bft) O-NO 65 0 min 0,000 mm 0,0 UV-I 0 W/m 17,5 C 21,5 C 4,8 km/h (1 Bft) 100,00 %
24.06.2016 00:32 21,5 C 78 % 1016,7 hPa 0,0 l/m 3,8 km/h (1 Bft) O 86 0 min 0,000 mm 0,0 UV-I 0 W/m 17,5 C 21,5 C 8,0 km/h (2 Bft) 97,14 %
24.06.2016 00:34 21,5 C 77 % 1016,7 hPa 0,0 l/m 6,5 km/h (2 Bft) O-NO 74 0 min 0,000 mm 0,0 UV-I 0 W/m 17,3 C 21,5 C 11,3 km/h (2 Bft) 100,00 %
24.06.2016 00:36 21,6 C 77 % 1016,8 hPa 0,0 l/m 6,4 km/h (2 Bft) O-NO 68 0 min 0,000 mm 0,0 UV-I 0 W/m 17,4 C 21,6 C 8,0 km/h (2 Bft) 100,00 %
24.06.2016 00:38 21,6 C 77 % 1016,7 hPa 0,0 l/m 6,0 km/h (2 Bft) O 82 0 min 0,000 mm 0,0 UV-I 0 W/m 17,4 C 21,6 C 11,3 km/h (2 Bft) 98,00 %
24.06.2016 00:40 21,6 C 77 % 1016,7 hPa 0,0 l/m 7,0 km/h (2 Bft) O-NO 78 0 min 0,000 mm 0,0 UV-I 0 W/m 17,4 C 21,4 C 11,3 km/h (2 Bft) 100,00 %
24.06.2016 00:42 21,6 C 77 % 1016,7 hPa 0,0 l/m 8,0 km/h (2 Bft) O-NO 76 0 min 0,000 mm 0,0 UV-I 0 W/m 17,4 C 21,0 C 12,9 km/h (3 Bft) 100,00 %
24.06.2016 00:44 21,7 C 77 % 1016,6 hPa 0,0 l/m 6,4 km/h (2 Bft) O 80 0 min 0,000 mm 0,0 UV-I 0 W/m 17,5 C 21,7 C 11,3 km/h (2 Bft) 100,00 %
24.06.2016 00:46 21,7 C 77 % 1016,6 hPa 0,0 l/m 6,5 km/h (2 Bft) O-NO 75 0 min 0,000 mm 0,0 UV-I 0 W/m 17,5 C 21,7 C 9,7 km/h (2 Bft) 92,68 %
24.06.2016 00:48 21,7 C 77 % 1016,6 hPa 0,0 l/m 6,9 km/h (2 Bft) O-NO 77 0 min 0,000 mm 0,0 UV-I 0 W/m 17,5 C 21,5 C 12,9 km/h (3 Bft) 100,00 %
24.06.2016 00:50 21,6 C 77 % 1016,6 hPa 0,0 l/m 7,1 km/h (2 Bft) O 81 0 min 0,000 mm 0,0 UV-I 0 W/m 17,4 C 21,3 C 14,5 km/h (3 Bft) 97,37 %
24.06.2016 00:52 21,6 C 77 % 1016,6 hPa 0,0 l/m 6,4 km/h (2 Bft) O-NO 76 0 min 0,000 mm 0,0 UV-I 0 W/m 17,4 C 21,6 C 11,3 km/h (2 Bft) 98,11 %
24.06.2016 00:54 21,6 C 77 % 1016,6 hPa 0,0 l/m 6,9 km/h (2 Bft) O-NO 78 0 min 0,000 mm 0,0 UV-I 0 W/m 17,4 C 21,4 C 11,3 km/h (2 Bft) 100,00 %
24.06.2016 00:56 21,6 C 77 % 1016,6 hPa 0,0 l/m 5,4 km/h (1 Bft) O-NO 65 0 min 0,000 mm 0,0 UV-I 0 W/m 17,4 C 21,6 C 8,0 km/h (2 Bft) 100,00 %
24.06.2016 00:58 21,6 C 77 % 1016,6 hPa 0,0 l/m 6,2 km/h (2 Bft) O-NO 67 0 min 0,000 mm 0,0 UV-I 0 W/m 17,4 C 21,6 C 8,0 km/h (2 Bft) 100,00 %
24.06.2016 01:00 21,5 C 77 % 1016,6 hPa 0,0 l/m 6,4 km/h (2 Bft) O 79 0 min 0,025 mm 0,0 UV-I 0 W/m 17,3 C 21,5 C 11,3 km/h (2 Bft) 100,00 %
24.06.2016 01:02 21,5 C 77 % 1016,7 hPa 0,0 l/m 5,4 km/h (1 Bft) O-NO 66 0 min 0,000 mm 0,0 UV-I 0 W/m 17,3 C 21,5 C 8,0 km/h (2 Bft) 100,00 %
24.06.2016 01:04 21,5 C 77 % 1016,6 hPa 0,0 l/m 5,6 km/h (1 Bft) O-NO 63 0 min 0,000 mm 0,0 UV-I 0 W/m 17,3 C 21,5 C 8,0 km/h (2 Bft) 100,00 %
24.06.2016 01:06 21,4 C 77 % 1016,6 hPa 0,0 l/m 5,2 km/h (1 Bft) O-NO 65 0 min 0,000 mm 0,0 UV-I 0 W/m 17,2 C 21,4 C 8,0 km/h (2 Bft) 100,00 %
24.06.2016 01:08 21,4 C 78 % 1016,6 hPa 0,0 l/m 5,3 km/h (1 Bft) O-NO 78 0 min 0,000 mm 0,0 UV-I 0 W/m 17,4 C 21,4 C 8,0 km/h (2 Bft) 97,56 %
24.06.2016 01:10 21,3 C 78 % 1016,6 hPa 0,0 l/m 5,5 km/h (1 Bft) O-NO 75 0 min 0,000 mm 0,0 UV-I 0 W/m 17,3 C 21,3 C 11,3 km/h (2 Bft) 100,00 %
24.06.2016 01:12 21,3 C 78 % 1016,6 hPa 0,0 l/m 5,9 km/h (2 Bft) O-NO 66 0 min 0,000 mm 0,0 UV-I 0 W/m 17,3 C 21,3 C 8,0 km/h (2 Bft) 100,00 %
24.06.2016 01:14 21,3 C 78 % 1016,5 hPa 0,0 l/m 5,6 km/h (1 Bft) O-NO 77 0 min 0,000 mm 0,0 UV-I 0 W/m 17,3 C 21,3 C 6,4 km/h (2 Bft) 98,00 %
24.06.2016 01:16 21,3 C 78 % 1016,5 hPa 0,0 l/m 6,2 km/h (2 Bft) O-NO 67 0 min 0,000 mm 0,0 UV-I 0 W/m 17,3 C 21,3 C 8,0 km/h (2 Bft) 100,00 %
24.06.2016 01:18 21,2 C 78 % 1016,4 hPa 0,0 l/m 6,4 km/h (2 Bft) O-NO 70 0 min 0,000 mm 0,0 UV-I 0 W/m 17,2 C 21,2 C 8,0 km/h (2 Bft) 100,00 %
24.06.2016 01:20 21,2 C 79 % 1016,4 hPa 0,0 l/m 6,5 km/h (2 Bft) O-NO 63 0 min 0,000 mm 0,0 UV-I 0 W/m 17,4 C 21,2 C 9,7 km/h (2 Bft) 100,00 %
24.06.2016 01:22 21,2 C 79 % 1016,4 hPa 0,0 l/m 8,0 km/h (2 Bft) O 80 0 min 0,000 mm 0,0 UV-I 0 W/m 17,4 C 20,6 C 12,9 km/h (3 Bft) 100,00 %
24.06.2016 01:24 21,2 C 79 % 1016,4 hPa 0,0 l/m 7,5 km/h (2 Bft) O 82 0 min 0,000 mm 0,0 UV-I 0 W/m 17,4 C 20,8 C 12,9 km/h (3 Bft) 100,00 %
24.06.2016 01:26 21,2 C 79 % 1016,3 hPa 0,0 l/m 6,5 km/h (2 Bft) O-NO 65 0 min 0,000 mm 0,0 UV-I 0 W/m 17,4 C 21,2 C 11,3 km/h (2 Bft) 97,87 %
24.06.2016 01:28 21,2 C 79 % 1016,4 hPa 0,0 l/m 5,7 km/h (1 Bft) O-NO 74 0 min 0,000 mm 0,0 UV-I 0 W/m 17,4 C 21,2 C 8,0 km/h (2 Bft) 100,00 %
24.06.2016 01:30 21,2 C 79 % 1016,3 hPa 0,0 l/m 4,5 km/h (1 Bft) O-NO 69 0 min 0,000 mm 0,0 UV-I 0 W/m 17,4 C 21,2 C 6,4 km/h (2 Bft) 98,21 %
24.06.2016 01:32 21,2 C 79 % 1016,3 hPa 0,0 l/m 4,2 km/h (1 Bft) O-NO 61 0 min 0,000 mm 0,0 UV-I 0 W/m 17,4 C 21,2 C 6,4 km/h (2 Bft) 97,14 %
24.06.2016 01:34 21,0 C 79 % 1016,3 hPa 0,0 l/m 3,9 km/h (1 Bft) O-NO 62 0 min 0,000 mm 0,0 UV-I 0 W/m 17,2 C 21,0 C 4,8 km/h (1 Bft) 98,31 %
24.06.2016 01:36 20,8 C 79 % 1016,3 hPa 0,0 l/m 3,9 km/h (1 Bft) O-NO 69 0 min 0,000 mm 0,0 UV-I 0 W/m 17,0 C 20,8 C 4,8 km/h (1 Bft) 100,00 %
24.06.2016 01:38 20,7 C 80 % 1016,3 hPa 0,0 l/m 4,5 km/h (1 Bft) NO 54 0 min 0,000 mm 0,0 UV-I 0 W/m 17,1 C 20,7 C 6,4 km/h (2 Bft) 97,87 %
24.06.2016 01:40 20,5 C 81 % 1016,2 hPa 0,0 l/m 4,3 km/h (1 Bft) NO 44 0 min 0,000 mm 0,0 UV-I 0 W/m 17,1 C 20,5 C 6,4 km/h (2 Bft) 97,37 %
24.06.2016 01:42 20,3 C 81 % 1016,2 hPa 0,0 l/m 4,5 km/h (1 Bft) NO 43 0 min 0,000 mm 0,0 UV-I 0 W/m 16,9 C 20,3 C 6,4 km/h (2 Bft) 98,00 %
24.06.2016 01:44 20,2 C 82 % 1016,1 hPa 0,0 l/m 5,3 km/h (1 Bft) NO 47 0 min 0,000 mm 0,0 UV-I 0 W/m 17,0 C 20,2 C 8,0 km/h (2 Bft) 96,43 %
24.06.2016 01:46 20,1 C 83 % 1016,2 hPa 0,0 l/m 6,2 km/h (2 Bft) O-NO 58 0 min 0,000 mm 0,0 UV-I 0 W/m 17,1 C 20,1 C 8,0 km/h (2 Bft) 97,56 %
24.06.2016 01:48 19,9 C 83 % 1016,1 hPa 0,0 l/m 4,5 km/h (1 Bft) O-NO 64 0 min 0,000 mm 0,0 UV-I 0 W/m 16,9 C 19,9 C 6,4 km/h (2 Bft) 97,56 %
24.06.2016 01:50 19,9 C 83 % 1016,1 hPa 0,0 l/m 3,5 km/h (1 Bft) O-NO 63 0 min 0,000 mm 0,0 UV-I 0 W/m 16,9 C 19,9 C 4,8 km/h (1 Bft) 98,21 %
24.06.2016 01:52 19,9 C 83 % 1016,1 hPa 0,0 l/m 2,7 km/h (1 Bft) O-NO 63 0 min 0,000 mm 0,0 UV-I 0 W/m 16,9 C 19,9 C 4,8 km/h (1 Bft) 97,37 %
24.06.2016 01:54 19,9 C 83 % 1016,0 hPa 0,0 l/m 3,9 km/h (1 Bft) NO 44 0 min 0,000 mm 0,0 UV-I 0 W/m 16,9 C 19,9 C 6,4 km/h (2 Bft) 98,11 %
24.06.2016 01:56 19,9 C 84 % 1016,0 hPa 0,0 l/m 4,8 km/h (1 Bft) NO 46 0 min 0,000 mm 0,0 UV-I 0 W/m 17,1 C 19,9 C 6,4 km/h (2 Bft) 97,44 %
24.06.2016 01:58 19,9 C 84 % 1016,0 hPa 0,0 l/m 3,8 km/h (1 Bft) NO 55 0 min 0,000 mm 0,0 UV-I 0 W/m 17,1 C 19,9 C 4,8 km/h (1 Bft) 98,11 %
24.06.2016 02:00 19,9 C 84 % 1016,0 hPa 0,0 l/m 4,1 km/h (1 Bft) O-NO 57 0 min 0,000 mm 0,0 UV-I 0 W/m 17,1 C 19,9 C 6,4 km/h (2 Bft) 98,00 %
24.06.2016 02:02 19,9 C 84 % 1016,0 hPa 0,0 l/m 2,8 km/h (1 Bft) O-NO 57 0 min 0,026 mm 0,0 UV-I 0 W/m 17,1 C 19,9 C 4,8 km/h (1 Bft) 95,12 %
24.06.2016 02:04 19,9 C 84 % 1016,0 hPa 0,0 l/m 3,5 km/h (1 Bft) NO 56 0 min 0,000 mm 0,0 UV-I 0 W/m 17,1 C 19,9 C 4,8 km/h (1 Bft) 96,43 %
24.06.2016 02:06 19,9 C 84 % 1015,9 hPa 0,0 l/m 4,7 km/h (1 Bft) O-NO 59 0 min 0,000 mm 0,0 UV-I 0 W/m 17,1 C 19,9 C 8,0 km/h (2 Bft) 97,37 %
24.06.2016 02:08 19,9 C 84 % 1015,9 hPa 0,0 l/m 4,1 km/h (1 Bft) O-NO 59 0 min 0,000 mm 0,0 UV-I 0 W/m 17,1 C 19,9 C 4,8 km/h (1 Bft) 98,11 %
24.06.2016 02:10 19,8 C 84 % 1015,9 hPa 0,0 l/m 3,5 km/h (1 Bft) O-NO 59 0 min 0,000 mm 0,0 UV-I 0 W/m 17,0 C 19,8 C 4,8 km/h (1 Bft) 98,00 %
24.06.2016 02:12 19,8 C 84 % 1015,9 hPa 0,0 l/m 3,6 km/h (1 Bft) O-NO 65 0 min 0,000 mm 0,0 UV-I 0 W/m 17,0 C 19,8 C 4,8 km/h (1 Bft) 97,87 %
24.06.2016 02:14 19,8 C 84 % 1015,9 hPa 0,0 l/m 2,8 km/h (1 Bft) NO 53 0 min 0,000 mm 0,0 UV-I 0 W/m 17,0 C 19,8 C 4,8 km/h (1 Bft) 97,87 %
24.06.2016 02:16 19,8 C 84 % 1015,9 hPa 0,0 l/m 3,0 km/h (1 Bft) NO 53 0 min 0,000 mm 0,0 UV-I 0 W/m 17,0 C 19,8 C 4,8 km/h (1 Bft) 100,00 %
24.06.2016 02:18 19,8 C 84 % 1015,9 hPa 0,0 l/m 3,4 km/h (1 Bft) NO 53 0 min 0,000 mm 0,0 UV-I 0 W/m 17,0 C 19,8 C 4,8 km/h (1 Bft) 97,87 %
24.06.2016 02:20 19,8 C 84 % 1015,8 hPa 0,0 l/m 2,9 km/h (1 Bft) NO 53 0 min 0,000 mm 0,0 UV-I 0 W/m 17,0 C 19,8 C 4,8 km/h (1 Bft) 98,11 %
24.06.2016 02:22 19,8 C 84 % 1015,9 hPa 0,0 l/m 4,2 km/h (1 Bft) NO 56 0 min 0,000 mm 0,0 UV-I 0 W/m 17,0 C 19,8 C 6,4 km/h (2 Bft) 100,00 %
24.06.2016 02:24 19,7 C 84 % 1015,8 hPa 0,0 l/m 4,5 km/h (1 Bft) O-NO 59 0 min 0,000 mm 0,0 UV-I 0 W/m 16,9 C 19,7 C 6,4 km/h (2 Bft) 97,87 %
24.06.2016 02:26 19,7 C 84 % 1015,8 hPa 0,0 l/m 4,5 km/h (1 Bft) O-NO 59 0 min 0,000 mm 0,0 UV-I 0 W/m 16,9 C 19,7 C 4,8 km/h (1 Bft) 100,00 %
24.06.2016 02:28 19,7 C 84 % 1015,8 hPa 0,0 l/m 4,1 km/h (1 Bft) O-NO 61 0 min 0,000 mm 0,0 UV-I 0 W/m 16,9 C 19,7 C 6,4 km/h (2 Bft) 100,00 %
24.06.2016 02:30 19,7 C 84 % 1015,8 hPa 0,0 l/m 3,7 km/h (1 Bft) O-NO 57 0 min 0,000 mm 0,0 UV-I 0 W/m 16,9 C 19,7 C 6,4 km/h (2 Bft) 97,87 %
24.06.2016 02:32 19,7 C 84 % 1015,8 hPa 0,0 l/m 4,6 km/h (1 Bft) O 80 0 min 0,000 mm 0,0 UV-I 0 W/m 16,9 C 19,7 C 6,4 km/h (2 Bft) 100,00 %
24.06.2016 02:34 19,7 C 84 % 1015,7 hPa 0,0 l/m 4,5 km/h (1 Bft) O-NO 67 0 min 0,000 mm 0,0 UV-I 0 W/m 16,9 C 19,7 C 6,4 km/h (2 Bft) 100,00 %
24.06.2016 02:36 19,7 C 84 % 1015,7 hPa 0,0 l/m 5,4 km/h (1 Bft) O-NO 77 0 min 0,000 mm 0,0 UV-I 0 W/m 16,9 C 19,7 C 8,0 km/h (2 Bft) 100,00 %
24.06.2016 02:38 19,8 C 84 % 1015,7 hPa 0,0 l/m 3,9 km/h (1 Bft) NO 53 0 min 0,000 mm 0,0 UV-I 0 W/m 17,0 C 19,8 C 6,4 km/h (2 Bft) 100,00 %
24.06.2016 02:40 19,8 C 84 % 1015,7 hPa 0,0 l/m 4,8 km/h (1 Bft) O-NO 61 0 min 0,000 mm 0,0 UV-I 0 W/m 17,0 C 19,8 C 6,4 km/h (2 Bft) 100,00 %
24.06.2016 02:42 19,8 C 84 % 1015,6 hPa 0,0 l/m 4,7 km/h (1 Bft) O-NO 57 0 min 0,000 mm 0,0 UV-I 0 W/m 17,0 C 19,8 C 6,4 km/h (2 Bft) 100,00 %
24.06.2016 02:44 19,7 C 84 % 1015,7 hPa 0,0 l/m 5,4 km/h (1 Bft) NO 46 0 min 0,000 mm 0,0 UV-I 0 W/m 16,9 C 19,7 C 6,4 km/h (2 Bft) 100,00 %
24.06.2016 02:46 19,6 C 84 % 1015,7 hPa 0,0 l/m 4,5 km/h (1 Bft) NO 52 0 min 0,000 mm 0,0 UV-I 0 W/m 16,8 C 19,6 C 6,4 km/h (2 Bft) 100,00 %
24.06.2016 02:48 19,6 C 85 % 1015,7 hPa 0,0 l/m 4,7 km/h (1 Bft) NO 53 0 min 0,000 mm 0,0 UV-I 0 W/m 17,0 C 19,6 C 6,4 km/h (2 Bft) 100,00 %
24.06.2016 02:50 19,6 C 85 % 1015,7 hPa 0,0 l/m 4,7 km/h (1 Bft) O-NO 57 0 min 0,000 mm 0,0 UV-I 0 W/m 17,0 C 19,6 C 6,4 km/h (2 Bft) 98,00 %
24.06.2016 02:52 19,6 C 85 % 1015,7 hPa 0,0 l/m 4,8 km/h (1 Bft) NO 48 0 min 0,000 mm 0,0 UV-I 0 W/m 17,0 C 19,6 C 8,0 km/h (2 Bft) 100,00 %
24.06.2016 02:54 19,6 C 85 % 1015,8 hPa 0,0 l/m 3,6 km/h (1 Bft) O-NO 61 0 min 0,000 mm 0,0 UV-I 0 W/m 17,0 C 19,6 C 6,4 km/h (2 Bft) 100,00 %
24.06.2016 02:56 19,6 C 85 % 1015,8 hPa 0,0 l/m 3,1 km/h (1 Bft) O-NO 59 0 min 0,000 mm 0,0 UV-I 0 W/m 17,0 C 19,6 C 4,8 km/h (1 Bft) 100,00 %
24.06.2016 02:58 19,5 C 85 % 1015,8 hPa 0,0 l/m 3,1 km/h (1 Bft) O-NO 59 0 min 0,000 mm 0,0 UV-I 0 W/m 16,9 C 19,5 C 4,8 km/h (1 Bft) 100,00 %
24.06.2016 03:00 19,6 C 85 % 1015,7 hPa 0,0 l/m 2,5 km/h (1 Bft) O-NO 59 0 min 0,025 mm 0,0 UV-I 0 W/m 17,0 C 19,6 C 3,2 km/h (1 Bft) 100,00 %
24.06.2016 03:02 19,5 C 85 % 1015,7 hPa 0,0 l/m 3,0 km/h (1 Bft) O-NO 59 0 min 0,000 mm 0,0 UV-I 0 W/m 16,9 C 19,5 C 4,8 km/h (1 Bft) 100,00 %
24.06.2016 03:04 19,5 C 85 % 1015,7 hPa 0,0 l/m 2,2 km/h (1 Bft) O-NO 59 0 min 0,000 mm 0,0 UV-I 0 W/m 16,9 C 19,5 C 4,8 km/h (1 Bft) 100,00 %
24.06.2016 03:06 19,5 C 85 % 1015,7 hPa 0,0 l/m 2,6 km/h (1 Bft) O-NO 59 0 min 0,000 mm 0,0 UV-I 0 W/m 16,9 C 19,5 C 4,8 km/h (1 Bft) 98,00 %
24.06.2016 03:08 19,4 C 85 % 1015,7 hPa 0,0 l/m 2,9 km/h (1 Bft) O-NO 59 0 min 0,000 mm 0,0 UV-I 0 W/m 16,8 C 19,4 C 4,8 km/h (1 Bft) 100,00 %
24.06.2016 03:10 19,4 C 85 % 1015,7 hPa 0,0 l/m 3,4 km/h (1 Bft) O-NO 59 0 min 0,000 mm 0,0 UV-I 0 W/m 16,8 C 19,4 C 4,8 km/h (1 Bft) 100,00 %
24.06.2016 03:12 19,4 C 85 % 1015,7 hPa 0,0 l/m 3,1 km/h (1 Bft) O-NO 59 0 min 0,000 mm 0,0 UV-I 0 W/m 16,8 C 19,4 C 4,8 km/h (1 Bft) 98,00 %
24.06.2016 03:14 19,4 C 85 % 1015,7 hPa 0,0 l/m 2,9 km/h (1 Bft) O-NO 59 0 min 0,000 mm 0,0 UV-I 0 W/m 16,8 C 19,4 C 4,8 km/h (1 Bft) 100,00 %
24.06.2016 03:16 19,3 C 86 % 1015,7 hPa 0,0 l/m 3,3 km/h (1 Bft) O-NO 59 0 min 0,000 mm 0,0 UV-I 0 W/m 16,9 C 19,3 C 4,8 km/h (1 Bft) 97,87 %
24.06.2016 03:18 19,3 C 86 % 1015,7 hPa 0,0 l/m 3,3 km/h (1 Bft) O-NO 59 0 min 0,000 mm 0,0 UV-I 0 W/m 16,9 C 19,3 C 4,8 km/h (1 Bft) 100,00 %
24.06.2016 03:20 19,3 C 86 % 1015,7 hPa 0,0 l/m 3,4 km/h (1 Bft) O-NO 59 0 min 0,000 mm 0,0 UV-I 0 W/m 16,9 C 19,3 C 4,8 km/h (1 Bft) 100,00 %
24.06.2016 03:22 19,3 C 86 % 1015,7 hPa 0,0 l/m 2,9 km/h (1 Bft) O-NO 59 0 min 0,000 mm 0,0 UV-I 0 W/m 16,9 C 19,3 C 4,8 km/h (1 Bft) 98,04 %
24.06.2016 03:24 19,3 C 86 % 1015,7 hPa 0,0 l/m 2,7 km/h (1 Bft) O-NO 59 0 min 0,000 mm 0,0 UV-I 0 W/m 16,9 C 19,3 C 4,8 km/h (1 Bft) 100,00 %
24.06.2016 03:26 19,3 C 86 % 1015,7 hPa 0,0 l/m 2,8 km/h (1 Bft) O-NO 59 0 min 0,000 mm 0,0 UV-I 0 W/m 16,9 C 19,3 C 4,8 km/h (1 Bft) 100,00 %
24.06.2016 03:28 19,3 C 86 % 1015,7 hPa 0,0 l/m 2,5 km/h (1 Bft) O-NO 59 0 min 0,000 mm 0,0 UV-I 0 W/m 16,9 C 19,3 C 4,8 km/h (1 Bft) 100,00 %
24.06.2016 03:30 19,3 C 86 % 1015,7 hPa 0,0 l/m 2,6 km/h (1 Bft) O-NO 59 0 min 0,000 mm 0,0 UV-I 0 W/m 16,9 C 19,3 C 4,8 km/h (1 Bft) 97,87 %
24.06.2016 03:32 19,3 C 86 % 1015,8 hPa 0,0 l/m 2,2 km/h (1 Bft) O-NO 59 0 min 0,000 mm 0,0 UV-I 0 W/m 16,9 C 19,3 C 3,2 km/h (1 Bft) 100,00 %
24.06.2016 03:34 19,2 C 86 % 1015,7 hPa 0,0 l/m 1,8 km/h (1 Bft) O-NO 59 0 min 0,000 mm 0,0 UV-I 0 W/m 16,8 C 19,2 C 3,2 km/h (1 Bft) 100,00 %
24.06.2016 03:36 19,3 C 86 % 1015,7 hPa 0,0 l/m 2,1 km/h (1 Bft) O-NO 59 0 min 0,000 mm 0,0 UV-I 0 W/m 16,9 C 19,3 C 3,2 km/h (1 Bft) 96,00 %
24.06.2016 03:38 19,2 C 86 % 1015,7 hPa 0,0 l/m 1,9 km/h (1 Bft) O-NO 59 0 min 0,000 mm 0,0 UV-I 0 W/m 16,8 C 19,2 C 3,2 km/h (1 Bft) 97,37 %
24.06.2016 03:40 19,2 C 86 % 1015,6 hPa 0,0 l/m 1,4 km/h (1 Bft) O-NO 59 0 min 0,000 mm 0,0 UV-I 0 W/m 16,8 C 19,2 C 3,2 km/h (1 Bft) 98,11 %
24.06.2016 03:42 19,2 C 86 % 1015,6 hPa 0,0 l/m 2,3 km/h (1 Bft) O-NO 59 0 min 0,000 mm 0,0 UV-I 0 W/m 16,8 C 19,2 C 3,2 km/h (1 Bft) 97,37 %
24.06.2016 03:44 19,2 C 86 % 1015,6 hPa 0,0 l/m 2,0 km/h (1 Bft) O-NO 59 0 min 0,000 mm 0,0 UV-I 0 W/m 16,8 C 19,2 C 3,2 km/h (1 Bft) 98,21 %
24.06.2016 03:46 19,2 C 86 % 1015,6 hPa 0,0 l/m 1,3 km/h (1 Bft) O-NO 59 0 min 0,000 mm 0,0 UV-I 0 W/m 16,8 C 19,2 C 3,2 km/h (1 Bft) 97,73 %
24.06.2016 03:48 19,1 C 86 % 1015,6 hPa 0,0 l/m 2,2 km/h (1 Bft) O-NO 59 0 min 0,000 mm 0,0 UV-I 0 W/m 16,7 C 19,1 C 3,2 km/h (1 Bft) 94,00 %
24.06.2016 03:50 19,1 C 86 % 1015,5 hPa 0,0 l/m 1,4 km/h (1 Bft) O-NO 59 0 min 0,000 mm 0,0 UV-I 0 W/m 16,7 C 19,1 C 3,2 km/h (1 Bft) 95,74 %
24.06.2016 03:52 19,1 C 87 % 1015,5 hPa 0,0 l/m 1,6 km/h (1 Bft) O-NO 59 0 min 0,000 mm 0,0 UV-I 0 W/m 16,9 C 19,1 C 3,2 km/h (1 Bft) 96,00 %
24.06.2016 03:54 19,1 C 87 % 1015,5 hPa 0,0 l/m 1,1 km/h (1 Bft) O-NO 59 0 min 0,000 mm 0,0 UV-I 0 W/m 16,9 C 19,1 C 3,2 km/h (1 Bft) 97,22 %
24.06.2016 03:56 19,1 C 87 % 1015,5 hPa 0,0 l/m 0,3 km/h (0 Bft) O-NO 59 0 min 0,000 mm 0,0 UV-I 0 W/m 16,9 C 19,1 C 1,6 km/h (1 Bft) 98,00 %
24.06.2016 03:58 19,0 C 87 % 1015,5 hPa 0,0 l/m 0,2 km/h (0 Bft) O-NO 59 0 min 0,000 mm 0,0 UV-I 0 W/m 16,8 C 19,0 C 1,6 km/h (1 Bft) 98,00 %
24.06.2016 04:00 18,9 C 86 % 1015,5 hPa 0,0 l/m 0,2 km/h (0 Bft) O-NO 59 0 min 0,000 mm 0,0 UV-I 0 W/m 16,5 C 18,9 C 1,6 km/h (1 Bft) 95,12 %
24.06.2016 04:02 18,7 C 87 % 1015,5 hPa 0,0 l/m 0,5 km/h (0 Bft) O-NO 59 0 min 0,000 mm 0,0 UV-I 0 W/m 16,5 C 18,7 C 1,6 km/h (1 Bft) 96,77 %
24.06.2016 04:04 18,6 C 88 % 1015,5 hPa 0,0 l/m 0,0 km/h (0 Bft) O-NO 59 0 min 0,000 mm 0,0 UV-I 0 W/m 16,6 C 18,6 C 0,0 km/h (0 Bft) 97,87 %
24.06.2016 04:06 18,4 C 88 % 1015,5 hPa 0,0 l/m 0,0 km/h (0 Bft) O-NO 59 0 min 0,000 mm 0,0 UV-I 0 W/m 16,4 C 18,4 C 0,0 km/h (0 Bft) 97,87 %
24.06.2016 04:08 18,4 C 88 % 1015,5 hPa 0,0 l/m 0,0 km/h (0 Bft) O-NO 59 0 min 0,000 mm 0,0 UV-I 0 W/m 16,4 C 18,4 C 0,0 km/h (0 Bft) 97,37 %
24.06.2016 04:10 18,3 C 88 % 1015,4 hPa 0,0 l/m 0,3 km/h (0 Bft) O-NO 59 0 min 0,000 mm 0,0 UV-I 0 W/m 16,3 C 18,3 C 1,6 km/h (1 Bft) 100,00 %
24.06.2016 04:12 18,2 C 88 % 1015,4 hPa 0,0 l/m 0,7 km/h (0 Bft) O-NO 59 0 min 0,000 mm 0,0 UV-I 0 W/m 16,2 C 18,2 C 1,6 km/h (1 Bft) 98,46 %
24.06.2016 04:14 18,1 C 89 % 1015,4 hPa 0,0 l/m 0,8 km/h (0 Bft) O-NO 59 0 min 0,000 mm 0,0 UV-I 0 W/m 16,3 C 18,1 C 1,6 km/h (1 Bft) 97,14 %
24.06.2016 04:16 18,1 C 89 % 1015,4 hPa 0,0 l/m 0,0 km/h (0 Bft) O-NO 59 0 min 0,000 mm 0,0 UV-I 0 W/m 16,3 C 18,1 C 0,0 km/h (0 Bft) 98,00 %
24.06.2016 04:18 18,0 C 89 % 1015,5 hPa 0,0 l/m 0,7 km/h (0 Bft) O-NO 59 0 min 0,000 mm 0,0 UV-I 0 W/m 16,2 C 18,0 C 3,2 km/h (1 Bft) 98,00 %
24.06.2016 04:20 18,0 C 89 % 1015,5 hPa 0,0 l/m 2,1 km/h (1 Bft) O-NO 59 0 min 0,000 mm 0,0 UV-I 0 W/m 16,2 C 18,0 C 3,2 km/h (1 Bft) 100,00 %
24.06.2016 04:22 17,9 C 90 % 1015,5 hPa 0,0 l/m 1,7 km/h (1 Bft) O-NO 59 0 min 0,000 mm 0,0 UV-I 0 W/m 16,2 C 17,9 C 3,2 km/h (1 Bft) 100,00 %
24.06.2016 04:24 17,9 C 90 % 1015,4 hPa 0,0 l/m 1,1 km/h (1 Bft) O-NO 59 0 min 0,000 mm 0,0 UV-I 0 W/m 16,2 C 17,9 C 1,6 km/h (1 Bft) 97,87 %
24.06.2016 04:26 17,8 C 90 % 1015,4 hPa 0,0 l/m 0,0 km/h (0 Bft) O-NO 59 0 min 0,000 mm 0,0 UV-I 0 W/m 16,1 C 17,8 C 0,0 km/h (0 Bft) 100,00 %
24.06.2016 04:28 17,8 C 90 % 1015,4 hPa 0,0 l/m 0,0 km/h (0 Bft) O-NO 59 0 min 0,000 mm 0,0 UV-I 0 W/m 16,1 C 17,8 C 0,0 km/h (0 Bft) 100,00 %
24.06.2016 04:30 17,7 C 90 % 1015,3 hPa 0,0 l/m 0,0 km/h (0 Bft) O-NO 59 0 min 0,000 mm 0,0 UV-I 0 W/m 16,0 C 17,7 C 0,0 km/h (0 Bft) 100,00 %
24.06.2016 04:32 17,7 C 91 % 1015,3 hPa 0,0 l/m 0,0 km/h (0 Bft) O-NO 59 0 min 0,000 mm 0,0 UV-I 0 W/m 16,2 C 17,7 C 0,0 km/h (0 Bft) 100,00 %
24.06.2016 04:34 17,7 C 91 % 1015,3 hPa 0,0 l/m 0,0 km/h (0 Bft) O-NO 59 0 min 0,000 mm 0,0 UV-I 0 W/m 16,2 C 17,7 C 0,0 km/h (0 Bft) 100,00 %
24.06.2016 04:36 17,7 C 91 % 1015,3 hPa 0,0 l/m 0,0 km/h (0 Bft) O-NO 59 0 min 0,000 mm 0,0 UV-I 0 W/m 16,2 C 17,7 C 0,0 km/h (0 Bft) 100,00 %
24.06.2016 04:38 17,7 C 91 % 1015,4 hPa 0,0 l/m 0,0 km/h (0 Bft) O-NO 59 0 min 0,000 mm 0,0 UV-I 0 W/m 16,2 C 17,7 C 0,0 km/h (0 Bft) 100,00 %
24.06.2016 04:40 17,7 C 91 % 1015,4 hPa 0,0 l/m 0,0 km/h (0 Bft) O-NO 59 0 min 0,000 mm 0,0 UV-I 0 W/m 16,2 C 17,7 C 0,0 km/h (0 Bft) 97,87 %
24.06.2016 04:42 17,7 C 91 % 1015,3 hPa 0,0 l/m 0,0 km/h (0 Bft) O-NO 59 0 min 0,000 mm 0,0 UV-I 0 W/m 16,2 C 17,7 C 0,0 km/h (0 Bft) 100,00 %
24.06.2016 04:44 17,6 C 91 % 1015,4 hPa 0,0 l/m 0,0 km/h (0 Bft) O-NO 59 0 min 0,000 mm 0,0 UV-I 0 W/m 16,1 C 17,6 C 0,0 km/h (0 Bft) 100,00 %
24.06.2016 04:46 17,6 C 91 % 1015,3 hPa 0,0 l/m 0,0 km/h (0 Bft) O-NO 59 0 min 0,000 mm 0,0 UV-I 0 W/m 16,1 C 17,6 C 0,0 km/h (0 Bft) 97,56 %
24.06.2016 04:48 17,6 C 91 % 1015,3 hPa 0,0 l/m 0,0 km/h (0 Bft) O-NO 59 0 min 0,000 mm 0,0 UV-I 0 W/m 16,1 C 17,6 C 0,0 km/h (0 Bft) 98,00 %
24.06.2016 04:50 17,6 C 91 % 1015,3 hPa 0,0 l/m 0,0 km/h (0 Bft) O-NO 59 0 min 0,000 mm 0,0 UV-I 0 W/m 16,1 C 17,6 C 0,0 km/h (0 Bft) 100,00 %
24.06.2016 04:52 17,5 C 91 % 1015,3 hPa 0,0 l/m 0,0 km/h (0 Bft) O-NO 59 0 min 0,000 mm 0,0 UV-I 0 W/m 16,0 C 17,5 C 0,0 km/h (0 Bft) 97,87 %
24.06.2016 04:54 17,5 C 91 % 1015,3 hPa 0,0 l/m 0,0 km/h (0 Bft) O-NO 59 0 min 0,000 mm 0,0 UV-I 0 W/m 16,0 C 17,5 C 0,0 km/h (0 Bft) 100,00 %
24.06.2016 04:56 17,4 C 91 % 1015,3 hPa 0,0 l/m 0,0 km/h (0 Bft) O-NO 59 0 min 0,000 mm 0,0 UV-I 0 W/m 15,9 C 17,4 C 0,0 km/h (0 Bft) 100,00 %
24.06.2016 04:58 17,4 C 91 % 1015,4 hPa 0,0 l/m 0,0 km/h (0 Bft) O-NO 59 0 min 0,000 mm 0,0 UV-I 0 W/m 15,9 C 17,4 C 0,0 km/h (0 Bft) 100,00 %
24.06.2016 05:00 17,4 C 91 % 1015,4 hPa 0,0 l/m 0,0 km/h (0 Bft) O-NO 59 0 min 0,000 mm 0,0 UV-I 0 W/m 15,9 C 17,4 C 0,0 km/h (0 Bft) 100,00 %
24.06.2016 05:02 17,4 C 91 % 1015,4 hPa 0,0 l/m 0,0 km/h (0 Bft) O-NO 59 0 min 0,000 mm 0,0 UV-I 3 W/m 15,9 C 17,4 C 0,0 km/h (0 Bft) 100,00 %
24.06.2016 05:04 17,3 C 91 % 1015,4 hPa 0,0 l/m 0,0 km/h (0 Bft) O-NO 59 0 min 0,000 mm 0,0 UV-I 5 W/m 15,8 C 17,3 C 0,0 km/h (0 Bft) 100,00 %
24.06.2016 05:06 17,4 C 91 % 1015,4 hPa 0,0 l/m 0,0 km/h (0 Bft) O-NO 59 0 min 0,000 mm 0,0 UV-I 5 W/m 15,9 C 17,4 C 0,0 km/h (0 Bft) 100,00 %
24.06.2016 05:08 17,3 C 91 % 1015,4 hPa 0,0 l/m 0,0 km/h (0 Bft) O-NO 59 0 min 0,000 mm 0,0 UV-I 6 W/m 15,8 C 17,3 C 0,0 km/h (0 Bft) 100,00 %
24.06.2016 05:10 17,3 C 91 % 1015,5 hPa 0,0 l/m 0,0 km/h (0 Bft) O-NO 59 0 min 0,000 mm 0,0 UV-I 7 W/m 15,8 C 17,3 C 0,0 km/h (0 Bft) 97,87 %
24.06.2016 05:12 17,3 C 91 % 1015,5 hPa 0,0 l/m 0,0 km/h (0 Bft) O-NO 59 0 min 0,000 mm 0,0 UV-I 7 W/m 15,8 C 17,3 C 1,6 km/h (1 Bft) 100,00 %
24.06.2016 05:14 17,2 C 91 % 1015,5 hPa 0,0 l/m 0,2 km/h (0 Bft) O-NO 59 0 min 0,000 mm 0,0 UV-I 9 W/m 15,7 C 17,2 C 1,6 km/h (1 Bft) 100,00 %
24.06.2016 05:16 17,2 C 92 % 1015,4 hPa 0,0 l/m 0,0 km/h (0 Bft) O-NO 59 0 min 0,000 mm 0,0 UV-I 10 W/m 15,9 C 17,2 C 0,0 km/h (0 Bft) 97,87 %
24.06.2016 05:18 17,2 C 92 % 1015,4 hPa 0,0 l/m 0,0 km/h (0 Bft) O-NO 59 2 min 0,000 mm 0,0 UV-I 11 W/m 15,9 C 17,2 C 0,0 km/h (0 Bft) 100,00 %
24.06.2016 05:20 17,2 C 92 % 1015,4 hPa 0,0 l/m 0,0 km/h (0 Bft) O-NO 59 0 min 0,000 mm 0,0 UV-I 11 W/m 15,9 C 17,2 C 0,0 km/h (0 Bft) 100,00 %
24.06.2016 05:22 17,2 C 92 % 1015,3 hPa 0,0 l/m 0,0 km/h (0 Bft) O-NO 59 0 min 0,000 mm 0,0 UV-I 12 W/m 15,9 C 17,2 C 1,6 km/h (1 Bft) 100,00 %
24.06.2016 05:24 17,1 C 92 % 1015,4 hPa 0,0 l/m 0,4 km/h (0 Bft) O-NO 59 0 min 0,000 mm 0,0 UV-I 13 W/m 15,8 C 17,1 C 1,6 km/h (1 Bft) 97,73 %
24.06.2016 05:26 17,1 C 92 % 1015,4 hPa 0,0 l/m 0,1 km/h (0 Bft) O-NO 59 0 min 0,000 mm 0,0 UV-I 14 W/m 15,8 C 17,1 C 1,6 km/h (1 Bft) 100,00 %
24.06.2016 05:28 17,1 C 92 % 1015,4 hPa 0,0 l/m 0,9 km/h (0 Bft) O-NO 59 0 min 0,000 mm 0,0 UV-I 16 W/m 15,8 C 17,1 C 3,2 km/h (1 Bft) 100,00 %
24.06.2016 05:30 17,1 C 92 % 1015,3 hPa 0,0 l/m 0,2 km/h (0 Bft) O-NO 59 0 min 0,000 mm 0,0 UV-I 16 W/m 15,8 C 17,1 C 1,6 km/h (1 Bft) 100,00 %
24.06.2016 05:32 17,2 C 93 % 1015,3 hPa 0,0 l/m 0,0 km/h (0 Bft) O-NO 59 0 min 0,000 mm 0,0 UV-I 17 W/m 16,1 C 17,2 C 0,0 km/h (0 Bft) 100,00 %
24.06.2016 05:34 17,2 C 92 % 1015,3 hPa 0,0 l/m 0,0 km/h (0 Bft) O-NO 59 0 min 0,000 mm 0,0 UV-I 18 W/m 15,9 C 17,2 C 0,0 km/h (0 Bft) 98,25 %
24.06.2016 05:36 17,2 C 92 % 1015,2 hPa 0,0 l/m 0,0 km/h (0 Bft) O-NO 59 0 min 0,000 mm 0,0 UV-I 19 W/m 15,9 C 17,2 C 0,0 km/h (0 Bft) 95,12 %
24.06.2016 05:38 17,2 C 92 % 1015,3 hPa 0,0 l/m 0,0 km/h (0 Bft) O-NO 59 0 min 0,000 mm 0,0 UV-I 19 W/m 15,9 C 17,2 C 0,0 km/h (0 Bft) 97,87 %
24.06.2016 05:40 17,2 C 92 % 1015,2 hPa 0,0 l/m 0,0 km/h (0 Bft) O-NO 59 0 min 0,000 mm 0,0 UV-I 21 W/m 15,9 C 17,2 C 0,0 km/h (0 Bft) 98,11 %
24.06.2016 05:42 17,2 C 92 % 1015,3 hPa 0,0 l/m 0,0 km/h (0 Bft) O-NO 59 0 min 0,000 mm 0,0 UV-I 21 W/m 15,9 C 17,2 C 0,0 km/h (0 Bft) 97,22 %
24.06.2016 05:44 17,2 C 93 % 1015,3 hPa 0,0 l/m 0,0 km/h (0 Bft) O-NO 59 0 min 0,000 mm 0,0 UV-I 22 W/m 16,1 C 17,2 C 0,0 km/h (0 Bft) 98,00 %
24.06.2016 05:46 17,2 C 93 % 1015,3 hPa 0,0 l/m 0,0 km/h (0 Bft) O-NO 59 0 min 0,000 mm 0,0 UV-I 23 W/m 16,1 C 17,2 C 0,0 km/h (0 Bft) 96,23 %
24.06.2016 05:48 17,3 C 93 % 1015,3 hPa 0,0 l/m 0,0 km/h (0 Bft) O-NO 59 0 min 0,000 mm 0,0 UV-I 25 W/m 16,2 C 17,3 C 0,0 km/h (0 Bft) 95,74 %
24.06.2016 05:50 17,3 C 93 % 1015,3 hPa 0,0 l/m 0,5 km/h (0 Bft) O-NO 59 0 min 0,000 mm 0,0 UV-I 25 W/m 16,2 C 17,3 C 3,2 km/h (1 Bft) 95,74 %
24.06.2016 05:52 17,3 C 93 % 1015,3 hPa 0,0 l/m 1,2 km/h (1 Bft) O-NO 59 0 min 0,000 mm 0,0 UV-I 26 W/m 16,2 C 17,3 C 3,2 km/h (1 Bft) 97,22 %
24.06.2016 05:54 17,3 C 93 % 1015,3 hPa 0,0 l/m 0,5 km/h (0 Bft) O-NO 59 0 min 0,000 mm 0,0 UV-I 26 W/m 16,2 C 17,3 C 3,2 km/h (1 Bft) 98,21 %
24.06.2016 05:56 17,3 C 93 % 1015,3 hPa 0,0 l/m 0,7 km/h (0 Bft) O-NO 59 0 min 0,000 mm 0,0 UV-I 27 W/m 16,2 C 17,3 C 1,6 km/h (1 Bft) 97,87 %
24.06.2016 05:58 17,3 C 93 % 1015,3 hPa 0,0 l/m 0,7 km/h (0 Bft) O-NO 59 0 min 0,000 mm 0,0 UV-I 28 W/m 16,2 C 17,3 C 3,2 km/h (1 Bft) 97,87 %
24.06.2016 06:00 17,4 C 93 % 1015,3 hPa 0,0 l/m 0,6 km/h (0 Bft) O-NO 59 0 min 0,000 mm 0,0 UV-I 29 W/m 16,3 C 17,4 C 1,6 km/h (1 Bft) 97,56 %
24.06.2016 06:02 17,4 C 93 % 1015,4 hPa 0,0 l/m 0,1 km/h (0 Bft) O-NO 59 0 min 0,000 mm 0,0 UV-I 30 W/m 16,3 C 17,4 C 1,6 km/h (1 Bft) 97,87 %
24.06.2016 06:04 17,4 C 93 % 1015,4 hPa 0,0 l/m 0,3 km/h (0 Bft) O-NO 59 0 min 0,000 mm 0,0 UV-I 30 W/m 16,3 C 17,4 C 1,6 km/h (1 Bft) 95,74 %
24.06.2016 06:06 17,4 C 93 % 1015,4 hPa 0,0 l/m 0,1 km/h (0 Bft) O-NO 59 0 min 0,000 mm 0,0 UV-I 31 W/m 16,3 C 17,4 C 1,6 km/h (1 Bft) 96,23 %
24.06.2016 06:08 17,4 C 93 % 1015,5 hPa 0,0 l/m 1,4 km/h (1 Bft) O-NO 59 0 min 0,000 mm 0,0 UV-I 32 W/m 16,3 C 17,4 C 3,2 km/h (1 Bft) 97,37 %
24.06.2016 06:10 17,5 C 93 % 1015,5 hPa 0,0 l/m 2,5 km/h (1 Bft) O-NO 59 0 min 0,000 mm 0,0 UV-I 33 W/m 16,4 C 17,5 C 3,2 km/h (1 Bft) 95,45 %
24.06.2016 06:12 17,6 C 93 % 1015,5 hPa 0,0 l/m 1,1 km/h (1 Bft) O-NO 59 0 min 0,000 mm 0,0 UV-I 33 W/m 16,5 C 17,6 C 3,2 km/h (1 Bft) 98,21 %
24.06.2016 06:14 17,7 C 93 % 1015,5 hPa 0,0 l/m 1,9 km/h (1 Bft) O-NO 59 0 min 0,000 mm 0,0 UV-I 33 W/m 16,6 C 17,7 C 3,2 km/h (1 Bft) 98,00 %
24.06.2016 06:16 17,8 C 93 % 1015,5 hPa 0,0 l/m 1,6 km/h (1 Bft) O-NO 59 0 min 0,000 mm 0,0 UV-I 35 W/m 16,7 C 17,8 C 3,2 km/h (1 Bft) 100,00 %
24.06.2016 06:18 17,8 C 93 % 1015,5 hPa 0,0 l/m 1,0 km/h (0 Bft) O-NO 59 0 min 0,000 mm 0,0 UV-I 35 W/m 16,7 C 17,8 C 1,6 km/h (1 Bft) 100,00 %
24.06.2016 06:20 17,9 C 92 % 1015,5 hPa 0,0 l/m 0,8 km/h (0 Bft) O-NO 59 0 min 0,000 mm 0,0 UV-I 36 W/m 16,6 C 17,9 C 1,6 km/h (1 Bft) 100,00 %
24.06.2016 06:22 18,0 C 92 % 1015,5 hPa 0,0 l/m 0,3 km/h (0 Bft) O-NO 59 0 min 0,000 mm 0,0 UV-I 37 W/m 16,7 C 18,0 C 1,6 km/h (1 Bft) 98,00 %
24.06.2016 06:24 18,1 C 92 % 1015,5 hPa 0,0 l/m 1,0 km/h (0 Bft) O-NO 59 0 min 0,000 mm 0,0 UV-I 38 W/m 16,8 C 18,1 C 1,6 km/h (1 Bft) 100,00 %
24.06.2016 06:26 18,2 C 92 % 1015,5 hPa 0,0 l/m 0,2 km/h (0 Bft) O-NO 59 0 min 0,000 mm 0,0 UV-I 39 W/m 16,9 C 18,2 C 1,6 km/h (1 Bft) 100,00 %
24.06.2016 06:28 18,3 C 91 % 1015,6 hPa 0,0 l/m 0,0 km/h (0 Bft) O-NO 59 0 min 0,000 mm 0,0 UV-I 39 W/m 16,8 C 18,3 C 1,6 km/h (1 Bft) 100,00 %
24.06.2016 06:30 18,3 C 91 % 1015,5 hPa 0,0 l/m 0,0 km/h (0 Bft) O-NO 59 0 min 0,000 mm 0,0 UV-I 40 W/m 16,8 C 18,3 C 0,0 km/h (0 Bft) 100,00 %
24.06.2016 06:32 18,4 C 91 % 1015,5 hPa 0,0 l/m 0,0 km/h (0 Bft) O-NO 59 0 min 0,000 mm 0,0 UV-I 40 W/m 16,9 C 18,4 C 0,0 km/h (0 Bft) 100,00 %
24.06.2016 06:34 18,4 C 91 % 1015,5 hPa 0,0 l/m 0,0 km/h (0 Bft) O-NO 59 0 min 0,000 mm 0,0 UV-I 72 W/m 16,9 C 18,4 C 0,0 km/h (0 Bft) 100,00 %
24.06.2016 06:36 18,5 C 91 % 1015,5 hPa 0,0 l/m 0,0 km/h (0 Bft) O-NO 59 0 min 0,000 mm 0,0 UV-I 102 W/m 17,0 C 18,5 C 0,0 km/h (0 Bft) 100,00 %
24.06.2016 06:38 18,6 C 91 % 1015,5 hPa 0,0 l/m 0,1 km/h (0 Bft) O-NO 59 0 min 0,000 mm 0,0 UV-I 101 W/m 17,1 C 18,6 C 1,6 km/h (1 Bft) 100,00 %
24.06.2016 06:40 18,7 C 91 % 1015,5 hPa 0,0 l/m 0,0 km/h (0 Bft) O-NO 59 0 min 0,000 mm 0,0 UV-I 100 W/m 17,2 C 18,7 C 0,0 km/h (0 Bft) 98,00 %
24.06.2016 06:42 18,8 C 92 % 1015,5 hPa 0,0 l/m 0,3 km/h (0 Bft) O-NO 59 0 min 0,000 mm 0,0 UV-I 106 W/m 17,5 C 18,8 C 3,2 km/h (1 Bft) 100,00 %
24.06.2016 06:44 18,9 C 92 % 1015,5 hPa 0,0 l/m 0,1 km/h (0 Bft) O-NO 59 0 min 0,000 mm 0,0 UV-I 118 W/m 17,6 C 18,9 C 1,6 km/h (1 Bft) 100,00 %
24.06.2016 06:46 19,1 C 91 % 1015,5 hPa 0,0 l/m 1,7 km/h (1 Bft) O-NO 59 0 min 0,000 mm 0,0 UV-I 120 W/m 17,6 C 19,1 C 3,2 km/h (1 Bft) 100,00 %
24.06.2016 06:48 19,2 C 91 % 1015,5 hPa 0,0 l/m 2,6 km/h (1 Bft) O-NO 59 0 min 0,000 mm 0,0 UV-I 116 W/m 17,7 C 19,2 C 4,8 km/h (1 Bft) 97,87 %
24.06.2016 06:50 19,4 C 90 % 1015,4 hPa 0,0 l/m 2,4 km/h (1 Bft) O-NO 59 0 min 0,000 mm 0,0 UV-I 122 W/m 17,7 C 19,4 C 3,2 km/h (1 Bft) 100,00 %
24.06.2016 06:52 19,6 C 90 % 1015,4 hPa 0,0 l/m 1,8 km/h (1 Bft) O-NO 59 0 min 0,000 mm 0,0 UV-I 133 W/m 17,9 C 19,6 C 3,2 km/h (1 Bft) 100,00 %
24.06.2016 06:54 19,7 C 90 % 1015,4 hPa 0,0 l/m 3,5 km/h (1 Bft) N-NO 26 0 min 0,000 mm 0,0 UV-I 142 W/m 18,0 C 19,7 C 6,4 km/h (2 Bft) 100,00 %
24.06.2016 06:56 19,8 C 89 % 1015,4 hPa 0,0 l/m 2,8 km/h (1 Bft) NO 40 2 min 0,000 mm 0,0 UV-I 150 W/m 17,9 C 19,8 C 4,8 km/h (1 Bft) 100,00 %
24.06.2016 06:58 19,9 C 88 % 1015,4 hPa 0,0 l/m 2,7 km/h (1 Bft) NO 56 2 min 0,000 mm 0,0 UV-I 154 W/m 17,8 C 19,9 C 4,8 km/h (1 Bft) 100,00 %
24.06.2016 07:00 20,1 C 88 % 1015,3 hPa 0,0 l/m 5,1 km/h (1 Bft) N-NO 31 2 min 0,051 mm 0,0 UV-I 160 W/m 18,0 C 20,1 C 8,0 km/h (2 Bft) 98,00 %
24.06.2016 07:02 20,2 C 88 % 1015,4 hPa 0,0 l/m 6,9 km/h (2 Bft) NO 55 2 min 0,000 mm 0,4 UV-I 164 W/m 18,1 C 20,0 C 9,7 km/h (2 Bft) 98,00 %
24.06.2016 07:04 20,2 C 87 % 1015,4 hPa 0,0 l/m 6,8 km/h (2 Bft) NO 55 2 min 0,000 mm 0,5 UV-I 170 W/m 18,0 C 20,0 C 11,3 km/h (2 Bft) 100,00 %
24.06.2016 07:06 20,3 C 87 % 1015,4 hPa 0,0 l/m 6,5 km/h (2 Bft) NO 42 2 min 0,000 mm 0,5 UV-I 175 W/m 18,1 C 20,3 C 9,7 km/h (2 Bft) 100,00 %
24.06.2016 07:08 20,4 C 86 % 1015,4 hPa 0,0 l/m 6,4 km/h (2 Bft) O-NO 61 2 min 0,000 mm 0,5 UV-I 180 W/m 18,0 C 20,4 C 9,7 km/h (2 Bft) 94,34 %
24.06.2016 07:10 20,4 C 86 % 1015,4 hPa 0,0 l/m 8,4 km/h (2 Bft) O-NO 75 2 min 0,000 mm 0,5 UV-I 185 W/m 18,0 C 19,6 C 14,5 km/h (3 Bft) 100,00 %
24.06.2016 07:12 20,5 C 86 % 1015,5 hPa 0,0 l/m 8,0 km/h (2 Bft) O-NO 68 2 min 0,000 mm 0,6 UV-I 191 W/m 18,1 C 19,9 C 11,3 km/h (2 Bft) 100,00 %
24.06.2016 07:14 20,6 C 85 % 1015,5 hPa 0,0 l/m 6,7 km/h (2 Bft) O-NO 67 2 min 0,000 mm 0,6 UV-I 198 W/m 18,0 C 20,5 C 12,9 km/h (3 Bft) 100,00 %
24.06.2016 07:16 20,6 C 85 % 1015,5 hPa 0,0 l/m 4,7 km/h (1 Bft) O-NO 68 2 min 0,000 mm 0,6 UV-I 203 W/m 18,0 C 20,6 C 6,4 km/h (2 Bft) 100,00 %
24.06.2016 07:18 20,7 C 85 % 1015,6 hPa 0,0 l/m 8,8 km/h (2 Bft) O-NO 61 2 min 0,000 mm 0,6 UV-I 210 W/m 18,1 C 19,8 C 14,5 km/h (3 Bft) 97,87 %
24.06.2016 07:20 20,7 C 85 % 1015,5 hPa 0,0 l/m 7,6 km/h (2 Bft) NO 38 2 min 0,000 mm 0,6 UV-I 216 W/m 18,1 C 20,2 C 11,3 km/h (2 Bft) 100,00 %
24.06.2016 07:22 20,8 C 85 % 1015,6 hPa 0,0 l/m 8,0 km/h (2 Bft) O-NO 59 2 min 0,000 mm 0,7 UV-I 223 W/m 18,2 C 20,2 C 12,9 km/h (3 Bft) 100,00 %
24.06.2016 07:24 20,8 C 84 % 1015,6 hPa 0,0 l/m 6,9 km/h (2 Bft) NO 54 2 min 0,000 mm 0,7 UV-I 229 W/m 18,0 C 20,6 C 11,3 km/h (2 Bft) 100,00 %
24.06.2016 07:26 20,8 C 84 % 1015,6 hPa 0,0 l/m 5,6 km/h (1 Bft) O-NO 57 2 min 0,000 mm 0,7 UV-I 236 W/m 18,0 C 20,8 C 8,0 km/h (2 Bft) 100,00 %
24.06.2016 07:28 20,9 C 84 % 1015,6 hPa 0,0 l/m 5,0 km/h (1 Bft) N 5 2 min 0,000 mm 0,7 UV-I 243 W/m 18,1 C 20,9 C 6,4 km/h (2 Bft) 100,00 %
24.06.2016 07:30 21,0 C 85 % 1015,6 hPa 0,0 l/m 6,8 km/h (2 Bft) O-NO 61 2 min 0,000 mm 0,8 UV-I 250 W/m 18,4 C 20,9 C 12,9 km/h (3 Bft) 100,00 %
24.06.2016 07:32 21,1 C 84 % 1015,6 hPa 0,0 l/m 4,8 km/h (1 Bft) NO 50 2 min 0,000 mm 0,8 UV-I 256 W/m 18,3 C 21,1 C 6,4 km/h (2 Bft) 100,00 %
24.06.2016 07:34 21,2 C 83 % 1015,6 hPa 0,0 l/m 7,8 km/h (2 Bft) NO 46 2 min 0,000 mm 0,8 UV-I 262 W/m 18,2 C 20,7 C 12,9 km/h (3 Bft) 100,00 %
24.06.2016 07:36 21,2 C 83 % 1015,7 hPa 0,0 l/m 6,9 km/h (2 Bft) O-NO 57 2 min 0,000 mm 0,9 UV-I 272 W/m 18,2 C 21,0 C 11,3 km/h (2 Bft) 100,00 %
24.06.2016 07:38 21,3 C 82 % 1015,6 hPa 0,0 l/m 6,2 km/h (2 Bft) O 84 2 min 0,000 mm 0,9 UV-I 285 W/m 18,1 C 21,3 C 9,7 km/h (2 Bft) 100,00 %
24.06.2016 07:40 21,3 C 83 % 1015,6 hPa 0,0 l/m 6,6 km/h (2 Bft) O-NO 67 2 min 0,000 mm 0,9 UV-I 291 W/m 18,3 C 21,2 C 11,3 km/h (2 Bft) 97,73 %
24.06.2016 07:42 21,4 C 82 % 1015,6 hPa 0,0 l/m 6,9 km/h (2 Bft) O-NO 63 2 min 0,000 mm 0,9 UV-I 293 W/m 18,2 C 21,2 C 9,7 km/h (2 Bft) 100,00 %
24.06.2016 07:44 21,4 C 82 % 1015,7 hPa 0,0 l/m 6,4 km/h (2 Bft) O-NO 65 2 min 0,000 mm 1,0 UV-I 295 W/m 18,2 C 21,4 C 11,3 km/h (2 Bft) 95,45 %
24.06.2016 07:46 21,5 C 82 % 1015,7 hPa 0,0 l/m 7,9 km/h (2 Bft) O-NO 72 2 min 0,000 mm 1,0 UV-I 301 W/m 18,3 C 21,0 C 12,9 km/h (3 Bft) 98,28 %
24.06.2016 07:48 21,6 C 82 % 1015,7 hPa 0,0 l/m 7,3 km/h (2 Bft) NO 37 2 min 0,000 mm 1,0 UV-I 308 W/m 18,4 C 21,3 C 11,3 km/h (2 Bft) 97,87 %
24.06.2016 07:50 21,6 C 82 % 1015,6 hPa 0,0 l/m 8,6 km/h (2 Bft) O-NO 68 2 min 0,000 mm 1,1 UV-I 313 W/m 18,4 C 20,8 C 11,3 km/h (2 Bft) 97,62 %
24.06.2016 07:52 21,7 C 82 % 1015,6 hPa 0,0 l/m 7,1 km/h (2 Bft) NO 35 2 min 0,000 mm 1,1 UV-I 318 W/m 18,5 C 21,5 C 9,7 km/h (2 Bft) 94,64 %
24.06.2016 07:54 21,8 C 81 % 1015,6 hPa 0,0 l/m 8,1 km/h (2 Bft) O-NO 68 2 min 0,000 mm 1,1 UV-I 323 W/m 18,4 C 21,2 C 14,5 km/h (3 Bft) 96,15 %
24.06.2016 07:56 21,8 C 81 % 1015,7 hPa 0,0 l/m 8,9 km/h (2 Bft) O 86 2 min 0,000 mm 1,2 UV-I 331 W/m 18,4 C 21,0 C 12,9 km/h (3 Bft) 94,12 %
24.06.2016 07:58 21,9 C 80 % 1015,6 hPa 0,0 l/m 10,9 km/h (2 Bft) O-NO 78 2 min 0,000 mm 1,2 UV-I 336 W/m 18,3 C 20,5 C 14,5 km/h (3 Bft) 95,12 %
24.06.2016 08:00 21,9 C 80 % 1015,6 hPa 0,0 l/m 10,2 km/h (2 Bft) O-NO 59 2 min 0,152 mm 1,2 UV-I 342 W/m 18,3 C 20,7 C 16,1 km/h (3 Bft) 95,74 %
24.06.2016 08:02 21,9 C 80 % 1015,6 hPa 0,0 l/m 9,2 km/h (2 Bft) O-NO 72 2 min 0,000 mm 1,3 UV-I 347 W/m 18,3 C 21,0 C 14,5 km/h (3 Bft) 96,23 %
24.06.2016 08:04 22,0 C 80 % 1015,6 hPa 0,0 l/m 11,1 km/h (2 Bft) O-NO 65 2 min 0,000 mm 1,3 UV-I 352 W/m 18,4 C 20,6 C 14,5 km/h (3 Bft) 95,12 %
24.06.2016 08:06 22,1 C 81 % 1015,6 hPa 0,0 l/m 7,5 km/h (2 Bft) O-NO 69 2 min 0,000 mm 1,3 UV-I 357 W/m 18,7 C 21,7 C 14,5 km/h (3 Bft) 96,23 %
24.06.2016 08:08 22,2 C 80 % 1015,7 hPa 0,0 l/m 7,5 km/h (2 Bft) O-NO 70 2 min 0,000 mm 1,4 UV-I 362 W/m 18,6 C 21,8 C 12,9 km/h (3 Bft) 97,56 %
24.06.2016 08:10 22,2 C 79 % 1015,7 hPa 0,0 l/m 7,1 km/h (2 Bft) O-NO 67 2 min 0,000 mm 1,4 UV-I 368 W/m 18,4 C 22,0 C 12,9 km/h (3 Bft) 98,00 %
24.06.2016 08:12 22,3 C 80 % 1015,6 hPa 0,0 l/m 5,7 km/h (1 Bft) O-NO 73 2 min 0,000 mm 1,4 UV-I 373 W/m 18,7 C 22,3 C 11,3 km/h (2 Bft) 97,56 %
24.06.2016 08:14 22,3 C 80 % 1015,6 hPa 0,0 l/m 6,0 km/h (2 Bft) O 86 2 min 0,000 mm 1,5 UV-I 378 W/m 18,7 C 22,3 C 11,3 km/h (2 Bft) 100,00 %
24.06.2016 08:16 22,3 C 80 % 1015,6 hPa 0,0 l/m 4,3 km/h (1 Bft) O 96 2 min 0,000 mm 1,5 UV-I 384 W/m 18,7 C 22,3 C 6,4 km/h (2 Bft) 100,00 %
24.06.2016 08:18 22,4 C 80 % 1015,6 hPa 0,0 l/m 4,4 km/h (1 Bft) O 92 2 min 0,000 mm 1,6 UV-I 389 W/m 18,8 C 22,4 C 6,4 km/h (2 Bft) 100,00 %
24.06.2016 08:20 22,6 C 79 % 1015,6 hPa 0,0 l/m 5,2 km/h (1 Bft) O-NO 57 2 min 0,000 mm 1,6 UV-I 395 W/m 18,8 C 22,6 C 9,7 km/h (2 Bft) 98,00 %
24.06.2016 08:22 22,6 C 78 % 1015,6 hPa 0,0 l/m 7,2 km/h (2 Bft) O 84 2 min 0,000 mm 1,6 UV-I 400 W/m 18,6 C 22,3 C 9,7 km/h (2 Bft) 100,00 %
24.06.2016 08:24 22,6 C 78 % 1015,6 hPa 0,0 l/m 6,6 km/h (2 Bft) O-NO 78 2 min 0,000 mm 1,7 UV-I 406 W/m 18,6 C 22,5 C 9,7 km/h (2 Bft) 100,00 %
24.06.2016 08:26 22,6 C 77 % 1015,7 hPa 0,0 l/m 6,1 km/h (2 Bft) O-NO 65 2 min 0,000 mm 1,7 UV-I 411 W/m 18,4 C 22,6 C 11,3 km/h (2 Bft) 100,00 %
24.06.2016 08:28 22,6 C 79 % 1015,7 hPa 0,0 l/m 3,8 km/h (1 Bft) O 97 2 min 0,000 mm 1,8 UV-I 416 W/m 18,8 C 22,6 C 11,3 km/h (2 Bft) 100,00 %
24.06.2016 08:30 22,7 C 79 % 1015,7 hPa 0,0 l/m 2,4 km/h (1 Bft) O-NO 78 2 min 0,000 mm 1,8 UV-I 421 W/m 18,9 C 22,7 C 6,4 km/h (2 Bft) 100,00 %
24.06.2016 08:32 22,8 C 79 % 1015,6 hPa 0,0 l/m 5,9 km/h (2 Bft) O-NO 73 2 min 0,000 mm 1,9 UV-I 426 W/m 19,0 C 22,8 C 9,7 km/h (2 Bft) 100,00 %
24.06.2016 08:34 22,9 C 77 % 1015,7 hPa 0,0 l/m 6,6 km/h (2 Bft) O-NO 78 2 min 0,000 mm 1,9 UV-I 431 W/m 18,6 C 22,8 C 11,3 km/h (2 Bft) 100,00 %
24.06.2016 08:36 22,9 C 77 % 1015,7 hPa 0,0 l/m 5,3 km/h (1 Bft) O 79 2 min 0,000 mm 1,9 UV-I 437 W/m 18,6 C 22,9 C 8,0 km/h (2 Bft) 100,00 %
24.06.2016 08:38 22,9 C 78 % 1015,7 hPa 0,0 l/m 3,8 km/h (1 Bft) O-NO 61 2 min 0,000 mm 2,0 UV-I 443 W/m 18,9 C 22,9 C 8,0 km/h (2 Bft) 100,00 %
24.06.2016 08:40 22,9 C 77 % 1015,7 hPa 0,0 l/m 4,5 km/h (1 Bft) O 100 2 min 0,000 mm 2,0 UV-I 448 W/m 18,6 C 22,9 C 6,4 km/h (2 Bft) 100,00 %
24.06.2016 08:42 23,0 C 77 % 1015,7 hPa 0,0 l/m 4,1 km/h (1 Bft) O 80 2 min 0,000 mm 2,1 UV-I 455 W/m 18,7 C 23,0 C 6,4 km/h (2 Bft) 98,28 %
24.06.2016 08:44 23,2 C 79 % 1015,7 hPa 0,0 l/m 4,7 km/h (1 Bft) O-NO 60 2 min 0,000 mm 2,1 UV-I 459 W/m 19,3 C 23,2 C 8,0 km/h (2 Bft) 100,00 %
24.06.2016 08:46 23,3 C 76 % 1015,7 hPa 0,0 l/m 2,8 km/h (1 Bft) O-NO 65 2 min 0,000 mm 2,2 UV-I 464 W/m 18,8 C 23,3 C 4,8 km/h (1 Bft) 100,00 %
24.06.2016 08:48 23,3 C 77 % 1015,7 hPa 0,0 l/m 2,5 km/h (1 Bft) NO 45 2 min 0,000 mm 2,2 UV-I 470 W/m 19,0 C 23,3 C 4,8 km/h (1 Bft) 100,00 %
24.06.2016 08:50 23,4 C 77 % 1015,7 hPa 0,0 l/m 2,5 km/h (1 Bft) NO 45 2 min 0,000 mm 2,3 UV-I 473 W/m 19,1 C 23,4 C 4,8 km/h (1 Bft) 97,14 %
24.06.2016 08:52 23,5 C 77 % 1015,7 hPa 0,0 l/m 1,9 km/h (1 Bft) NO 45 2 min 0,000 mm 2,3 UV-I 478 W/m 19,2 C 23,5 C 4,8 km/h (1 Bft) 98,21 %
24.06.2016 08:54 23,5 C 77 % 1015,7 hPa 0,0 l/m 0,4 km/h (0 Bft) NO 45 2 min 0,000 mm 2,4 UV-I 483 W/m 19,2 C 23,5 C 1,6 km/h (1 Bft) 100,00 %
24.06.2016 08:56 23,6 C 78 % 1015,7 hPa 0,0 l/m 3,3 km/h (1 Bft) N-NO 30 2 min 0,000 mm 2,4 UV-I 489 W/m 19,5 C 23,6 C 8,0 km/h (2 Bft) 100,00 %
24.06.2016 08:58 23,8 C 78 % 1015,7 hPa 0,0 l/m 1,5 km/h (1 Bft) N 355 2 min 0,000 mm 2,5 UV-I 493 W/m 19,7 C 23,8 C 6,4 km/h (2 Bft) 100,00 %
24.06.2016 09:00 23,8 C 78 % 1015,7 hPa 0,0 l/m 1,3 km/h (1 Bft) N 5 2 min 0,280 mm 2,5 UV-I 496 W/m 19,7 C 23,8 C 3,2 km/h (1 Bft) 100,00 %
24.06.2016 09:02 23,9 C 77 % 1015,7 hPa 0,0 l/m 3,6 km/h (1 Bft) NO 48 2 min 0,000 mm 2,6 UV-I 497 W/m 19,6 C 23,9 C 6,4 km/h (2 Bft) 98,00 %
24.06.2016 09:04 24,1 C 76 % 1015,7 hPa 0,0 l/m 3,7 km/h (1 Bft) NO 42 2 min 0,000 mm 2,6 UV-I 497 W/m 19,6 C 24,1 C 6,4 km/h (2 Bft) 100,00 %
24.06.2016 09:06 24,0 C 74 % 1015,7 hPa 0,0 l/m 1,4 km/h (1 Bft) NO 42 2 min 0,000 mm 2,7 UV-I 495 W/m 19,1 C 24,0 C 4,8 km/h (1 Bft) 100,00 %
24.06.2016 09:08 24,0 C 75 % 1015,7 hPa 0,0 l/m 0,2 km/h (0 Bft) NO 41 2 min 0,000 mm 2,7 UV-I 489 W/m 19,3 C 24,0 C 1,6 km/h (1 Bft) 100,00 %
24.06.2016 09:10 24,1 C 75 % 1015,6 hPa 0,0 l/m 1,0 km/h (0 Bft) NO 41 2 min 0,000 mm 2,8 UV-I 485 W/m 19,4 C 24,1 C 3,2 km/h (1 Bft) 100,00 %
24.06.2016 09:12 24,1 C 75 % 1015,6 hPa 0,0 l/m 3,5 km/h (1 Bft) NO 41 2 min 0,000 mm 2,8 UV-I 478 W/m 19,4 C 24,1 C 4,8 km/h (1 Bft) 98,00 %
24.06.2016 09:14 24,2 C 74 % 1015,6 hPa 0,0 l/m 3,3 km/h (1 Bft) NO 46 2 min 0,000 mm 2,9 UV-I 469 W/m 19,3 C 24,2 C 4,8 km/h (1 Bft) 100,00 %
24.06.2016 09:16 24,1 C 75 % 1015,6 hPa 0,0 l/m 1,3 km/h (1 Bft) NO 43 2 min 0,000 mm 2,9 UV-I 464 W/m 19,4 C 24,1 C 3,2 km/h (1 Bft) 95,74 %
24.06.2016 09:18 24,1 C 75 % 1015,6 hPa 0,0 l/m 2,0 km/h (1 Bft) N-NO 17 2 min 0,000 mm 3,0 UV-I 459 W/m 19,4 C 24,1 C 3,2 km/h (1 Bft) 100,00 %
24.06.2016 09:20 24,1 C 75 % 1015,6 hPa 0,0 l/m 2,5 km/h (1 Bft) W-NW 291 2 min 0,000 mm 3,1 UV-I 454 W/m 19,4 C 24,1 C 4,8 km/h (1 Bft) 100,00 %
24.06.2016 09:22 24,1 C 75 % 1015,6 hPa 0,0 l/m 1,9 km/h (1 Bft) W-NW 291 2 min 0,000 mm 3,1 UV-I 450 W/m 19,4 C 24,1 C 3,2 km/h (1 Bft) 100,00 %
24.06.2016 09:24 24,1 C 76 % 1015,6 hPa 0,0 l/m 0,5 km/h (0 Bft) W-NW 291 2 min 0,000 mm 3,2 UV-I 448 W/m 19,6 C 24,1 C 1,6 km/h (1 Bft) 100,00 %
24.06.2016 09:26 24,2 C 78 % 1015,6 hPa 0,0 l/m 1,0 km/h (0 Bft) NW 310 2 min 0,000 mm 3,2 UV-I 449 W/m 20,1 C 24,2 C 3,2 km/h (1 Bft) 97,87 %
24.06.2016 09:28 24,4 C 75 % 1015,6 hPa 0,0 l/m 0,8 km/h (0 Bft) NW 314 2 min 0,000 mm 3,2 UV-I 451 W/m 19,7 C 24,4 C 3,2 km/h (1 Bft) 100,00 %
24.06.2016 09:30 24,4 C 74 % 1015,6 hPa 0,0 l/m 0,9 km/h (0 Bft) NW 314 2 min 0,000 mm 3,3 UV-I 456 W/m 19,5 C 24,4 C 1,6 km/h (1 Bft) 97,56 %
24.06.2016 09:32 24,4 C 76 % 1015,7 hPa 0,0 l/m 1,0 km/h (0 Bft) W-NW 301 2 min 0,000 mm 3,4 UV-I 464 W/m 19,9 C 24,4 C 3,2 km/h (1 Bft) 100,00 %
24.06.2016 09:34 24,5 C 75 % 1015,7 hPa 0,0 l/m 0,9 km/h (0 Bft) W-NW 301 2 min 0,000 mm 3,4 UV-I 475 W/m 19,8 C 24,5 C 3,2 km/h (1 Bft) 100,00 %
24.06.2016 09:36 24,5 C 73 % 1015,7 hPa 0,0 l/m 0,2 km/h (0 Bft) W-NW 301 2 min 0,000 mm 3,5 UV-I 487 W/m 19,3 C 24,5 C 1,6 km/h (1 Bft) 98,00 %
24.06.2016 09:38 24,5 C 73 % 1015,7 hPa 0,0 l/m 0,3 km/h (0 Bft) W-NW 301 2 min 0,000 mm 3,5 UV-I 502 W/m 19,3 C 24,5 C 1,6 km/h (1 Bft) 97,14 %
24.06.2016 09:40 24,5 C 73 % 1015,6 hPa 0,0 l/m 0,9 km/h (0 Bft) W-NW 302 2 min 0,000 mm 3,6 UV-I 522 W/m 19,3 C 24,5 C 1,6 km/h (1 Bft) 96,23 %
24.06.2016 09:42 24,7 C 73 % 1015,6 hPa 0,0 l/m 2,2 km/h (1 Bft) N-NO 14 2 min 0,000 mm 3,6 UV-I 538 W/m 19,5 C 24,7 C 4,8 km/h (1 Bft) 98,00 %
24.06.2016 09:44 24,7 C 75 % 1015,5 hPa 0,0 l/m 0,1 km/h (0 Bft) N-NO 14 2 min 0,000 mm 3,7 UV-I 557 W/m 20,0 C 24,7 C 1,6 km/h (1 Bft) 97,44 %
24.06.2016 09:46 24,7 C 72 % 1015,5 hPa 0,0 l/m 3,6 km/h (1 Bft) S 187 2 min 0,000 mm 3,8 UV-I 574 W/m 19,3 C 24,7 C 4,8 km/h (1 Bft) 98,08 %
24.06.2016 09:48 24,7 C 73 % 1015,5 hPa 0,0 l/m 1,5 km/h (1 Bft) S-SO 161 2 min 0,000 mm 3,9 UV-I 591 W/m 19,5 C 24,7 C 3,2 km/h (1 Bft) 97,92 %
24.06.2016 09:50 24,9 C 74 % 1015,5 hPa 0,0 l/m 1,2 km/h (1 Bft) S 169 2 min 0,000 mm 3,9 UV-I 607 W/m 19,9 C 24,9 C 3,2 km/h (1 Bft) 97,37 %
24.06.2016 09:52 25,1 C 75 % 1015,5 hPa 0,0 l/m 2,6 km/h (1 Bft) NW 305 2 min 0,000 mm 4,0 UV-I 620 W/m 20,3 C 25,1 C 4,8 km/h (1 Bft) 94,34 %
24.06.2016 09:54 25,1 C 73 % 1015,5 hPa 0,0 l/m 1,5 km/h (1 Bft) NW 309 2 min 0,000 mm 4,0 UV-I 629 W/m 19,9 C 25,1 C 3,2 km/h (1 Bft) 97,87 %
24.06.2016 09:56 25,2 C 74 % 1015,5 hPa 0,0 l/m 2,2 km/h (1 Bft) NW 305 2 min 0,000 mm 4,1 UV-I 635 W/m 20,2 C 25,2 C 3,2 km/h (1 Bft) 97,56 %
24.06.2016 09:58 25,2 C 74 % 1015,5 hPa 0,0 l/m 1,3 km/h (1 Bft) NW 305 2 min 0,000 mm 4,1 UV-I 637 W/m 20,2 C 25,2 C 3,2 km/h (1 Bft) 98,00 %
24.06.2016 10:00 25,1 C 74 % 1015,5 hPa 0,0 l/m 2,2 km/h (1 Bft) N-NW 344 2 min 0,330 mm 4,2 UV-I 643 W/m 20,1 C 25,1 C 3,2 km/h (1 Bft) 97,87 %
24.06.2016 10:02 25,2 C 73 % 1015,5 hPa 0,0 l/m 2,8 km/h (1 Bft) N-NO 28 2 min 0,000 mm 4,2 UV-I 646 W/m 20,0 C 25,2 C 4,8 km/h (1 Bft) 98,00 %
24.06.2016 10:04 25,3 C 75 % 1015,5 hPa 0,0 l/m 3,9 km/h (1 Bft) O-NO 60 2 min 0,000 mm 4,3 UV-I 651 W/m 20,5 C 25,3 C 4,8 km/h (1 Bft) 98,11 %
24.06.2016 10:06 25,3 C 72 % 1015,5 hPa 0,0 l/m 3,3 km/h (1 Bft) O 89 2 min 0,000 mm 4,4 UV-I 656 W/m 19,9 C 25,3 C 4,8 km/h (1 Bft) 95,74 %
24.06.2016 10:08 25,3 C 71 % 1015,5 hPa 0,0 l/m 1,8 km/h (1 Bft) O 89 2 min 0,000 mm 4,4 UV-I 662 W/m 19,7 C 25,3 C 3,2 km/h (1 Bft) 100,00 %
24.06.2016 10:10 25,3 C 72 % 1015,5 hPa 0,0 l/m 2,1 km/h (1 Bft) O 95 2 min 0,000 mm 4,5 UV-I 667 W/m 19,9 C 25,3 C 3,2 km/h (1 Bft) 100,00 %
24.06.2016 10:12 25,5 C 73 % 1015,4 hPa 0,0 l/m 0,2 km/h (0 Bft) O 95 2 min 0,000 mm 4,5 UV-I 670 W/m 20,3 C 25,5 C 1,6 km/h (1 Bft) 100,00 %
24.06.2016 10:14 25,7 C 73 % 1015,4 hPa 0,0 l/m 1,1 km/h (1 Bft) N-NO 31 2 min 0,000 mm 4,6 UV-I 673 W/m 20,5 C 25,7 C 3,2 km/h (1 Bft) 100,00 %
24.06.2016 10:16 25,8 C 77 % 1015,4 hPa 0,0 l/m 1,4 km/h (1 Bft) NW 319 2 min 0,000 mm 4,6 UV-I 678 W/m 21,4 C 25,8 C 4,8 km/h (1 Bft) 97,56 %
24.06.2016 10:18 25,8 C 72 % 1015,4 hPa 0,0 l/m 2,2 km/h (1 Bft) N-NW 334 2 min 0,000 mm 4,7 UV-I 684 W/m 20,4 C 25,8 C 3,2 km/h (1 Bft) 98,00 %
24.06.2016 10:20 25,9 C 71 % 1015,4 hPa 0,0 l/m 3,1 km/h (1 Bft) NW 324 2 min 0,000 mm 4,8 UV-I 688 W/m 20,2 C 25,9 C 4,8 km/h (1 Bft) 100,00 %
24.06.2016 10:22 25,9 C 71 % 1015,4 hPa 0,0 l/m 2,5 km/h (1 Bft) N 10 2 min 0,000 mm 4,8 UV-I 690 W/m 20,2 C 25,9 C 4,8 km/h (1 Bft) 100,00 %
24.06.2016 10:24 25,9 C 75 % 1015,4 hPa 0,0 l/m 1,3 km/h (1 Bft) N 5 2 min 0,000 mm 4,9 UV-I 695 W/m 21,1 C 25,9 C 3,2 km/h (1 Bft) 97,96 %
24.06.2016 10:26 26,1 C 71 % 1015,4 hPa 0,0 l/m 1,7 km/h (1 Bft) N 11 2 min 0,000 mm 4,9 UV-I 699 W/m 20,4 C 26,1 C 4,8 km/h (1 Bft) 95,83 %
24.06.2016 10:28 26,1 C 73 % 1015,5 hPa 0,0 l/m 1,5 km/h (1 Bft) N-NW 343 2 min 0,000 mm 5,0 UV-I 702 W/m 20,9 C 26,1 C 3,2 km/h (1 Bft) 100,00 %
24.06.2016 10:30 26,2 C 71 % 1015,5 hPa 0,0 l/m 2,3 km/h (1 Bft) W-NW 302 2 min 0,000 mm 5,0 UV-I 704 W/m 20,5 C 26,2 C 4,8 km/h (1 Bft) 98,00 %
24.06.2016 10:32 26,2 C 70 % 1015,5 hPa 0,0 l/m 1,3 km/h (1 Bft) W-NW 302 2 min 0,000 mm 5,1 UV-I 706 W/m 20,3 C 26,2 C 4,8 km/h (1 Bft) 97,37 %
24.06.2016 10:34 26,3 C 72 % 1015,4 hPa 0,0 l/m 2,2 km/h (1 Bft) N-NO 17 2 min 0,000 mm 5,1 UV-I 710 W/m 20,8 C 26,3 C 4,8 km/h (1 Bft) 100,00 %
24.06.2016 10:36 26,3 C 67 % 1015,5 hPa 0,0 l/m 1,5 km/h (1 Bft) N-NO 27 2 min 0,000 mm 5,2 UV-I 713 W/m 19,7 C 26,3 C 3,2 km/h (1 Bft) 100,00 %
24.06.2016 10:38 26,3 C 71 % 1015,5 hPa 0,0 l/m 3,2 km/h (1 Bft) N-NO 26 2 min 0,000 mm 5,3 UV-I 718 W/m 20,6 C 26,3 C 6,4 km/h (2 Bft) 98,00 %
24.06.2016 10:40 26,3 C 72 % 1015,4 hPa 0,0 l/m 3,8 km/h (1 Bft) N-NO 19 2 min 0,000 mm 5,3 UV-I 721 W/m 20,8 C 26,3 C 6,4 km/h (2 Bft) 100,00 %
24.06.2016 10:42 26,4 C 68 % 1015,4 hPa 0,0 l/m 1,3 km/h (1 Bft) N-NO 19 2 min 0,000 mm 5,4 UV-I 725 W/m 20,0 C 26,4 C 3,2 km/h (1 Bft) 100,00 %
24.06.2016 10:44 26,6 C 68 % 1015,5 hPa 0,0 l/m 2,5 km/h (1 Bft) N-NO 12 2 min 0,000 mm 5,4 UV-I 727 W/m 20,2 C 26,6 C 4,8 km/h (1 Bft) 100,00 %
24.06.2016 10:46 26,6 C 68 % 1015,4 hPa 0,0 l/m 2,7 km/h (1 Bft) NO 55 2 min 0,000 mm 5,5 UV-I 731 W/m 20,2 C 26,6 C 4,8 km/h (1 Bft) 100,00 %
24.06.2016 10:48 26,6 C 68 % 1015,5 hPa 0,0 l/m 2,5 km/h (1 Bft) N-NO 26 2 min 0,000 mm 5,6 UV-I 737 W/m 20,2 C 26,6 C 3,2 km/h (1 Bft) 100,00 %
24.06.2016 10:50 26,6 C 71 % 1015,4 hPa 0,0 l/m 2,0 km/h (1 Bft) W-NW 300 2 min 0,000 mm 5,6 UV-I 740 W/m 20,9 C 26,6 C 4,8 km/h (1 Bft) 100,00 %
24.06.2016 10:52 26,6 C 70 % 1015,5 hPa 0,0 l/m 2,4 km/h (1 Bft) NW 313 2 min 0,000 mm 5,6 UV-I 738 W/m 20,7 C 26,6 C 4,8 km/h (1 Bft) 100,00 %
24.06.2016 10:54 26,7 C 68 % 1015,4 hPa 0,0 l/m 1,4 km/h (1 Bft) NW 313 2 min 0,000 mm 5,7 UV-I 745 W/m 20,3 C 26,7 C 3,2 km/h (1 Bft) 100,00 %
24.06.2016 10:56 26,7 C 67 % 1015,4 hPa 0,0 l/m 0,4 km/h (0 Bft) NW 313 2 min 0,000 mm 5,8 UV-I 749 W/m 20,0 C 26,7 C 1,6 km/h (1 Bft) 100,00 %
24.06.2016 10:58 26,8 C 67 % 1015,4 hPa 0,0 l/m 2,7 km/h (1 Bft) N-NW 327 2 min 0,000 mm 5,8 UV-I 753 W/m 20,1 C 26,8 C 4,8 km/h (1 Bft) 100,00 %
24.06.2016 11:00 26,9 C 69 % 1015,4 hPa 0,0 l/m 2,3 km/h (1 Bft) NW 319 2 min 0,457 mm 5,9 UV-I 757 W/m 20,7 C 26,9 C 4,8 km/h (1 Bft) 100,00 %
24.06.2016 11:02 26,9 C 67 % 1015,4 hPa 0,0 l/m 2,4 km/h (1 Bft) NW 315 2 min 0,000 mm 5,9 UV-I 758 W/m 20,2 C 26,9 C 4,8 km/h (1 Bft) 98,11 %
24.06.2016 11:04 26,9 C 66 % 1015,4 hPa 0,0 l/m 2,4 km/h (1 Bft) NO 40 2 min 0,000 mm 6,0 UV-I 763 W/m 20,0 C 26,9 C 4,8 km/h (1 Bft) 100,00 %
24.06.2016 11:06 26,9 C 65 % 1015,4 hPa 0,0 l/m 2,6 km/h (1 Bft) N 9 2 min 0,000 mm 6,0 UV-I 765 W/m 19,7 C 26,9 C 4,8 km/h (1 Bft) 100,00 %
24.06.2016 11:08 27,0 C 69 % 1015,4 hPa 0,0 l/m 3,3 km/h (1 Bft) N-NO 23 2 min 0,000 mm 6,0 UV-I 765 W/m 20,8 C 27,0 C 6,4 km/h (2 Bft) 100,00 %
24.06.2016 11:10 27,2 C 69 % 1015,3 hPa 0,0 l/m 3,6 km/h (1 Bft) NO 34 2 min 0,000 mm 6,1 UV-I 768 W/m 21,0 C 27,2 C 6,4 km/h (2 Bft) 97,56 %
24.06.2016 11:12 27,3 C 65 % 1015,4 hPa 0,0 l/m 4,6 km/h (1 Bft) N-NO 21 2 min 0,000 mm 6,1 UV-I 772 W/m 20,1 C 27,3 C 6,4 km/h (2 Bft) 100,00 %
24.06.2016 11:14 27,4 C 67 % 1015,3 hPa 0,0 l/m 4,1 km/h (1 Bft) N-NO 20 2 min 0,000 mm 6,2 UV-I 773 W/m 20,7 C 27,4 C 6,4 km/h (2 Bft) 100,00 %
24.06.2016 11:16 27,5 C 68 % 1015,3 hPa 0,0 l/m 3,6 km/h (1 Bft) N-NO 33 2 min 0,000 mm 6,2 UV-I 776 W/m 21,0 C 27,5 C 4,8 km/h (1 Bft) 100,00 %
24.06.2016 11:18 27,7 C 67 % 1015,3 hPa 0,0 l/m 3,4 km/h (1 Bft) N-NW 334 2 min 0,000 mm 6,3 UV-I 779 W/m 21,0 C 27,7 C 4,8 km/h (1 Bft) 97,87 %
24.06.2016 11:20 27,6 C 63 % 1015,3 hPa 0,0 l/m 3,8 km/h (1 Bft) O-SO 106 2 min 0,000 mm 6,3 UV-I 780 W/m 19,9 C 27,6 C 6,4 km/h (2 Bft) 100,00 %
24.06.2016 11:22 27,4 C 63 % 1015,3 hPa 0,0 l/m 2,4 km/h (1 Bft) NO 37 2 min 0,000 mm 6,4 UV-I 785 W/m 19,7 C 27,4 C 3,2 km/h (1 Bft) 100,00 %
24.06.2016 11:24 27,3 C 65 % 1015,3 hPa 0,0 l/m 1,9 km/h (1 Bft) N-NO 21 2 min 0,000 mm 6,4 UV-I 789 W/m 20,1 C 27,3 C 4,8 km/h (1 Bft) 95,74 %
24.06.2016 11:26 27,4 C 65 % 1015,3 hPa 0,0 l/m 0,7 km/h (0 Bft) O-NO 69 2 min 0,000 mm 6,5 UV-I 793 W/m 20,2 C 27,4 C 3,2 km/h (1 Bft) 100,00 %
24.06.2016 11:28 27,5 C 64 % 1015,3 hPa 0,0 l/m 2,1 km/h (1 Bft) NO 34 2 min 0,000 mm 6,5 UV-I 796 W/m 20,1 C 27,5 C 6,4 km/h (2 Bft) 98,00 %
24.06.2016 11:30 27,7 C 68 % 1015,4 hPa 0,0 l/m 1,9 km/h (1 Bft) NO 34 2 min 0,000 mm 6,5 UV-I 795 W/m 21,2 C 27,7 C 3,2 km/h (1 Bft) 98,11 %
24.06.2016 11:32 28,0 C 66 % 1015,3 hPa 0,0 l/m 1,9 km/h (1 Bft) NW 315 2 min 0,000 mm 6,6 UV-I 795 W/m 21,0 C 28,0 C 4,8 km/h (1 Bft) 97,37 %
24.06.2016 11:34 27,9 C 67 % 1015,3 hPa 0,0 l/m 1,9 km/h (1 Bft) N-NW 337 2 min 0,000 mm 6,6 UV-I 800 W/m 21,2 C 27,9 C 4,8 km/h (1 Bft) 96,43 %
24.06.2016 11:36 27,9 C 63 % 1015,3 hPa 0,0 l/m 3,2 km/h (1 Bft) NW 319 2 min 0,000 mm 6,7 UV-I 803 W/m 20,2 C 27,9 C 4,8 km/h (1 Bft) 97,56 %
24.06.2016 11:38 27,9 C 63 % 1015,3 hPa 0,0 l/m 1,8 km/h (1 Bft) NW 316 2 min 0,000 mm 6,7 UV-I 808 W/m 20,2 C 27,9 C 3,2 km/h (1 Bft) 97,87 %
24.06.2016 11:40 27,8 C 64 % 1015,3 hPa 0,0 l/m 3,4 km/h (1 Bft) N-NW 339 2 min 0,000 mm 6,7 UV-I 806 W/m 20,3 C 27,8 C 4,8 km/h (1 Bft) 98,00 %
24.06.2016 11:42 27,9 C 61 % 1015,3 hPa 0,0 l/m 3,3 km/h (1 Bft) W 264 2 min 0,000 mm 6,7 UV-I 807 W/m 19,7 C 27,9 C 6,4 km/h (2 Bft) 97,87 %
24.06.2016 11:44 27,8 C 62 % 1015,2 hPa 0,0 l/m 3,6 km/h (1 Bft) W-SW 238 2 min 0,000 mm 6,9 UV-I 821 W/m 19,8 C 27,8 C 6,4 km/h (2 Bft) 97,87 %
24.06.2016 11:46 27,7 C 62 % 1015,2 hPa 0,0 l/m 3,2 km/h (1 Bft) W-SW 252 2 min 0,000 mm 6,9 UV-I 818 W/m 19,7 C 27,7 C 6,4 km/h (2 Bft) 97,62 %
24.06.2016 11:48 27,8 C 65 % 1015,2 hPa 0,0 l/m 2,1 km/h (1 Bft) NW 305 2 min 0,000 mm 6,9 UV-I 818 W/m 20,6 C 27,8 C 3,2 km/h (1 Bft) 98,00 %
24.06.2016 11:50 27,9 C 69 % 1015,2 hPa 0,0 l/m 1,7 km/h (1 Bft) N-NW 338 2 min 0,000 mm 6,9 UV-I 822 W/m 21,7 C 27,9 C 3,2 km/h (1 Bft) 94,00 %
24.06.2016 11:52 28,0 C 65 % 1015,2 hPa 0,0 l/m 2,1 km/h (1 Bft) N 355 2 min 0,000 mm 7,1 UV-I 832 W/m 20,8 C 28,0 C 4,8 km/h (1 Bft) 95,74 %
24.06.2016 11:54 28,1 C 66 % 1015,1 hPa 0,0 l/m 1,8 km/h (1 Bft) N-NW 334 2 min 0,000 mm 7,1 UV-I 832 W/m 21,1 C 28,1 C 3,2 km/h (1 Bft) 97,14 %
24.06.2016 11:56 28,1 C 61 % 1015,1 hPa 0,0 l/m 3,1 km/h (1 Bft) W 271 2 min 0,000 mm 7,1 UV-I 832 W/m 19,9 C 28,1 C 6,4 km/h (2 Bft) 98,11 %
24.06.2016 11:58 28,1 C 62 % 1015,0 hPa 0,0 l/m 1,6 km/h (1 Bft) SW 215 2 min 0,000 mm 7,1 UV-I 832 W/m 20,1 C 28,1 C 4,8 km/h (1 Bft) 100,00 %
24.06.2016 12:00 28,3 C 66 % 1015,0 hPa 0,0 l/m 0,6 km/h (0 Bft) W-SW 242 2 min 0,534 mm 7,2 UV-I 832 W/m 21,3 C 28,3 C 3,2 km/h (1 Bft) 97,37 %
24.06.2016 12:02 28,4 C 61 % 1015,0 hPa 0,0 l/m 1,3 km/h (1 Bft) NW 313 2 min 0,000 mm 7,2 UV-I 836 W/m 20,1 C 28,4 C 4,8 km/h (1 Bft) 100,00 %
24.06.2016 12:04 28,4 C 62 % 1015,0 hPa 0,0 l/m 2,6 km/h (1 Bft) N 5 2 min 0,000 mm 7,2 UV-I 839 W/m 20,4 C 28,4 C 6,4 km/h (2 Bft) 95,12 %
24.06.2016 12:06 28,5 C 61 % 1015,0 hPa 0,0 l/m 3,6 km/h (1 Bft) O-NO 62 2 min 0,000 mm 7,3 UV-I 842 W/m 20,2 C 28,5 C 4,8 km/h (1 Bft) 100,00 %
24.06.2016 12:08 28,6 C 61 % 1014,9 hPa 0,0 l/m 2,7 km/h (1 Bft) W-SW 253 2 min 0,000 mm 7,3 UV-I 843 W/m 20,3 C 28,6 C 4,8 km/h (1 Bft) 100,00 %
24.06.2016 12:10 28,6 C 58 % 1014,9 hPa 0,0 l/m 3,9 km/h (1 Bft) S 182 2 min 0,000 mm 7,3 UV-I 844 W/m 19,5 C 28,6 C 8,0 km/h (2 Bft) 100,00 %
24.06.2016 12:12 28,5 C 59 % 1014,9 hPa 0,0 l/m 2,1 km/h (1 Bft) S 179 2 min 0,000 mm 7,4 UV-I 847 W/m 19,7 C 28,5 C 6,4 km/h (2 Bft) 100,00 %
24.06.2016 12:14 28,7 C 63 % 1014,9 hPa 0,0 l/m 4,8 km/h (1 Bft) S-SW 198 2 min 0,000 mm 7,4 UV-I 850 W/m 20,9 C 28,7 C 8,0 km/h (2 Bft) 100,00 %
24.06.2016 12:16 28,7 C 57 % 1014,8 hPa 0,0 l/m 2,1 km/h (1 Bft) S-SO 161 2 min 0,000 mm 7,4 UV-I 852 W/m 19,3 C 28,7 C 6,4 km/h (2 Bft) 100,00 %
24.06.2016 12:18 28,7 C 58 % 1014,8 hPa 0,0 l/m 2,2 km/h (1 Bft) O-NO 63 2 min 0,000 mm 7,4 UV-I 852 W/m 19,6 C 28,7 C 4,8 km/h (1 Bft) 100,00 %
24.06.2016 12:20 28,9 C 60 % 1014,8 hPa 0,0 l/m 4,7 km/h (1 Bft) SW 236 2 min 0,000 mm 7,5 UV-I 854 W/m 20,3 C 28,9 C 11,3 km/h (2 Bft) 100,00 %
24.06.2016 12:22 29,1 C 58 % 1014,8 hPa 0,0 l/m 2,3 km/h (1 Bft) NW 311 2 min 0,000 mm 7,5 UV-I 855 W/m 20,0 C 29,1 C 4,8 km/h (1 Bft) 100,00 %
24.06.2016 12:24 28,9 C 55 % 1014,7 hPa 0,0 l/m 2,3 km/h (1 Bft) NO 36 2 min 0,000 mm 7,5 UV-I 860 W/m 18,9 C 28,9 C 4,8 km/h (1 Bft) 98,00 %
24.06.2016 12:26 28,9 C 59 % 1014,8 hPa 0,0 l/m 2,2 km/h (1 Bft) NO 52 2 min 0,000 mm 7,6 UV-I 862 W/m 20,1 C 28,9 C 4,8 km/h (1 Bft) 100,00 %
24.06.2016 12:28 29,0 C 59 % 1014,8 hPa 0,0 l/m 2,3 km/h (1 Bft) W-NW 296 2 min 0,000 mm 7,6 UV-I 864 W/m 20,2 C 29,0 C 4,8 km/h (1 Bft) 98,11 %
24.06.2016 12:30 29,1 C 61 % 1014,8 hPa 0,0 l/m 1,9 km/h (1 Bft) N-NO 15 2 min 0,000 mm 7,6 UV-I 868 W/m 20,8 C 29,1 C 4,8 km/h (1 Bft) 100,00 %
24.06.2016 12:32 29,1 C 59 % 1014,8 hPa 0,0 l/m 2,5 km/h (1 Bft) N-NO 28 2 min 0,000 mm 7,6 UV-I 868 W/m 20,2 C 29,1 C 6,4 km/h (2 Bft) 100,00 %
24.06.2016 12:34 29,3 C 63 % 1014,8 hPa 0,0 l/m 3,1 km/h (1 Bft) N-NO 20 2 min 0,000 mm 7,6 UV-I 868 W/m 21,5 C 29,3 C 6,4 km/h (2 Bft) 100,00 %
24.06.2016 12:36 29,3 C 63 % 1014,7 hPa 0,0 l/m 2,1 km/h (1 Bft) N-NW 341 2 min 0,000 mm 7,6 UV-I 870 W/m 21,5 C 29,3 C 3,2 km/h (1 Bft) 97,50 %
24.06.2016 12:38 29,2 C 59 % 1014,7 hPa 0,0 l/m 2,1 km/h (1 Bft) NW 317 2 min 0,000 mm 7,6 UV-I 868 W/m 20,3 C 29,2 C 4,8 km/h (1 Bft) 100,00 %
24.06.2016 12:40 29,1 C 56 % 1014,6 hPa 0,0 l/m 1,0 km/h (0 Bft) NW 318 2 min 0,000 mm 7,6 UV-I 867 W/m 19,4 C 29,1 C 3,2 km/h (1 Bft) 100,00 %
24.06.2016 12:42 29,1 C 56 % 1014,7 hPa 0,0 l/m 1,8 km/h (1 Bft) NW 318 2 min 0,000 mm 7,6 UV-I 868 W/m 19,4 C 29,1 C 3,2 km/h (1 Bft) 100,00 %
24.06.2016 12:44 29,2 C 61 % 1014,7 hPa 0,0 l/m 3,8 km/h (1 Bft) N-NO 13 2 min 0,000 mm 7,7 UV-I 870 W/m 20,9 C 29,2 C 6,4 km/h (2 Bft) 100,00 %
24.06.2016 12:46 29,3 C 61 % 1014,6 hPa 0,0 l/m 3,6 km/h (1 Bft) N 355 2 min 0,000 mm 7,7 UV-I 870 W/m 21,0 C 29,3 C 8,0 km/h (2 Bft) 98,00 %
24.06.2016 12:48 29,2 C 59 % 1014,6 hPa 0,0 l/m 2,5 km/h (1 Bft) N-NW 337 2 min 0,000 mm 7,6 UV-I 866 W/m 20,3 C 29,2 C 4,8 km/h (1 Bft) 100,00 %
24.06.2016 12:50 29,3 C 57 % 1014,6 hPa 0,0 l/m 3,3 km/h (1 Bft) NW 325 2 min 0,000 mm 7,6 UV-I 868 W/m 19,9 C 29,3 C 6,4 km/h (2 Bft) 96,23 %
24.06.2016 12:52 29,4 C 57 % 1014,6 hPa 0,0 l/m 3,2 km/h (1 Bft) W-NW 297 2 min 0,000 mm 7,6 UV-I 866 W/m 20,0 C 29,4 C 6,4 km/h (2 Bft) 100,00 %
24.06.2016 12:54 29,5 C 57 % 1014,6 hPa 0,0 l/m 2,2 km/h (1 Bft) NW 314 2 min 0,000 mm 7,6 UV-I 869 W/m 20,1 C 29,5 C 6,4 km/h (2 Bft) 100,00 %
24.06.2016 12:56 29,3 C 53 % 1014,6 hPa 0,0 l/m 0,8 km/h (0 Bft) N-NW 340 2 min 0,000 mm 7,7 UV-I 873 W/m 18,7 C 29,3 C 3,2 km/h (1 Bft) 100,00 %
24.06.2016 12:58 29,3 C 58 % 1014,5 hPa 0,0 l/m 2,6 km/h (1 Bft) NW 317 2 min 0,000 mm 7,7 UV-I 872 W/m 20,2 C 29,3 C 4,8 km/h (1 Bft) 100,00 %
24.06.2016 13:00 29,4 C 62 % 1014,5 hPa 0,0 l/m 4,1 km/h (1 Bft) N 9 2 min 0,000 mm 7,7 UV-I 874 W/m 21,3 C 29,4 C 8,0 km/h (2 Bft) 100,00 %
24.06.2016 13:02 29,5 C 58 % 1014,5 hPa 0,0 l/m 1,9 km/h (1 Bft) NW 317 2 min 0,584 mm 7,7 UV-I 871 W/m 20,3 C 29,5 C 4,8 km/h (1 Bft) 96,15 %
24.06.2016 13:04 29,6 C 63 % 1014,5 hPa 0,0 l/m 3,3 km/h (1 Bft) N-NO 19 2 min 0,000 mm 7,7 UV-I 874 W/m 21,8 C 29,6 C 8,0 km/h (2 Bft) 100,00 %
24.06.2016 13:06 29,7 C 62 % 1014,5 hPa 0,0 l/m 6,9 km/h (2 Bft) N-NO 26 2 min 0,000 mm 7,7 UV-I 877 W/m 21,6 C 29,6 C 14,5 km/h (3 Bft) 100,00 %
24.06.2016 13:08 29,7 C 62 % 1014,5 hPa 0,0 l/m 2,5 km/h (1 Bft) N 11 2 min 0,000 mm 7,7 UV-I 874 W/m 21,6 C 29,7 C 12,9 km/h (3 Bft) 100,00 %
24.06.2016 13:10 29,7 C 59 % 1014,5 hPa 0,0 l/m 1,2 km/h (1 Bft) N 355 2 min 0,000 mm 7,7 UV-I 875 W/m 20,8 C 29,7 C 3,2 km/h (1 Bft) 98,21 %
24.06.2016 13:12 29,7 C 61 % 1014,5 hPa 0,0 l/m 1,5 km/h (1 Bft) N 5 2 min 0,000 mm 7,7 UV-I 874 W/m 21,4 C 29,7 C 3,2 km/h (1 Bft) 98,00 %
24.06.2016 13:14 29,6 C 57 % 1014,5 hPa 0,0 l/m 1,4 km/h (1 Bft) N 351 2 min 0,000 mm 7,7 UV-I 876 W/m 20,2 C 29,6 C 4,8 km/h (1 Bft) 97,37 %
24.06.2016 13:16 29,6 C 59 % 1014,4 hPa 0,0 l/m 1,1 km/h (1 Bft) N-NO 24 2 min 0,000 mm 7,7 UV-I 875 W/m 20,7 C 29,6 C 3,2 km/h (1 Bft) 98,00 %
24.06.2016 13:18 29,7 C 61 % 1014,4 hPa 0,0 l/m 2,6 km/h (1 Bft) N 355 2 min 0,000 mm 7,7 UV-I 875 W/m 21,4 C 29,7 C 6,4 km/h (2 Bft) 97,56 %
24.06.2016 13:20 29,7 C 58 % 1014,4 hPa 0,0 l/m 1,4 km/h (1 Bft) N 355 2 min 0,000 mm 7,6 UV-I 874 W/m 20,5 C 29,7 C 3,2 km/h (1 Bft) 96,00 %
24.06.2016 13:22 29,7 C 57 % 1014,4 hPa 0,0 l/m 1,1 km/h (1 Bft) NW 322 2 min 0,000 mm 7,6 UV-I 872 W/m 20,2 C 29,7 C 3,2 km/h (1 Bft) 95,45 %
24.06.2016 13:24 29,7 C 55 % 1014,4 hPa 0,0 l/m 1,9 km/h (1 Bft) N 355 2 min 0,000 mm 7,6 UV-I 874 W/m 19,7 C 29,7 C 3,2 km/h (1 Bft) 98,00 %
24.06.2016 13:26 29,8 C 56 % 1014,4 hPa 0,0 l/m 4,2 km/h (1 Bft) NO 35 2 min 0,000 mm 7,6 UV-I 874 W/m 20,1 C 29,8 C 6,4 km/h (2 Bft) 97,87 %
24.06.2016 13:28 29,8 C 60 % 1014,4 hPa 0,0 l/m 1,2 km/h (1 Bft) N-NO 19 2 min 0,000 mm 7,6 UV-I 875 W/m 21,2 C 29,8 C 3,2 km/h (1 Bft) 97,73 %
24.06.2016 13:30 29,8 C 59 % 1014,4 hPa 0,0 l/m 1,8 km/h (1 Bft) N-NO 16 2 min 0,000 mm 7,6 UV-I 871 W/m 20,9 C 29,8 C 8,0 km/h (2 Bft) 98,00 %
24.06.2016 13:32 29,8 C 56 % 1014,3 hPa 0,0 l/m 3,5 km/h (1 Bft) NW 320 2 min 0,000 mm 7,6 UV-I 870 W/m 20,1 C 29,8 C 6,4 km/h (2 Bft) 98,11 %
24.06.2016 13:34 29,9 C 61 % 1014,3 hPa 0,0 l/m 3,8 km/h (1 Bft) N-NO 13 2 min 0,000 mm 7,5 UV-I 868 W/m 21,5 C 29,9 C 9,7 km/h (2 Bft) 97,73 %
24.06.2016 13:36 29,8 C 58 % 1014,4 hPa 0,0 l/m 4,5 km/h (1 Bft) N-NO 13 2 min 0,000 mm 7,5 UV-I 868 W/m 20,6 C 29,8 C 12,9 km/h (3 Bft) 96,00 %
24.06.2016 13:38 29,8 C 56 % 1014,4 hPa 0,0 l/m 3,8 km/h (1 Bft) N-NO 15 2 min 0,000 mm 7,5 UV-I 866 W/m 20,1 C 29,8 C 6,4 km/h (2 Bft) 100,00 %
24.06.2016 13:40 29,8 C 54 % 1014,3 hPa 0,0 l/m 1,5 km/h (1 Bft) N-NO 15 2 min 0,000 mm 7,5 UV-I 867 W/m 19,5 C 29,8 C 3,2 km/h (1 Bft) 100,00 %
24.06.2016 13:42 29,8 C 62 % 1014,3 hPa 0,0 l/m 2,3 km/h (1 Bft) N-NO 19 2 min 0,000 mm 7,5 UV-I 868 W/m 21,7 C 29,8 C 4,8 km/h (1 Bft) 98,57 %
24.06.2016 13:44 29,9 C 58 % 1014,3 hPa 0,0 l/m 2,3 km/h (1 Bft) N-NO 19 2 min 0,000 mm 7,5 UV-I 865 W/m 20,7 C 29,9 C 3,2 km/h (1 Bft) 100,00 %
24.06.2016 13:46 30,1 C 60 % 1014,3 hPa 0,0 l/m 1,4 km/h (1 Bft) N-NO 25 2 min 0,000 mm 7,4 UV-I 863 W/m 21,5 C 30,1 C 3,2 km/h (1 Bft) 100,00 %
24.06.2016 13:48 30,1 C 63 % 1014,2 hPa 0,0 l/m 2,6 km/h (1 Bft) NW 315 2 min 0,000 mm 7,4 UV-I 861 W/m 22,3 C 30,1 C 4,8 km/h (1 Bft) 100,00 %
24.06.2016 13:50 30,1 C 56 % 1014,2 hPa 0,0 l/m 3,7 km/h (1 Bft) N-NO 24 2 min 0,000 mm 7,4 UV-I 862 W/m 20,3 C 30,1 C 9,7 km/h (2 Bft) 97,87 %
24.06.2016 13:52 30,1 C 57 % 1014,2 hPa 0,0 l/m 3,6 km/h (1 Bft) N-NO 19 2 min 0,000 mm 7,4 UV-I 859 W/m 20,6 C 30,1 C 9,7 km/h (2 Bft) 100,00 %
24.06.2016 13:54 30,1 C 52 % 1014,2 hPa 0,0 l/m 1,2 km/h (1 Bft) N-NO 19 2 min 0,000 mm 7,3 UV-I 857 W/m 19,1 C 30,1 C 3,2 km/h (1 Bft) 100,00 %
24.06.2016 13:56 30,1 C 53 % 1014,2 hPa 0,0 l/m 1,4 km/h (1 Bft) N-NO 18 2 min 0,000 mm 7,3 UV-I 856 W/m 19,4 C 30,1 C 3,2 km/h (1 Bft) 100,00 %
24.06.2016 13:58 30,1 C 50 % 1014,2 hPa 0,0 l/m 1,8 km/h (1 Bft) N 5 2 min 0,000 mm 7,3 UV-I 857 W/m 18,5 C 30,1 C 3,2 km/h (1 Bft) 100,00 %
24.06.2016 14:00 30,2 C 54 % 1014,1 hPa 0,0 l/m 0,9 km/h (0 Bft) N 5 2 min 0,584 mm 7,3 UV-I 860 W/m 19,8 C 30,2 C 3,2 km/h (1 Bft) 100,00 %
24.06.2016 14:02 30,3 C 51 % 1014,1 hPa 0,0 l/m 1,5 km/h (1 Bft) N 9 2 min 0,000 mm 7,2 UV-I 857 W/m 19,0 C 30,3 C 3,2 km/h (1 Bft) 98,00 %
24.06.2016 14:04 30,4 C 54 % 1014,1 hPa 0,0 l/m 1,9 km/h (1 Bft) NW 309 2 min 0,000 mm 7,2 UV-I 856 W/m 20,0 C 30,4 C 4,8 km/h (1 Bft) 100,00 %
24.06.2016 14:06 30,6 C 51 % 1014,1 hPa 0,0 l/m 3,3 km/h (1 Bft) NW 325 2 min 0,000 mm 7,2 UV-I 856 W/m 19,3 C 30,6 C 6,4 km/h (2 Bft) 100,00 %
24.06.2016 14:08 30,6 C 55 % 1014,0 hPa 0,0 l/m 2,3 km/h (1 Bft) N-NO 30 2 min 0,000 mm 7,1 UV-I 853 W/m 20,5 C 30,6 C 4,8 km/h (1 Bft) 97,56 %
24.06.2016 14:10 30,6 C 53 % 1014,0 hPa 0,0 l/m 2,1 km/h (1 Bft) NW 313 2 min 0,000 mm 7,1 UV-I 853 W/m 19,9 C 30,6 C 6,4 km/h (2 Bft) 100,00 %
24.06.2016 14:12 30,6 C 53 % 1014,0 hPa 0,0 l/m 2,9 km/h (1 Bft) W-NW 300 2 min 0,000 mm 7,1 UV-I 852 W/m 19,9 C 30,6 C 6,4 km/h (2 Bft) 100,00 %
24.06.2016 14:14 30,6 C 56 % 1013,9 hPa 0,0 l/m 2,2 km/h (1 Bft) NW 316 2 min 0,000 mm 7,1 UV-I 850 W/m 20,8 C 30,6 C 4,8 km/h (1 Bft) 98,00 %
24.06.2016 14:16 30,6 C 50 % 1014,0 hPa 0,0 l/m 1,2 km/h (1 Bft) N-NW 333 2 min 0,000 mm 7,0 UV-I 845 W/m 19,0 C 30,6 C 3,2 km/h (1 Bft) 100,00 %
24.06.2016 14:18 30,6 C 52 % 1014,0 hPa 0,0 l/m 1,3 km/h (1 Bft) NW 317 2 min 0,000 mm 6,9 UV-I 842 W/m 19,6 C 30,6 C 4,8 km/h (1 Bft) 98,00 %
24.06.2016 14:20 30,6 C 53 % 1013,9 hPa 0,0 l/m 2,4 km/h (1 Bft) NW 317 2 min 0,000 mm 6,9 UV-I 840 W/m 19,9 C 30,6 C 4,8 km/h (1 Bft) 100,00 %
24.06.2016 14:22 30,7 C 50 % 1013,9 hPa 0,0 l/m 2,5 km/h (1 Bft) NW 306 2 min 0,000 mm 6,8 UV-I 835 W/m 19,1 C 30,7 C 4,8 km/h (1 Bft) 100,00 %
24.06.2016 14:24 30,7 C 50 % 1013,7 hPa 0,0 l/m 2,4 km/h (1 Bft) N-NW 327 2 min 0,000 mm 6,8 UV-I 837 W/m 19,1 C 30,7 C 6,4 km/h (2 Bft) 97,44 %
24.06.2016 14:26 30,9 C 52 % 1013,7 hPa 0,0 l/m 5,4 km/h (1 Bft) W 263 2 min 0,000 mm 6,8 UV-I 839 W/m 19,9 C 30,9 C 12,9 km/h (3 Bft) 100,00 %
24.06.2016 14:28 30,9 C 47 % 1013,7 hPa 0,0 l/m 4,0 km/h (1 Bft) SW 229 2 min 0,000 mm 6,7 UV-I 834 W/m 18,2 C 30,9 C 6,4 km/h (2 Bft) 97,73 %
24.06.2016 14:30 30,9 C 48 % 1013,7 hPa 0,0 l/m 2,4 km/h (1 Bft) SW 225 2 min 0,000 mm 6,7 UV-I 827 W/m 18,6 C 30,9 C 4,8 km/h (1 Bft) 100,00 %
24.06.2016 14:32 30,9 C 49 % 1013,8 hPa 0,0 l/m 0,5 km/h (0 Bft) SW 225 2 min 0,000 mm 6,6 UV-I 822 W/m 18,9 C 30,9 C 1,6 km/h (1 Bft) 100,00 %
24.06.2016 14:34 31,1 C 50 % 1013,7 hPa 0,0 l/m 1,1 km/h (1 Bft) W-SW 250 2 min 0,000 mm 6,6 UV-I 817 W/m 19,4 C 31,1 C 3,2 km/h (1 Bft) 100,00 %
24.06.2016 14:36 31,1 C 48 % 1013,7 hPa 0,0 l/m 1,2 km/h (1 Bft) W-NW 298 2 min 0,000 mm 6,5 UV-I 812 W/m 18,8 C 31,1 C 3,2 km/h (1 Bft) 100,00 %
24.06.2016 14:38 31,1 C 48 % 1013,7 hPa 0,0 l/m 1,8 km/h (1 Bft) NW 315 2 min 0,000 mm 6,5 UV-I 811 W/m 18,8 C 31,1 C 3,2 km/h (1 Bft) 100,00 %
24.06.2016 14:40 31,1 C 49 % 1013,7 hPa 0,0 l/m 4,8 km/h (1 Bft) O-NO 63 2 min 0,000 mm 6,5 UV-I 819 W/m 19,1 C 31,1 C 11,3 km/h (2 Bft) 100,00 %
24.06.2016 14:42 31,1 C 48 % 1013,6 hPa 0,0 l/m 3,6 km/h (1 Bft) O 82 2 min 0,000 mm 6,5 UV-I 817 W/m 18,8 C 31,1 C 8,0 km/h (2 Bft) 98,53 %
24.06.2016 14:44 31,1 C 48 % 1013,7 hPa 0,0 l/m 1,1 km/h (1 Bft) SO 125 2 min 0,000 mm 6,4 UV-I 811 W/m 18,8 C 31,1 C 1,6 km/h (1 Bft) 100,00 %
24.06.2016 14:46 31,0 C 49 % 1013,6 hPa 0,0 l/m 1,2 km/h (1 Bft) SO 144 2 min 0,000 mm 6,3 UV-I 804 W/m 19,0 C 31,0 C 4,8 km/h (1 Bft) 98,44 %
24.06.2016 14:48 31,0 C 50 % 1013,6 hPa 0,0 l/m 2,6 km/h (1 Bft) O-SO 107 2 min 0,000 mm 6,2 UV-I 800 W/m 19,3 C 31,0 C 4,8 km/h (1 Bft) 100,00 %
24.06.2016 14:50 31,1 C 49 % 1013,6 hPa 0,0 l/m 4,9 km/h (1 Bft) O-NO 61 2 min 0,000 mm 6,2 UV-I 798 W/m 19,1 C 31,1 C 8,0 km/h (2 Bft) 96,00 %
24.06.2016 14:52 31,2 C 48 % 1013,6 hPa 0,0 l/m 2,5 km/h (1 Bft) S 191 2 min 0,000 mm 6,2 UV-I 797 W/m 18,9 C 31,2 C 6,4 km/h (2 Bft) 100,00 %
24.06.2016 14:54 31,2 C 48 % 1013,5 hPa 0,0 l/m 4,3 km/h (1 Bft) S 176 2 min 0,000 mm 6,2 UV-I 801 W/m 18,9 C 31,2 C 8,0 km/h (2 Bft) 97,73 %
24.06.2016 14:56 31,2 C 51 % 1013,5 hPa 0,0 l/m 6,4 km/h (2 Bft) N-NO 30 2 min 0,000 mm 6,2 UV-I 801 W/m 19,8 C 31,2 C 16,1 km/h (3 Bft) 98,00 %
24.06.2016 14:58 31,2 C 49 % 1013,4 hPa 0,0 l/m 9,7 km/h (2 Bft) NO 47 2 min 0,000 mm 6,1 UV-I 798 W/m 19,2 C 31,0 C 16,1 km/h (3 Bft) 96,67 %
24.06.2016 15:00 31,2 C 46 % 1013,5 hPa 0,0 l/m 3,4 km/h (1 Bft) N-NO 25 2 min 0,584 mm 6,1 UV-I 795 W/m 18,2 C 31,2 C 6,4 km/h (2 Bft) 98,21 %
24.06.2016 15:02 31,2 C 50 % 1013,5 hPa 0,0 l/m 1,9 km/h (1 Bft) N-NO 15 2 min 0,000 mm 6,0 UV-I 793 W/m 19,5 C 31,2 C 3,2 km/h (1 Bft) 94,00 %
24.06.2016 15:04 31,3 C 51 % 1013,4 hPa 0,0 l/m 1,7 km/h (1 Bft) N 11 2 min 0,000 mm 5,9 UV-I 788 W/m 19,9 C 31,3 C 4,8 km/h (1 Bft) 97,87 %
24.06.2016 15:06 31,3 C 48 % 1013,4 hPa 0,0 l/m 1,8 km/h (1 Bft) N-NO 30 2 min 0,000 mm 5,9 UV-I 788 W/m 18,9 C 31,3 C 3,2 km/h (1 Bft) 98,00 %
24.06.2016 15:08 31,4 C 48 % 1013,4 hPa 0,0 l/m 2,8 km/h (1 Bft) O-NO 70 2 min 0,000 mm 5,9 UV-I 788 W/m 19,0 C 31,4 C 6,4 km/h (2 Bft) 95,74 %
24.06.2016 15:10 31,5 C 45 % 1013,3 hPa 0,0 l/m 5,9 km/h (2 Bft) O-NO 63 2 min 0,000 mm 5,8 UV-I 774 W/m 18,1 C 31,5 C 8,0 km/h (2 Bft) 98,00 %
24.06.2016 15:12 31,6 C 48 % 1013,3 hPa 0,0 l/m 4,7 km/h (1 Bft) O-NO 63 2 min 0,000 mm 5,8 UV-I 776 W/m 19,2 C 31,6 C 8,0 km/h (2 Bft) 94,29 %
24.06.2016 15:14 31,7 C 50 % 1013,3 hPa 0,0 l/m 3,1 km/h (1 Bft) S-SO 168 2 min 0,000 mm 5,7 UV-I 776 W/m 20,0 C 31,7 C 6,4 km/h (2 Bft) 98,11 %
24.06.2016 15:16 31,8 C 47 % 1013,3 hPa 0,0 l/m 5,6 km/h (1 Bft) S-SO 164 2 min 0,000 mm 5,6 UV-I 767 W/m 19,1 C 31,8 C 8,0 km/h (2 Bft) 97,56 %
24.06.2016 15:18 31,7 C 43 % 1013,3 hPa 0,0 l/m 2,0 km/h (1 Bft) S-SO 164 2 min 0,000 mm 5,6 UV-I 768 W/m 17,6 C 31,7 C 4,8 km/h (1 Bft) 95,74 %
24.06.2016 15:20 31,7 C 46 % 1013,3 hPa 0,0 l/m 3,9 km/h (1 Bft) O-SO 120 2 min 0,000 mm 5,6 UV-I 768 W/m 18,6 C 31,7 C 9,7 km/h (2 Bft) 96,23 %
24.06.2016 15:22 31,9 C 47 % 1013,2 hPa 0,0 l/m 4,8 km/h (1 Bft) S-SO 160 2 min 0,000 mm 5,5 UV-I 764 W/m 19,2 C 31,9 C 6,4 km/h (2 Bft) 100,00 %
24.06.2016 15:24 32,1 C 45 % 1013,2 hPa 0,0 l/m 4,0 km/h (1 Bft) SO 128 2 min 0,000 mm 5,5 UV-I 763 W/m 18,6 C 32,1 C 8,0 km/h (2 Bft) 100,00 %
24.06.2016 15:26 32,0 C 49 % 1013,2 hPa 0,0 l/m 4,6 km/h (1 Bft) O-SO 110 2 min 0,000 mm 5,4 UV-I 760 W/m 19,9 C 32,0 C 9,7 km/h (2 Bft) 97,87 %
24.06.2016 15:28 32,0 C 45 % 1013,2 hPa 0,0 l/m 3,3 km/h (1 Bft) S-SO 162 2 min 0,000 mm 5,3 UV-I 754 W/m 18,5 C 32,0 C 9,7 km/h (2 Bft) 100,00 %
24.06.2016 15:30 32,0 C 46 % 1013,2 hPa 0,0 l/m 1,8 km/h (1 Bft) S-SO 148 2 min 0,000 mm 5,3 UV-I 749 W/m 18,9 C 32,0 C 4,8 km/h (1 Bft) 98,00 %
24.06.2016 15:32 32,1 C 45 % 1013,2 hPa 0,0 l/m 2,9 km/h (1 Bft) S 181 2 min 0,000 mm 5,2 UV-I 744 W/m 18,6 C 32,1 C 8,0 km/h (2 Bft) 100,00 %
24.06.2016 15:34 32,0 C 44 % 1013,2 hPa 0,0 l/m 4,0 km/h (1 Bft) S 170 2 min 0,000 mm 5,1 UV-I 741 W/m 18,2 C 32,0 C 9,7 km/h (2 Bft) 100,00 %
24.06.2016 15:36 31,9 C 46 % 1013,1 hPa 0,0 l/m 4,9 km/h (1 Bft) S-SW 202 2 min 0,000 mm 5,1 UV-I 738 W/m 18,8 C 31,9 C 11,3 km/h (2 Bft) 100,00 %
24.06.2016 15:38 31,9 C 46 % 1013,1 hPa 0,0 l/m 6,6 km/h (2 Bft) S-SO 161 2 min 0,000 mm 5,0 UV-I 734 W/m 18,8 C 31,9 C 9,7 km/h (2 Bft) 100,00 %
24.06.2016 15:40 31,8 C 48 % 1013,1 hPa 0,0 l/m 4,6 km/h (1 Bft) S-SO 150 2 min 0,000 mm 4,9 UV-I 729 W/m 19,4 C 31,8 C 8,0 km/h (2 Bft) 100,00 %
24.06.2016 15:42 31,7 C 43 % 1013,1 hPa 0,0 l/m 3,1 km/h (1 Bft) S-SO 160 2 min 0,000 mm 4,9 UV-I 722 W/m 17,6 C 31,7 C 6,4 km/h (2 Bft) 100,00 %
24.06.2016 15:44 31,7 C 45 % 1013,2 hPa 0,0 l/m 2,3 km/h (1 Bft) SO 128 2 min 0,000 mm 4,9 UV-I 720 W/m 18,3 C 31,7 C 4,8 km/h (1 Bft) 100,00 %
24.06.2016 15:46 31,7 C 43 % 1013,2 hPa 0,0 l/m 4,0 km/h (1 Bft) O 87 2 min 0,000 mm 4,8 UV-I 716 W/m 17,6 C 31,7 C 6,4 km/h (2 Bft) 97,37 %
24.06.2016 15:48 31,7 C 44 % 1013,1 hPa 0,0 l/m 3,3 km/h (1 Bft) O 82 2 min 0,000 mm 4,7 UV-I 710 W/m 17,9 C 31,7 C 4,8 km/h (1 Bft) 100,00 %
24.06.2016 15:50 31,8 C 46 % 1013,1 hPa 0,0 l/m 4,1 km/h (1 Bft) NO 42 2 min 0,000 mm 4,7 UV-I 705 W/m 18,7 C 31,8 C 6,4 km/h (2 Bft) 100,00 %
24.06.2016 15:52 31,8 C 45 % 1013,1 hPa 0,0 l/m 5,1 km/h (1 Bft) O-NO 69 2 min 0,000 mm 4,6 UV-I 698 W/m 18,4 C 31,8 C 8,0 km/h (2 Bft) 100,00 %
24.06.2016 15:54 31,9 C 43 % 1013,1 hPa 0,0 l/m 4,9 km/h (1 Bft) NO 42 2 min 0,000 mm 4,5 UV-I 691 W/m 17,7 C 31,9 C 6,4 km/h (2 Bft) 100,00 %
24.06.2016 15:56 31,9 C 44 % 1013,0 hPa 0,0 l/m 5,2 km/h (1 Bft) O 98 2 min 0,000 mm 4,4 UV-I 690 W/m 18,1 C 31,9 C 8,0 km/h (2 Bft) 100,00 %
24.06.2016 15:58 31,9 C 43 % 1013,1 hPa 0,0 l/m 0,8 km/h (0 Bft) O 98 2 min 0,000 mm 4,4 UV-I 686 W/m 17,7 C 31,9 C 3,2 km/h (1 Bft) 100,00 %
24.06.2016 16:00 32,0 C 45 % 1013,1 hPa 0,0 l/m 1,5 km/h (1 Bft) S-SO 166 2 min 0,000 mm 4,3 UV-I 678 W/m 18,5 C 32,0 C 8,0 km/h (2 Bft) 100,00 %
24.06.2016 16:02 31,9 C 45 % 1013,0 hPa 0,0 l/m 6,2 km/h (2 Bft) S-SW 196 2 min 0,534 mm 4,3 UV-I 676 W/m 18,5 C 31,9 C 11,3 km/h (2 Bft) 97,37 %
24.06.2016 16:04 31,8 C 47 % 1013,0 hPa 0,0 l/m 3,0 km/h (1 Bft) S-SW 199 2 min 0,000 mm 4,2 UV-I 674 W/m 19,1 C 31,8 C 6,4 km/h (2 Bft) 100,00 %
24.06.2016 16:06 31,8 C 47 % 1013,0 hPa 0,0 l/m 6,0 km/h (2 Bft) SW 220 2 min 0,000 mm 4,2 UV-I 671 W/m 19,1 C 31,8 C 9,7 km/h (2 Bft) 100,00 %
24.06.2016 16:08 31,7 C 46 % 1013,0 hPa 0,0 l/m 6,1 km/h (2 Bft) SW 228 2 min 0,000 mm 4,1 UV-I 667 W/m 18,6 C 31,7 C 8,0 km/h (2 Bft) 100,00 %
24.06.2016 16:10 31,8 C 44 % 1013,0 hPa 0,0 l/m 5,1 km/h (1 Bft) SW 220 2 min 0,000 mm 4,1 UV-I 665 W/m 18,0 C 31,8 C 8,0 km/h (2 Bft) 100,00 %
24.06.2016 16:12 31,8 C 46 % 1012,9 hPa 0,0 l/m 3,3 km/h (1 Bft) W 278 2 min 0,000 mm 4,0 UV-I 662 W/m 18,7 C 31,8 C 6,4 km/h (2 Bft) 100,00 %
24.06.2016 16:14 31,8 C 45 % 1012,9 hPa 0,0 l/m 2,6 km/h (1 Bft) W-NW 290 2 min 0,000 mm 4,0 UV-I 660 W/m 18,4 C 31,8 C 4,8 km/h (1 Bft) 100,00 %
24.06.2016 16:16 31,9 C 49 % 1012,9 hPa 0,0 l/m 4,1 km/h (1 Bft) O 82 2 min 0,000 mm 3,9 UV-I 655 W/m 19,8 C 31,9 C 6,4 km/h (2 Bft) 100,00 %
24.06.2016 16:18 32,1 C 43 % 1012,8 hPa 0,0 l/m 2,8 km/h (1 Bft) O-NO 61 2 min 0,000 mm 3,8 UV-I 646 W/m 17,9 C 32,1 C 4,8 km/h (1 Bft) 97,87 %
24.06.2016 16:20 32,1 C 44 % 1012,8 hPa 0,0 l/m 1,5 km/h (1 Bft) N 5 2 min 0,000 mm 3,7 UV-I 638 W/m 18,3 C 32,1 C 3,2 km/h (1 Bft) 100,00 %
24.06.2016 16:22 31,9 C 47 % 1012,8 hPa 0,0 l/m 1,4 km/h (1 Bft) N-NW 337 2 min 0,000 mm 3,7 UV-I 634 W/m 19,2 C 31,9 C 3,2 km/h (1 Bft) 100,00 %
24.06.2016 16:24 31,9 C 45 % 1012,7 hPa 0,0 l/m 2,6 km/h (1 Bft) NW 306 2 min 0,000 mm 3,7 UV-I 636 W/m 18,5 C 31,9 C 6,4 km/h (2 Bft) 98,00 %
24.06.2016 16:26 31,9 C 47 % 1012,8 hPa 0,0 l/m 3,1 km/h (1 Bft) W 259 2 min 0,000 mm 3,7 UV-I 635 W/m 19,2 C 31,9 C 6,4 km/h (2 Bft) 100,00 %
24.06.2016 16:28 31,9 C 50 % 1012,7 hPa 0,0 l/m 1,0 km/h (0 Bft) W-NW 289 2 min 0,000 mm 3,6 UV-I 631 W/m 20,2 C 31,9 C 3,2 km/h (1 Bft) 100,00 %
24.06.2016 16:30 31,8 C 51 % 1012,6 hPa 0,0 l/m 1,7 km/h (1 Bft) N-NO 13 2 min 0,000 mm 3,6 UV-I 625 W/m 20,4 C 31,8 C 4,8 km/h (1 Bft) 100,00 %
24.06.2016 16:32 31,8 C 48 % 1012,6 hPa 0,0 l/m 3,5 km/h (1 Bft) SO 130 2 min 0,000 mm 3,5 UV-I 617 W/m 19,4 C 31,8 C 9,7 km/h (2 Bft) 100,00 %
24.06.2016 16:34 32,1 C 45 % 1012,6 hPa 0,0 l/m 3,2 km/h (1 Bft) NO 53 2 min 0,000 mm 3,4 UV-I 610 W/m 18,6 C 32,1 C 6,4 km/h (2 Bft) 100,00 %
24.06.2016 16:36 32,2 C 46 % 1012,6 hPa 0,0 l/m 6,8 km/h (2 Bft) SO 146 2 min 0,000 mm 3,3 UV-I 601 W/m 19,1 C 32,2 C 14,5 km/h (3 Bft) 100,00 %
24.06.2016 16:38 32,2 C 47 % 1012,6 hPa 0,0 l/m 6,8 km/h (2 Bft) NO 44 2 min 0,000 mm 3,3 UV-I 598 W/m 19,4 C 32,2 C 11,3 km/h (2 Bft) 96,00 %
24.06.2016 16:40 32,2 C 46 % 1012,6 hPa 0,0 l/m 5,9 km/h (2 Bft) O 81 2 min 0,000 mm 3,2 UV-I 586 W/m 19,1 C 32,2 C 16,1 km/h (3 Bft) 97,56 %
24.06.2016 16:42 32,2 C 45 % 1012,6 hPa 0,0 l/m 12,4 km/h (3 Bft) O-NO 65 2 min 0,000 mm 3,1 UV-I 577 W/m 18,7 C 32,1 C 17,7 km/h (3 Bft) 96,43 %
24.06.2016 16:44 32,1 C 45 % 1012,6 hPa 0,0 l/m 10,5 km/h (2 Bft) NO 53 2 min 0,000 mm 3,1 UV-I 568 W/m 18,6 C 32,0 C 16,1 km/h (3 Bft) 98,00 %
24.06.2016 16:46 32,1 C 44 % 1012,5 hPa 0,0 l/m 14,3 km/h (3 Bft) O 84 2 min 0,000 mm 3,1 UV-I 569 W/m 18,3 C 31,9 C 19,3 km/h (3 Bft) 92,00 %
24.06.2016 16:48 32,0 C 44 % 1012,6 hPa 0,0 l/m 15,1 km/h (3 Bft) O 98 2 min 0,000 mm 3,0 UV-I 571 W/m 18,2 C 31,8 C 20,9 km/h (4 Bft) 94,74 %
24.06.2016 16:50 31,9 C 44 % 1012,6 hPa 0,0 l/m 11,7 km/h (2 Bft) O-NO 73 2 min 0,000 mm 3,0 UV-I 573 W/m 18,1 C 31,7 C 16,1 km/h (3 Bft) 98,11 %
24.06.2016 16:52 31,9 C 44 % 1012,6 hPa 0,0 l/m 11,9 km/h (2 Bft) O-NO 69 2 min 0,000 mm 2,9 UV-I 562 W/m 18,1 C 31,7 C 17,7 km/h (3 Bft) 98,00 %
24.06.2016 16:54 31,9 C 47 % 1012,5 hPa 0,0 l/m 6,4 km/h (2 Bft) NO 50 2 min 0,000 mm 2,9 UV-I 555 W/m 19,2 C 31,9 C 11,3 km/h (2 Bft) 95,12 %
24.06.2016 16:56 31,9 C 46 % 1012,5 hPa 0,0 l/m 6,8 km/h (2 Bft) O-NO 57 2 min 0,000 mm 2,8 UV-I 552 W/m 18,8 C 31,9 C 16,1 km/h (3 Bft) 97,62 %
24.06.2016 16:58 31,9 C 46 % 1012,5 hPa 0,0 l/m 10,4 km/h (2 Bft) O-NO 70 2 min 0,000 mm 2,8 UV-I 549 W/m 18,8 C 31,8 C 17,7 km/h (3 Bft) 98,11 %
24.06.2016 17:00 32,0 C 46 % 1012,5 hPa 0,0 l/m 8,0 km/h (2 Bft) NO 39 2 min 0,482 mm 2,8 UV-I 549 W/m 18,9 C 32,0 C 14,5 km/h (3 Bft) 98,00 %
24.06.2016 17:02 32,1 C 47 % 1012,5 hPa 0,0 l/m 7,7 km/h (2 Bft) O-NO 69 2 min 0,000 mm 2,7 UV-I 547 W/m 19,3 C 32,1 C 12,9 km/h (3 Bft) 93,62 %
24.06.2016 17:04 32,0 C 45 % 1012,3 hPa 0,0 l/m 12,5 km/h (3 Bft) O-NO 64 2 min 0,000 mm 2,7 UV-I 539 W/m 18,5 C 31,8 C 20,9 km/h (4 Bft) 97,56 %
24.06.2016 17:06 32,0 C 45 % 1012,3 hPa 0,0 l/m 12,1 km/h (2 Bft) NO 53 2 min 0,000 mm 2,6 UV-I 533 W/m 18,5 C 31,8 C 17,7 km/h (3 Bft) 100,00 %
24.06.2016 17:08 32,0 C 45 % 1012,3 hPa 0,0 l/m 8,6 km/h (2 Bft) NO 38 2 min 0,000 mm 2,6 UV-I 531 W/m 18,5 C 31,9 C 12,9 km/h (3 Bft) 98,21 %
24.06.2016 17:10 32,0 C 47 % 1012,3 hPa 0,0 l/m 10,1 km/h (2 Bft) NO 48 2 min 0,000 mm 2,5 UV-I 524 W/m 19,2 C 31,9 C 19,3 km/h (3 Bft) 100,00 %
24.06.2016 17:12 31,9 C 44 % 1012,2 hPa 0,0 l/m 12,1 km/h (2 Bft) NO 49 2 min 0,000 mm 2,5 UV-I 518 W/m 18,1 C 31,7 C 17,7 km/h (3 Bft) 97,87 %
24.06.2016 17:14 31,9 C 44 % 1012,2 hPa 0,0 l/m 5,9 km/h (2 Bft) O-NO 59 2 min 0,000 mm 2,4 UV-I 513 W/m 18,1 C 31,9 C 9,7 km/h (2 Bft) 100,00 %
24.06.2016 17:16 32,0 C 51 % 1012,2 hPa 0,0 l/m 5,8 km/h (2 Bft) N-NO 28 2 min 0,000 mm 2,3 UV-I 507 W/m 20,6 C 32,0 C 11,3 km/h (2 Bft) 98,53 %
24.06.2016 17:18 31,8 C 50 % 1012,2 hPa 0,0 l/m 7,9 km/h (2 Bft) O-NO 74 2 min 0,000 mm 2,3 UV-I 499 W/m 20,1 C 31,7 C 14,5 km/h (3 Bft) 97,56 %
24.06.2016 17:20 31,8 C 45 % 1012,2 hPa 0,0 l/m 9,3 km/h (2 Bft) O-NO 71 2 min 0,000 mm 2,2 UV-I 496 W/m 18,4 C 31,7 C 12,9 km/h (3 Bft) 98,00 %
24.06.2016 17:22 31,9 C 45 % 1012,2 hPa 0,0 l/m 7,7 km/h (2 Bft) NO 48 2 min 0,000 mm 2,2 UV-I 492 W/m 18,5 C 31,9 C 11,3 km/h (2 Bft) 100,00 %
24.06.2016 17:24 32,0 C 46 % 1012,2 hPa 0,0 l/m 8,4 km/h (2 Bft) O-NO 75 2 min 0,000 mm 2,2 UV-I 488 W/m 18,9 C 31,9 C 14,5 km/h (3 Bft) 100,00 %
24.06.2016 17:26 32,0 C 45 % 1012,2 hPa 0,0 l/m 5,3 km/h (1 Bft) NO 36 2 min 0,000 mm 2,1 UV-I 479 W/m 18,5 C 32,0 C 11,3 km/h (2 Bft) 100,00 %
24.06.2016 17:28 31,9 C 46 % 1012,2 hPa 0,0 l/m 5,3 km/h (1 Bft) O-NO 67 2 min 0,000 mm 2,1 UV-I 472 W/m 18,8 C 31,9 C 8,0 km/h (2 Bft) 100,00 %
24.06.2016 17:30 32,0 C 45 % 1012,1 hPa 0,0 l/m 4,7 km/h (1 Bft) O-SO 123 2 min 0,000 mm 2,0 UV-I 467 W/m 18,5 C 32,0 C 8,0 km/h (2 Bft) 100,00 %
24.06.2016 17:32 32,0 C 45 % 1012,1 hPa 0,0 l/m 7,3 km/h (2 Bft) O-SO 119 2 min 0,000 mm 2,0 UV-I 465 W/m 18,5 C 32,0 C 14,5 km/h (3 Bft) 100,00 %
24.06.2016 17:34 31,9 C 46 % 1012,1 hPa 0,0 l/m 6,4 km/h (2 Bft) O-SO 113 2 min 0,000 mm 2,0 UV-I 465 W/m 18,8 C 31,9 C 12,9 km/h (3 Bft) 100,00 %
24.06.2016 17:36 31,9 C 44 % 1012,1 hPa 0,0 l/m 10,8 km/h (2 Bft) SO 129 2 min 0,000 mm 1,9 UV-I 459 W/m 18,1 C 31,8 C 14,5 km/h (3 Bft) 100,00 %
24.06.2016 17:38 31,8 C 45 % 1012,0 hPa 0,0 l/m 5,8 km/h (2 Bft) O-SO 109 2 min 0,000 mm 1,9 UV-I 454 W/m 18,4 C 31,8 C 9,7 km/h (2 Bft) 100,00 %
24.06.2016 17:40 31,8 C 44 % 1012,0 hPa 0,0 l/m 4,4 km/h (1 Bft) O-SO 122 2 min 0,000 mm 1,8 UV-I 448 W/m 18,0 C 31,8 C 8,0 km/h (2 Bft) 100,00 %
24.06.2016 17:42 31,8 C 45 % 1012,0 hPa 0,0 l/m 6,4 km/h (2 Bft) O-SO 107 2 min 0,000 mm 1,8 UV-I 443 W/m 18,4 C 31,8 C 11,3 km/h (2 Bft) 100,00 %
24.06.2016 17:44 31,8 C 44 % 1011,9 hPa 0,0 l/m 5,2 km/h (1 Bft) SO 145 2 min 0,000 mm 1,7 UV-I 440 W/m 18,0 C 31,8 C 9,7 km/h (2 Bft) 98,00 %
24.06.2016 17:46 31,9 C 50 % 1011,9 hPa 0,0 l/m 3,3 km/h (1 Bft) O 79 2 min 0,000 mm 1,7 UV-I 432 W/m 20,2 C 31,9 C 11,3 km/h (2 Bft) 100,00 %
24.06.2016 17:48 31,9 C 46 % 1011,9 hPa 0,0 l/m 8,5 km/h (2 Bft) O-NO 69 2 min 0,000 mm 1,7 UV-I 426 W/m 18,8 C 31,8 C 17,7 km/h (3 Bft) 100,00 %
24.06.2016 17:50 31,9 C 44 % 1011,9 hPa 0,0 l/m 10,2 km/h (2 Bft) O-NO 71 2 min 0,000 mm 1,6 UV-I 422 W/m 18,1 C 31,8 C 16,1 km/h (3 Bft) 100,00 %
24.06.2016 17:52 31,9 C 43 % 1011,9 hPa 0,0 l/m 11,8 km/h (2 Bft) O-NO 65 2 min 0,000 mm 1,6 UV-I 418 W/m 17,7 C 31,7 C 17,7 km/h (3 Bft) 100,00 %
24.06.2016 17:54 31,9 C 43 % 1011,9 hPa 0,0 l/m 12,0 km/h (2 Bft) O-NO 70 2 min 0,000 mm 1,5 UV-I 411 W/m 17,7 C 31,7 C 16,1 km/h (3 Bft) 98,11 %
24.06.2016 17:56 31,8 C 45 % 1011,8 hPa 0,0 l/m 10,2 km/h (2 Bft) O 83 2 min 0,000 mm 1,5 UV-I 405 W/m 18,4 C 31,7 C 16,1 km/h (3 Bft) 100,00 %
24.06.2016 17:58 31,8 C 44 % 1011,8 hPa 0,0 l/m 5,4 km/h (1 Bft) O-SO 113 2 min 0,000 mm 1,4 UV-I 399 W/m 18,0 C 31,8 C 8,0 km/h (2 Bft) 97,87 %
24.06.2016 18:00 31,8 C 45 % 1011,8 hPa 0,0 l/m 6,8 km/h (2 Bft) O-NO 60 2 min 0,000 mm 1,4 UV-I 394 W/m 18,4 C 31,8 C 14,5 km/h (3 Bft) 95,74 %
24.06.2016 18:02 31,8 C 45 % 1011,8 hPa 0,0 l/m 8,6 km/h (2 Bft) O-NO 67 2 min 0,406 mm 1,4 UV-I 388 W/m 18,4 C 31,7 C 14,5 km/h (3 Bft) 100,00 %
24.06.2016 18:04 31,8 C 43 % 1011,8 hPa 0,0 l/m 9,4 km/h (2 Bft) O-NO 57 2 min 0,001 mm 1,3 UV-I 384 W/m 17,6 C 31,7 C 14,5 km/h (3 Bft) 100,00 %
24.06.2016 18:06 31,8 C 43 % 1011,7 hPa 0,0 l/m 6,1 km/h (2 Bft) O-NO 78 2 min 0,000 mm 1,3 UV-I 379 W/m 17,6 C 31,8 C 12,9 km/h (3 Bft) 97,56 %
24.06.2016 18:08 31,8 C 45 % 1011,6 hPa 0,0 l/m 4,5 km/h (1 Bft) O-NO 76 2 min 0,000 mm 1,3 UV-I 373 W/m 18,4 C 31,8 C 8,0 km/h (2 Bft) 100,00 %
24.06.2016 18:10 31,7 C 46 % 1011,6 hPa 0,0 l/m 4,7 km/h (1 Bft) O 98 2 min 0,000 mm 1,2 UV-I 367 W/m 18,6 C 31,7 C 9,7 km/h (2 Bft) 98,00 %
24.06.2016 18:12 31,8 C 46 % 1011,6 hPa 0,0 l/m 5,9 km/h (2 Bft) O-SO 117 2 min 0,000 mm 1,2 UV-I 361 W/m 18,7 C 31,8 C 12,9 km/h (3 Bft) 100,00 %
24.06.2016 18:14 31,7 C 45 % 1011,6 hPa 0,0 l/m 5,3 km/h (1 Bft) O-NO 76 2 min 0,000 mm 1,1 UV-I 357 W/m 18,3 C 31,7 C 9,7 km/h (2 Bft) 100,00 %
24.06.2016 18:16 31,6 C 46 % 1011,6 hPa 0,0 l/m 4,1 km/h (1 Bft) O 98 2 min 0,000 mm 1,1 UV-I 353 W/m 18,5 C 31,6 C 6,4 km/h (2 Bft) 100,00 %
24.06.2016 18:18 31,7 C 45 % 1011,6 hPa 0,0 l/m 5,4 km/h (1 Bft) O 85 2 min 0,000 mm 1,1 UV-I 349 W/m 18,3 C 31,7 C 9,7 km/h (2 Bft) 98,00 %
24.06.2016 18:20 31,8 C 46 % 1011,6 hPa 0,0 l/m 5,2 km/h (1 Bft) SO 134 2 min 0,000 mm 1,0 UV-I 345 W/m 18,7 C 31,8 C 11,3 km/h (2 Bft) 100,00 %
24.06.2016 18:22 31,8 C 44 % 1011,6 hPa 0,0 l/m 6,7 km/h (2 Bft) O-NO 71 2 min 0,000 mm 1,0 UV-I 341 W/m 18,0 C 31,8 C 11,3 km/h (2 Bft) 100,00 %
24.06.2016 18:24 31,8 C 45 % 1011,6 hPa 0,0 l/m 4,8 km/h (1 Bft) O 84 2 min 0,000 mm 1,0 UV-I 335 W/m 18,4 C 31,8 C 6,4 km/h (2 Bft) 98,11 %
24.06.2016 18:26 31,8 C 43 % 1011,6 hPa 0,0 l/m 6,2 km/h (2 Bft) O-NO 62 2 min 0,000 mm 1,0 UV-I 329 W/m 17,6 C 31,8 C 11,3 km/h (2 Bft) 97,37 %
24.06.2016 18:28 31,8 C 44 % 1011,6 hPa 0,0 l/m 6,2 km/h (2 Bft) O-NO 71 2 min 0,000 mm 1,0 UV-I 325 W/m 18,0 C 31,8 C 9,7 km/h (2 Bft) 96,23 %
24.06.2016 18:30 31,8 C 45 % 1011,6 hPa 0,0 l/m 10,0 km/h (2 Bft) O-NO 74 2 min 0,000 mm 0,9 UV-I 320 W/m 18,4 C 31,7 C 16,1 km/h (3 Bft) 96,00 %
24.06.2016 18:32 31,7 C 43 % 1011,6 hPa 0,0 l/m 12,4 km/h (3 Bft) O-NO 64 2 min 0,000 mm 0,9 UV-I 315 W/m 17,6 C 31,5 C 16,1 km/h (3 Bft) 97,56 %
24.06.2016 18:34 31,7 C 45 % 1011,5 hPa 0,0 l/m 11,8 km/h (2 Bft) O-SO 102 2 min 0,000 mm 0,9 UV-I 310 W/m 18,3 C 31,5 C 17,7 km/h (3 Bft) 97,56 %
24.06.2016 18:36 31,6 C 45 % 1011,5 hPa 0,0 l/m 9,0 km/h (2 Bft) O-NO 73 2 min 0,000 mm 0,9 UV-I 304 W/m 18,2 C 31,5 C 12,9 km/h (3 Bft) 96,23 %
24.06.2016 18:38 31,6 C 44 % 1011,5 hPa 0,0 l/m 8,2 km/h (2 Bft) O 81 2 min 0,000 mm 0,8 UV-I 300 W/m 17,8 C 31,5 C 12,9 km/h (3 Bft) 97,37 %
24.06.2016 18:40 31,5 C 44 % 1011,6 hPa 0,0 l/m 7,3 km/h (2 Bft) NO 38 2 min 0,000 mm 0,8 UV-I 293 W/m 17,7 C 31,5 C 12,9 km/h (3 Bft) 98,39 %
24.06.2016 18:42 31,4 C 47 % 1011,6 hPa 0,0 l/m 8,1 km/h (2 Bft) O 80 2 min 0,000 mm 0,8 UV-I 287 W/m 18,7 C 31,3 C 14,5 km/h (3 Bft) 97,37 %
24.06.2016 18:44 31,4 C 43 % 1011,5 hPa 0,0 l/m 11,9 km/h (2 Bft) O 88 2 min 0,000 mm 0,8 UV-I 281 W/m 17,3 C 31,2 C 16,1 km/h (3 Bft) 98,00 %
24.06.2016 18:46 31,3 C 43 % 1011,5 hPa 0,0 l/m 9,4 km/h (2 Bft) O-NO 63 2 min 0,000 mm 0,7 UV-I 277 W/m 17,2 C 31,1 C 16,1 km/h (3 Bft) 94,87 %
24.06.2016 18:48 31,3 C 43 % 1011,5 hPa 0,0 l/m 8,6 km/h (2 Bft) O-NO 63 2 min 0,000 mm 0,7 UV-I 272 W/m 17,2 C 31,2 C 12,9 km/h (3 Bft) 96,36 %
24.06.2016 18:50 31,3 C 43 % 1011,5 hPa 0,0 l/m 6,8 km/h (2 Bft) O-NO 58 2 min 0,000 mm 0,7 UV-I 267 W/m 17,2 C 31,3 C 9,7 km/h (2 Bft) 100,00 %
24.06.2016 18:52 31,3 C 43 % 1011,5 hPa 0,0 l/m 6,1 km/h (2 Bft) O-NO 65 2 min 0,000 mm 0,7 UV-I 262 W/m 17,2 C 31,3 C 11,3 km/h (2 Bft) 92,45 %
24.06.2016 18:54 31,3 C 42 % 1011,5 hPa 0,0 l/m 9,2 km/h (2 Bft) O-NO 73 2 min 0,000 mm 0,6 UV-I 257 W/m 16,8 C 31,2 C 16,1 km/h (3 Bft) 96,15 %
24.06.2016 18:56 31,3 C 43 % 1011,5 hPa 0,0 l/m 7,9 km/h (2 Bft) O-NO 70 2 min 0,000 mm 0,6 UV-I 251 W/m 17,2 C 31,2 C 12,9 km/h (3 Bft) 97,44 %
24.06.2016 18:58 31,3 C 44 % 1011,5 hPa 0,0 l/m 7,8 km/h (2 Bft) O-NO 68 2 min 0,000 mm 0,6 UV-I 245 W/m 17,6 C 31,2 C 11,3 km/h (2 Bft) 100,00 %
24.06.2016 19:00 31,3 C 44 % 1011,5 hPa 0,0 l/m 7,0 km/h (2 Bft) O-NO 74 2 min 0,304 mm 0,6 UV-I 241 W/m 17,6 C 31,3 C 11,3 km/h (2 Bft) 96,00 %
24.06.2016 19:02 31,3 C 44 % 1011,5 hPa 0,0 l/m 4,7 km/h (1 Bft) O-NO 71 2 min 0,000 mm 0,6 UV-I 237 W/m 17,6 C 31,3 C 11,3 km/h (2 Bft) 100,00 %
24.06.2016 19:04 31,2 C 44 % 1011,5 hPa 0,0 l/m 7,2 km/h (2 Bft) NO 51 2 min 0,000 mm 0,5 UV-I 230 W/m 17,5 C 31,2 C 9,7 km/h (2 Bft) 100,00 %
24.06.2016 19:06 31,1 C 47 % 1011,5 hPa 0,0 l/m 4,3 km/h (1 Bft) O-NO 61 2 min 0,000 mm 0,5 UV-I 225 W/m 18,4 C 31,1 C 6,4 km/h (2 Bft) 97,87 %
24.06.2016 19:08 31,1 C 44 % 1011,5 hPa 0,0 l/m 7,0 km/h (2 Bft) O-NO 64 2 min 0,000 mm 0,5 UV-I 221 W/m 17,4 C 31,1 C 12,9 km/h (3 Bft) 100,00 %
24.06.2016 19:10 31,1 C 45 % 1011,5 hPa 0,0 l/m 6,4 km/h (2 Bft) O-NO 71 2 min 0,000 mm 0,5 UV-I 216 W/m 17,7 C 31,1 C 11,3 km/h (2 Bft) 100,00 %
24.06.2016 19:12 31,1 C 43 % 1011,5 hPa 0,0 l/m 7,2 km/h (2 Bft) O-NO 72 2 min 0,000 mm 0,5 UV-I 211 W/m 17,0 C 31,1 C 11,3 km/h (2 Bft) 100,00 %
24.06.2016 19:14 31,1 C 44 % 1011,4 hPa 0,0 l/m 5,4 km/h (1 Bft) O-NO 61 2 min 0,000 mm 0,1 UV-I 207 W/m 17,4 C 31,1 C 9,7 km/h (2 Bft) 100,00 %
24.06.2016 19:16 31,1 C 44 % 1011,5 hPa 0,0 l/m 4,0 km/h (1 Bft) O-NO 69 2 min 0,000 mm 0,0 UV-I 200 W/m 17,4 C 31,1 C 6,4 km/h (2 Bft) 100,00 %
24.06.2016 19:18 31,1 C 45 % 1011,4 hPa 0,0 l/m 5,7 km/h (1 Bft) O-NO 65 2 min 0,000 mm 0,0 UV-I 195 W/m 17,7 C 31,1 C 9,7 km/h (2 Bft) 100,00 %
24.06.2016 19:20 31,0 C 45 % 1011,4 hPa 0,0 l/m 5,1 km/h (1 Bft) O-NO 76 2 min 0,000 mm 0,0 UV-I 189 W/m 17,6 C 31,0 C 8,0 km/h (2 Bft) 97,73 %
24.06.2016 19:22 31,0 C 45 % 1011,4 hPa 0,0 l/m 3,9 km/h (1 Bft) O-NO 76 2 min 0,000 mm 0,0 UV-I 184 W/m 17,6 C 31,0 C 4,8 km/h (1 Bft) 100,00 %
24.06.2016 19:24 30,9 C 46 % 1011,4 hPa 0,0 l/m 3,3 km/h (1 Bft) O-NO 59 2 min 0,000 mm 0,0 UV-I 179 W/m 17,9 C 30,9 C 6,4 km/h (2 Bft) 100,00 %
24.06.2016 19:26 30,9 C 47 % 1011,4 hPa 0,0 l/m 4,5 km/h (1 Bft) O-NO 71 2 min 0,000 mm 0,0 UV-I 172 W/m 18,2 C 30,9 C 6,4 km/h (2 Bft) 100,00 %
24.06.2016 19:28 30,9 C 47 % 1011,4 hPa 0,0 l/m 4,5 km/h (1 Bft) NO 45 2 min 0,000 mm 0,0 UV-I 165 W/m 18,2 C 30,9 C 6,4 km/h (2 Bft) 100,00 %
24.06.2016 19:30 30,8 C 48 % 1011,5 hPa 0,0 l/m 3,9 km/h (1 Bft) O-NO 60 2 min 0,000 mm 0,0 UV-I 159 W/m 18,5 C 30,8 C 6,4 km/h (2 Bft) 100,00 %
24.06.2016 19:32 30,7 C 47 % 1011,4 hPa 0,0 l/m 2,9 km/h (1 Bft) O-NO 60 2 min 0,000 mm 0,0 UV-I 154 W/m 18,1 C 30,7 C 4,8 km/h (1 Bft) 100,00 %
24.06.2016 19:34 30,7 C 48 % 1011,5 hPa 0,0 l/m 3,5 km/h (1 Bft) O-NO 61 2 min 0,000 mm 0,0 UV-I 148 W/m 18,4 C 30,7 C 4,8 km/h (1 Bft) 95,12 %
24.06.2016 19:36 30,6 C 50 % 1011,4 hPa 0,0 l/m 3,9 km/h (1 Bft) O 83 2 min 0,000 mm 0,0 UV-I 141 W/m 19,0 C 30,6 C 6,4 km/h (2 Bft) 100,00 %
24.06.2016 19:38 30,6 C 50 % 1011,5 hPa 0,0 l/m 3,1 km/h (1 Bft) O 83 2 min 0,000 mm 0,0 UV-I 136 W/m 19,0 C 30,6 C 4,8 km/h (1 Bft) 100,00 %
24.06.2016 19:40 30,5 C 49 % 1011,4 hPa 0,0 l/m 3,7 km/h (1 Bft) O 82 2 min 0,000 mm 0,0 UV-I 130 W/m 18,6 C 30,5 C 8,0 km/h (2 Bft) 100,00 %
24.06.2016 19:42 30,5 C 49 % 1011,5 hPa 0,0 l/m 4,3 km/h (1 Bft) O-NO 77 2 min 0,000 mm 0,0 UV-I 125 W/m 18,6 C 30,5 C 6,4 km/h (2 Bft) 100,00 %
24.06.2016 19:44 30,4 C 50 % 1011,4 hPa 0,0 l/m 4,1 km/h (1 Bft) O 82 2 min 0,000 mm 0,0 UV-I 119 W/m 18,8 C 30,4 C 6,4 km/h (2 Bft) 100,00 %
24.06.2016 19:46 30,4 C 48 % 1011,4 hPa 0,0 l/m 4,7 km/h (1 Bft) O-NO 73 2 min 0,000 mm 0,0 UV-I 113 W/m 18,1 C 30,4 C 6,4 km/h (2 Bft) 97,56 %
24.06.2016 19:48 30,4 C 49 % 1011,5 hPa 0,0 l/m 3,8 km/h (1 Bft) O-NO 71 2 min 0,000 mm 0,0 UV-I 108 W/m 18,5 C 30,4 C 6,4 km/h (2 Bft) 100,00 %
24.06.2016 19:50 30,3 C 48 % 1011,4 hPa 0,0 l/m 4,2 km/h (1 Bft) O-NO 72 2 min 0,000 mm 0,0 UV-I 103 W/m 18,0 C 30,3 C 8,0 km/h (2 Bft) 100,00 %
24.06.2016 19:52 30,3 C 48 % 1011,4 hPa 0,0 l/m 4,8 km/h (1 Bft) O-NO 75 2 min 0,000 mm 0,0 UV-I 97 W/m 18,0 C 30,3 C 6,4 km/h (2 Bft) 100,00 %
24.06.2016 19:54 30,2 C 48 % 1011,3 hPa 0,0 l/m 4,7 km/h (1 Bft) O-NO 78 2 min 0,000 mm 0,0 UV-I 93 W/m 17,9 C 30,2 C 6,4 km/h (2 Bft) 100,00 %
24.06.2016 19:56 30,2 C 49 % 1011,3 hPa 0,0 l/m 5,2 km/h (1 Bft) O-NO 71 0 min 0,000 mm 0,0 UV-I 88 W/m 18,3 C 30,2 C 6,4 km/h (2 Bft) 100,00 %
24.06.2016 19:58 30,2 C 48 % 1011,4 hPa 0,0 l/m 3,8 km/h (1 Bft) O-NO 72 0 min 0,000 mm 0,0 UV-I 83 W/m 17,9 C 30,2 C 6,4 km/h (2 Bft) 100,00 %
24.06.2016 20:00 30,1 C 49 % 1011,4 hPa 0,0 l/m 3,6 km/h (1 Bft) O-NO 72 0 min 0,153 mm 0,0 UV-I 79 W/m 18,2 C 30,1 C 6,4 km/h (2 Bft) 100,00 %
24.06.2016 20:02 30,0 C 49 % 1011,4 hPa 0,0 l/m 3,9 km/h (1 Bft) O-NO 75 0 min 0,000 mm 0,0 UV-I 75 W/m 18,1 C 30,0 C 4,8 km/h (1 Bft) 100,00 %
24.06.2016 20:04 29,9 C 50 % 1011,4 hPa 0,0 l/m 4,6 km/h (1 Bft) O-NO 78 0 min 0,000 mm 0,0 UV-I 70 W/m 18,3 C 29,9 C 6,4 km/h (2 Bft) 100,00 %
24.06.2016 20:06 29,8 C 50 % 1011,4 hPa 0,0 l/m 4,4 km/h (1 Bft) O 79 0 min 0,000 mm 0,0 UV-I 66 W/m 18,2 C 29,8 C 6,4 km/h (2 Bft) 100,00 %
24.06.2016 20:08 29,7 C 51 % 1011,4 hPa 0,0 l/m 4,9 km/h (1 Bft) O-NO 68 0 min 0,000 mm 0,0 UV-I 62 W/m 18,5 C 29,7 C 6,4 km/h (2 Bft) 100,00 %
24.06.2016 20:10 29,6 C 49 % 1011,4 hPa 0,0 l/m 6,3 km/h (2 Bft) O-NO 76 0 min 0,000 mm 0,0 UV-I 58 W/m 17,7 C 29,6 C 8,0 km/h (2 Bft) 100,00 %
24.06.2016 20:12 29,5 C 51 % 1011,5 hPa 0,0 l/m 5,5 km/h (1 Bft) O 101 0 min 0,000 mm 0,0 UV-I 55 W/m 18,3 C 29,5 C 8,0 km/h (2 Bft) 98,39 %
24.06.2016 20:14 29,4 C 50 % 1011,5 hPa 0,0 l/m 5,5 km/h (1 Bft) O 81 0 min 0,000 mm 0,0 UV-I 52 W/m 17,9 C 29,4 C 8,0 km/h (2 Bft) 100,00 %
24.06.2016 20:16 29,4 C 50 % 1011,5 hPa 0,0 l/m 4,8 km/h (1 Bft) O-NO 76 0 min 0,000 mm 0,0 UV-I 48 W/m 17,9 C 29,4 C 8,0 km/h (2 Bft) 96,00 %
24.06.2016 20:18 29,3 C 51 % 1011,5 hPa 0,0 l/m 4,1 km/h (1 Bft) O-NO 77 0 min 0,000 mm 0,0 UV-I 45 W/m 18,1 C 29,3 C 6,4 km/h (2 Bft) 96,23 %
24.06.2016 20:20 29,3 C 49 % 1011,6 hPa 0,0 l/m 4,1 km/h (1 Bft) O-NO 78 0 min 0,000 mm 0,0 UV-I 42 W/m 17,5 C 29,3 C 4,8 km/h (1 Bft) 97,37 %
24.06.2016 20:22 29,3 C 51 % 1011,6 hPa 0,0 l/m 3,5 km/h (1 Bft) O-NO 67 0 min 0,000 mm 0,0 UV-I 39 W/m 18,1 C 29,3 C 6,4 km/h (2 Bft) 98,11 %
24.06.2016 20:24 29,2 C 51 % 1011,7 hPa 0,0 l/m 4,4 km/h (1 Bft) O 86 0 min 0,000 mm 0,0 UV-I 36 W/m 18,0 C 29,2 C 6,4 km/h (2 Bft) 98,00 %
24.06.2016 20:26 29,1 C 51 % 1011,7 hPa 0,0 l/m 5,2 km/h (1 Bft) O 81 0 min 0,000 mm 0,0 UV-I 31 W/m 17,9 C 29,1 C 6,4 km/h (2 Bft) 98,00 %
24.06.2016 20:28 28,9 C 51 % 1011,7 hPa 0,0 l/m 4,7 km/h (1 Bft) O 101 0 min 0,000 mm 0,0 UV-I 26 W/m 17,7 C 28,9 C 8,0 km/h (2 Bft) 97,56 %
24.06.2016 20:30 28,8 C 51 % 1011,7 hPa 0,0 l/m 5,5 km/h (1 Bft) O-NO 78 0 min 0,000 mm 0,0 UV-I 25 W/m 17,6 C 28,8 C 9,7 km/h (2 Bft) 96,00 %
24.06.2016 20:32 28,7 C 52 % 1011,7 hPa 0,0 l/m 3,5 km/h (1 Bft) O-SO 107 0 min 0,000 mm 0,0 UV-I 23 W/m 17,8 C 28,7 C 6,4 km/h (2 Bft) 97,37 %
24.06.2016 20:34 28,6 C 50 % 1011,7 hPa 0,0 l/m 3,3 km/h (1 Bft) O-NO 78 0 min 0,000 mm 0,0 UV-I 23 W/m 17,1 C 28,6 C 6,4 km/h (2 Bft) 96,36 %
24.06.2016 20:36 28,5 C 51 % 1011,7 hPa 0,0 l/m 5,1 km/h (1 Bft) O 84 0 min 0,000 mm 0,0 UV-I 21 W/m 17,4 C 28,5 C 11,3 km/h (2 Bft) 97,87 %
24.06.2016 20:38 28,4 C 51 % 1011,6 hPa 0,0 l/m 5,2 km/h (1 Bft) O 81 0 min 0,000 mm 0,0 UV-I 20 W/m 17,3 C 28,4 C 9,7 km/h (2 Bft) 97,87 %
24.06.2016 20:40 28,4 C 52 % 1011,6 hPa 0,0 l/m 4,1 km/h (1 Bft) O 92 0 min 0,000 mm 0,0 UV-I 19 W/m 17,6 C 28,4 C 6,4 km/h (2 Bft) 94,74 %
24.06.2016 20:42 28,3 C 52 % 1011,6 hPa 0,0 l/m 3,3 km/h (1 Bft) O 92 0 min 0,000 mm 0,0 UV-I 19 W/m 17,5 C 28,3 C 4,8 km/h (1 Bft) 98,00 %
24.06.2016 20:44 28,2 C 53 % 1011,6 hPa 0,0 l/m 3,3 km/h (1 Bft) O 94 0 min 0,000 mm 0,0 UV-I 19 W/m 17,7 C 28,2 C 4,8 km/h (1 Bft) 95,74 %
24.06.2016 20:46 28,2 C 52 % 1011,6 hPa 0,0 l/m 4,7 km/h (1 Bft) O 96 0 min 0,000 mm 0,0 UV-I 18 W/m 17,4 C 28,2 C 9,7 km/h (2 Bft) 100,00 %
24.06.2016 20:48 28,1 C 54 % 1011,6 hPa 0,0 l/m 4,7 km/h (1 Bft) O-SO 103 2 min 0,000 mm 0,0 UV-I 18 W/m 17,9 C 28,1 C 6,4 km/h (2 Bft) 100,00 %
24.06.2016 20:50 27,9 C 53 % 1011,6 hPa 0,0 l/m 3,9 km/h (1 Bft) O-SO 104 2 min 0,000 mm 0,0 UV-I 17 W/m 17,4 C 27,9 C 4,8 km/h (1 Bft) 97,44 %
24.06.2016 20:52 27,8 C 53 % 1011,5 hPa 0,0 l/m 5,9 km/h (2 Bft) O 85 2 min 0,000 mm 0,0 UV-I 16 W/m 17,3 C 27,8 C 9,7 km/h (2 Bft) 96,00 %
24.06.2016 20:54 27,8 C 53 % 1011,6 hPa 0,0 l/m 5,6 km/h (1 Bft) O-SO 111 2 min 0,000 mm 0,0 UV-I 14 W/m 17,3 C 27,8 C 9,7 km/h (2 Bft) 98,00 %
24.06.2016 20:56 27,7 C 53 % 1011,5 hPa 0,0 l/m 4,6 km/h (1 Bft) O 97 0 min 0,000 mm 0,0 UV-I 14 W/m 17,2 C 27,7 C 6,4 km/h (2 Bft) 100,00 %
24.06.2016 20:58 27,6 C 57 % 1011,6 hPa 0,0 l/m 4,3 km/h (1 Bft) O 97 0 min 0,000 mm 0,0 UV-I 12 W/m 18,3 C 27,6 C 6,4 km/h (2 Bft) 100,00 %
24.06.2016 21:00 27,5 C 56 % 1011,6 hPa 0,0 l/m 3,8 km/h (1 Bft) O 98 0 min 0,000 mm 0,0 UV-I 12 W/m 17,9 C 27,5 C 6,4 km/h (2 Bft) 100,00 %
24.06.2016 21:02 27,4 C 57 % 1011,6 hPa 0,0 l/m 3,5 km/h (1 Bft) O-SO 113 0 min 0,076 mm 0,0 UV-I 11 W/m 18,1 C 27,4 C 4,8 km/h (1 Bft) 100,00 %
24.06.2016 21:04 27,2 C 59 % 1011,6 hPa 0,0 l/m 3,3 km/h (1 Bft) O-SO 108 0 min 0,000 mm 0,0 UV-I 9 W/m 18,5 C 27,2 C 4,8 km/h (1 Bft) 100,00 %
24.06.2016 21:06 26,9 C 59 % 1011,6 hPa 0,0 l/m 2,7 km/h (1 Bft) O-SO 108 0 min 0,000 mm 0,0 UV-I 9 W/m 18,2 C 26,9 C 4,8 km/h (1 Bft) 100,00 %
24.06.2016 21:08 26,6 C 61 % 1011,6 hPa 0,0 l/m 2,2 km/h (1 Bft) O-SO 108 0 min 0,000 mm 0,0 UV-I 7 W/m 18,4 C 26,6 C 3,2 km/h (1 Bft) 100,00 %
24.06.2016 21:10 26,4 C 61 % 1011,7 hPa 0,0 l/m 2,2 km/h (1 Bft) O-SO 108 0 min 0,000 mm 0,0 UV-I 7 W/m 18,3 C 26,4 C 3,2 km/h (1 Bft) 100,00 %
24.06.2016 21:12 26,2 C 61 % 1011,7 hPa 0,0 l/m 1,8 km/h (1 Bft) O-SO 108 0 min 0,000 mm 0,0 UV-I 5 W/m 18,1 C 26,2 C 3,2 km/h (1 Bft) 98,00 %
24.06.2016 21:14 26,0 C 61 % 1011,7 hPa 0,0 l/m 2,0 km/h (1 Bft) O-SO 108 0 min 0,000 mm 0,0 UV-I 5 W/m 17,9 C 26,0 C 3,2 km/h (1 Bft) 97,87 %
24.06.2016 21:16 25,9 C 64 % 1011,7 hPa 0,0 l/m 2,3 km/h (1 Bft) O-SO 108 0 min 0,000 mm 0,0 UV-I 5 W/m 18,6 C 25,9 C 3,2 km/h (1 Bft) 100,00 %
24.06.2016 21:18 25,7 C 63 % 1011,6 hPa 0,0 l/m 1,8 km/h (1 Bft) O-SO 108 0 min 0,000 mm 0,0 UV-I 0 W/m 18,1 C 25,7 C 3,2 km/h (1 Bft) 100,00 %
24.06.2016 21:20 25,6 C 64 % 1011,6 hPa 0,0 l/m 1,8 km/h (1 Bft) O-SO 108 0 min 0,000 mm 0,0 UV-I 0 W/m 18,3 C 25,6 C 3,2 km/h (1 Bft) 100,00 %
24.06.2016 21:22 25,6 C 64 % 1011,6 hPa 0,0 l/m 1,6 km/h (1 Bft) O-SO 108 0 min 0,000 mm 0,0 UV-I 0 W/m 18,3 C 25,6 C 3,2 km/h (1 Bft) 100,00 %
24.06.2016 21:24 25,5 C 65 % 1011,6 hPa 0,0 l/m 2,0 km/h (1 Bft) O-SO 108 0 min 0,000 mm 0,0 UV-I 0 W/m 18,4 C 25,5 C 3,2 km/h (1 Bft) 100,00 %
24.06.2016 21:26 25,4 C 67 % 1011,6 hPa 0,0 l/m 2,2 km/h (1 Bft) O-SO 108 0 min 0,000 mm 0,0 UV-I 0 W/m 18,8 C 25,4 C 3,2 km/h (1 Bft) 97,87 %
24.06.2016 21:28 25,3 C 68 % 1011,6 hPa 0,0 l/m 2,3 km/h (1 Bft) O-SO 108 0 min 0,000 mm 0,0 UV-I 0 W/m 19,0 C 25,3 C 4,8 km/h (1 Bft) 100,00 %
24.06.2016 21:30 25,2 C 66 % 1011,6 hPa 0,0 l/m 2,7 km/h (1 Bft) O-SO 108 0 min 0,000 mm 0,0 UV-I 0 W/m 18,4 C 25,2 C 3,2 km/h (1 Bft) 98,00 %
24.06.2016 21:32 25,2 C 66 % 1011,5 hPa 0,0 l/m 3,0 km/h (1 Bft) O-SO 108 0 min 0,000 mm 0,0 UV-I 0 W/m 18,4 C 25,2 C 3,2 km/h (1 Bft) 97,56 %
24.06.2016 21:34 25,1 C 65 % 1011,5 hPa 0,0 l/m 2,9 km/h (1 Bft) O-SO 108 0 min 0,000 mm 0,0 UV-I 0 W/m 18,0 C 25,1 C 4,8 km/h (1 Bft) 98,11 %
24.06.2016 21:36 25,0 C 64 % 1011,5 hPa 0,0 l/m 3,0 km/h (1 Bft) O-SO 108 0 min 0,000 mm 0,0 UV-I 0 W/m 17,7 C 25,0 C 4,8 km/h (1 Bft) 100,00 %
24.06.2016 21:38 24,9 C 64 % 1011,4 hPa 0,0 l/m 2,9 km/h (1 Bft) O-SO 108 0 min 0,000 mm 0,0 UV-I 0 W/m 17,6 C 24,9 C 4,8 km/h (1 Bft) 100,00 %
24.06.2016 21:40 24,9 C 64 % 1011,4 hPa 0,0 l/m 1,9 km/h (1 Bft) O-SO 108 0 min 0,000 mm 0,0 UV-I 0 W/m 17,6 C 24,9 C 3,2 km/h (1 Bft) 100,00 %
24.06.2016 21:42 24,9 C 65 % 1011,3 hPa 0,0 l/m 1,1 km/h (1 Bft) O-SO 108 0 min 0,000 mm 0,0 UV-I 0 W/m 17,9 C 24,9 C 1,6 km/h (1 Bft) 100,00 %
24.06.2016 21:44 24,9 C 67 % 1011,3 hPa 0,0 l/m 0,0 km/h (0 Bft) O-SO 108 0 min 0,000 mm 0,0 UV-I 0 W/m 18,3 C 24,9 C 0,0 km/h (0 Bft) 100,00 %
24.06.2016 21:46 24,8 C 67 % 1011,3 hPa 0,0 l/m 0,0 km/h (0 Bft) O-SO 108 0 min 0,000 mm 0,0 UV-I 0 W/m 18,2 C 24,8 C 0,0 km/h (0 Bft) 100,00 %
24.06.2016 21:48 24,8 C 67 % 1011,3 hPa 0,0 l/m 0,0 km/h (0 Bft) O-SO 108 0 min 0,000 mm 0,0 UV-I 0 W/m 18,2 C 24,8 C 0,0 km/h (0 Bft) 100,00 %
24.06.2016 21:50 24,8 C 69 % 1011,2 hPa 0,0 l/m 0,0 km/h (0 Bft) O-SO 108 0 min 0,000 mm 0,0 UV-I 0 W/m 18,7 C 24,8 C 0,0 km/h (0 Bft) 100,00 %
24.06.2016 21:52 24,7 C 70 % 1011,2 hPa 0,0 l/m 0,0 km/h (0 Bft) O-SO 108 0 min 0,000 mm 0,0 UV-I 0 W/m 18,8 C 24,7 C 0,0 km/h (0 Bft) 100,00 %
24.06.2016 21:54 24,7 C 70 % 1011,3 hPa 0,0 l/m 0,0 km/h (0 Bft) O-SO 108 0 min 0,000 mm 0,0 UV-I 0 W/m 18,8 C 24,7 C 0,0 km/h (0 Bft) 97,87 %
24.06.2016 21:56 24,6 C 71 % 1011,2 hPa 0,0 l/m 0,0 km/h (0 Bft) O-SO 108 0 min 0,000 mm 0,0 UV-I 0 W/m 19,0 C 24,6 C 0,0 km/h (0 Bft) 100,00 %
24.06.2016 21:58 24,6 C 72 % 1011,2 hPa 0,0 l/m 0,0 km/h (0 Bft) O-SO 108 0 min 0,000 mm 0,0 UV-I 0 W/m 19,2 C 24,6 C 0,0 km/h (0 Bft) 98,00 %
24.06.2016 22:00 24,5 C 70 % 1011,2 hPa 0,0 l/m 0,0 km/h (0 Bft) O-SO 108 0 min 0,025 mm 0,0 UV-I 0 W/m 18,7 C 24,5 C 0,0 km/h (0 Bft) 97,37 %
24.06.2016 22:02 24,4 C 69 % 1011,2 hPa 0,0 l/m 0,0 km/h (0 Bft) O-SO 108 0 min 0,000 mm 0,0 UV-I 0 W/m 18,3 C 24,4 C 0,0 km/h (0 Bft) 100,00 %
24.06.2016 22:04 24,4 C 69 % 1011,1 hPa 0,0 l/m 0,0 km/h (0 Bft) O-SO 108 0 min 0,000 mm 0,0 UV-I 0 W/m 18,3 C 24,4 C 0,0 km/h (0 Bft) 100,00 %
24.06.2016 22:06 24,4 C 68 % 1011,1 hPa 0,0 l/m 0,0 km/h (0 Bft) O-SO 108 0 min 0,000 mm 0,0 UV-I 0 W/m 18,1 C 24,4 C 0,0 km/h (0 Bft) 100,00 %
24.06.2016 22:08 24,3 C 68 % 1011,1 hPa 0,0 l/m 0,0 km/h (0 Bft) O-SO 108 0 min 0,000 mm 0,0 UV-I 0 W/m 18,0 C 24,3 C 0,0 km/h (0 Bft) 100,00 %
24.06.2016 22:10 24,3 C 70 % 1011,1 hPa 0,0 l/m 0,0 km/h (0 Bft) O-SO 108 0 min 0,000 mm 0,0 UV-I 0 W/m 18,5 C 24,3 C 1,6 km/h (1 Bft) 98,00 %
24.06.2016 22:12 24,3 C 69 % 1011,1 hPa 0,0 l/m 0,0 km/h (0 Bft) O-SO 108 0 min 0,000 mm 0,0 UV-I 0 W/m 18,2 C 24,3 C 0,0 km/h (0 Bft) 97,87 %
24.06.2016 22:14 24,2 C 70 % 1011,1 hPa 0,0 l/m 0,0 km/h (0 Bft) O-SO 108 0 min 0,000 mm 0,0 UV-I 0 W/m 18,4 C 24,2 C 0,0 km/h (0 Bft) 98,00 %
24.06.2016 22:16 24,2 C 69 % 1011,1 hPa 0,0 l/m 0,0 km/h (0 Bft) O-SO 108 0 min 0,000 mm 0,0 UV-I 0 W/m 18,1 C 24,2 C 0,0 km/h (0 Bft) 96,00 %
24.06.2016 22:18 24,2 C 70 % 1011,1 hPa 0,0 l/m 0,0 km/h (0 Bft) O-SO 108 0 min 0,000 mm 0,0 UV-I 0 W/m 18,4 C 24,2 C 0,0 km/h (0 Bft) 98,00 %
24.06.2016 22:20 24,1 C 71 % 1011,1 hPa 0,0 l/m 0,0 km/h (0 Bft) O-SO 108 0 min 0,000 mm 0,0 UV-I 0 W/m 18,5 C 24,1 C 0,0 km/h (0 Bft) 97,87 %
24.06.2016 22:22 23,9 C 71 % 1011,1 hPa 0,0 l/m 0,0 km/h (0 Bft) O-SO 108 0 min 0,000 mm 0,0 UV-I 0 W/m 18,3 C 23,9 C 0,0 km/h (0 Bft) 97,37 %
24.06.2016 22:24 23,9 C 72 % 1011,0 hPa 0,0 l/m 0,0 km/h (0 Bft) O-SO 108 0 min 0,000 mm 0,0 UV-I 0 W/m 18,5 C 23,9 C 0,0 km/h (0 Bft) 95,74 %
24.06.2016 22:26 23,8 C 74 % 1011,0 hPa 0,0 l/m 0,0 km/h (0 Bft) O-SO 108 0 min 0,000 mm 0,0 UV-I 0 W/m 18,9 C 23,8 C 0,0 km/h (0 Bft) 95,74 %
24.06.2016 22:28 23,7 C 75 % 1011,1 hPa 0,0 l/m 0,0 km/h (0 Bft) O-SO 108 0 min 0,000 mm 0,0 UV-I 0 W/m 19,0 C 23,7 C 0,0 km/h (0 Bft) 98,00 %
24.06.2016 22:30 23,6 C 75 % 1011,1 hPa 0,0 l/m 0,0 km/h (0 Bft) O-SO 108 0 min 0,000 mm 0,0 UV-I 0 W/m 18,9 C 23,6 C 0,0 km/h (0 Bft) 98,00 %
24.06.2016 22:32 23,5 C 76 % 1011,1 hPa 0,0 l/m 0,0 km/h (0 Bft) O-SO 108 0 min 0,000 mm 0,0 UV-I 0 W/m 19,0 C 23,5 C 0,0 km/h (0 Bft) 94,74 %
24.06.2016 22:34 23,3 C 77 % 1011,1 hPa 0,0 l/m 0,0 km/h (0 Bft) O-SO 108 0 min 0,000 mm 0,0 UV-I 0 W/m 19,0 C 23,3 C 0,0 km/h (0 Bft) 92,00 %
24.06.2016 22:36 23,2 C 78 % 1011,1 hPa 0,0 l/m 0,0 km/h (0 Bft) O-SO 108 0 min 0,000 mm 0,0 UV-I 0 W/m 19,1 C 23,2 C 0,0 km/h (0 Bft) 97,87 %
24.06.2016 22:38 23,2 C 78 % 1011,1 hPa 0,0 l/m 0,0 km/h (0 Bft) O-SO 108 0 min 0,000 mm 0,0 UV-I 0 W/m 19,1 C 23,2 C 0,0 km/h (0 Bft) 97,87 %
24.06.2016 22:40 23,1 C 77 % 1011,1 hPa 0,0 l/m 0,0 km/h (0 Bft) O-SO 108 0 min 0,000 mm 0,0 UV-I 0 W/m 18,8 C 23,1 C 0,0 km/h (0 Bft) 97,87 %
24.06.2016 22:42 23,1 C 77 % 1011,1 hPa 0,0 l/m 0,0 km/h (0 Bft) O-SO 108 0 min 0,000 mm 0,0 UV-I 0 W/m 18,8 C 23,1 C 0,0 km/h (0 Bft) 98,00 %
24.06.2016 22:44 23,1 C 76 % 1011,1 hPa 0,0 l/m 0,0 km/h (0 Bft) SO 133 0 min 0,000 mm 0,0 UV-I 0 W/m 18,6 C 23,1 C 0,0 km/h (0 Bft) 100,00 %
24.06.2016 22:46 23,0 C 76 % 1011,1 hPa 0,0 l/m 0,0 km/h (0 Bft) SO 133 0 min 0,000 mm 0,0 UV-I 0 W/m 18,5 C 23,0 C 0,0 km/h (0 Bft) 100,00 %
24.06.2016 22:48 23,0 C 76 % 1011,2 hPa 0,0 l/m 0,0 km/h (0 Bft) SO 133 0 min 0,000 mm 0,0 UV-I 0 W/m 18,5 C 23,0 C 0,0 km/h (0 Bft) 100,00 %
24.06.2016 22:50 22,9 C 75 % 1011,1 hPa 0,0 l/m 0,0 km/h (0 Bft) SO 133 0 min 0,000 mm 0,0 UV-I 0 W/m 18,2 C 22,9 C 0,0 km/h (0 Bft) 98,11 %
24.06.2016 22:52 22,9 C 75 % 1011,1 hPa 0,0 l/m 0,0 km/h (0 Bft) SO 133 0 min 0,000 mm 0,0 UV-I 0 W/m 18,2 C 22,9 C 0,0 km/h (0 Bft) 100,00 %
24.06.2016 22:54 22,9 C 74 % 1010,9 hPa 0,0 l/m 0,0 km/h (0 Bft) SO 133 0 min 0,000 mm 0,0 UV-I 0 W/m 18,0 C 22,9 C 0,0 km/h (0 Bft) 100,00 %
24.06.2016 22:56 22,9 C 74 % 1010,9 hPa 0,0 l/m 0,0 km/h (0 Bft) SO 133 0 min 0,000 mm 0,0 UV-I 0 W/m 18,0 C 22,9 C 0,0 km/h (0 Bft) 100,00 %
24.06.2016 22:58 23,1 C 74 % 1010,9 hPa 0,0 l/m 0,0 km/h (0 Bft) SO 133 0 min 0,000 mm 0,0 UV-I 0 W/m 18,2 C 23,1 C 0,0 km/h (0 Bft) 100,00 %
24.06.2016 23:00 23,1 C 73 % 1010,9 hPa 0,0 l/m 0,0 km/h (0 Bft) SO 133 0 min 0,000 mm 0,0 UV-I 0 W/m 18,0 C 23,1 C 0,0 km/h (0 Bft) 100,00 %
24.06.2016 23:02 23,2 C 73 % 1010,9 hPa 0,0 l/m 0,0 km/h (0 Bft) SO 133 0 min 0,000 mm 0,0 UV-I 0 W/m 18,1 C 23,2 C 0,0 km/h (0 Bft) 97,87 %
24.06.2016 23:04 23,2 C 73 % 1011,0 hPa 0,0 l/m 0,0 km/h (0 Bft) SO 134 0 min 0,000 mm 0,0 UV-I 0 W/m 18,1 C 23,2 C 0,0 km/h (0 Bft) 100,00 %
24.06.2016 23:06 23,2 C 73 % 1011,0 hPa 0,0 l/m 0,0 km/h (0 Bft) SO 134 0 min 0,000 mm 0,0 UV-I 0 W/m 18,1 C 23,2 C 0,0 km/h (0 Bft) 100,00 %
24.06.2016 23:08 23,2 C 74 % 1011,0 hPa 0,0 l/m 0,0 km/h (0 Bft) SO 134 0 min 0,000 mm 0,0 UV-I 0 W/m 18,3 C 23,2 C 0,0 km/h (0 Bft) 100,00 %
24.06.2016 23:10 23,1 C 73 % 1010,9 hPa 0,0 l/m 0,0 km/h (0 Bft) SO 134 0 min 0,000 mm 0,0 UV-I 0 W/m 18,0 C 23,1 C 0,0 km/h (0 Bft) 98,00 %
24.06.2016 23:12 23,1 C 73 % 1010,9 hPa 0,0 l/m 0,0 km/h (0 Bft) SO 134 0 min 0,000 mm 0,0 UV-I 0 W/m 18,0 C 23,1 C 0,0 km/h (0 Bft) 100,00 %
24.06.2016 23:14 23,1 C 74 % 1011,0 hPa 0,0 l/m 3,6 km/h (1 Bft) S 176 0 min 0,000 mm 0,0 UV-I 0 W/m 18,2 C 23,1 C 6,4 km/h (2 Bft) 100,00 %
24.06.2016 23:16 23,0 C 73 % 1011,0 hPa 0,0 l/m 2,0 km/h (1 Bft) S 174 0 min 0,000 mm 0,0 UV-I 0 W/m 17,9 C 23,0 C 3,2 km/h (1 Bft) 96,00 %
24.06.2016 23:18 23,0 C 73 % 1011,0 hPa 0,0 l/m 2,1 km/h (1 Bft) S 174 0 min 0,000 mm 0,0 UV-I 0 W/m 17,9 C 23,0 C 4,8 km/h (1 Bft) 98,11 %
24.06.2016 23:20 23,0 C 73 % 1011,0 hPa 0,0 l/m 4,4 km/h (1 Bft) S-SO 167 0 min 0,000 mm 0,0 UV-I 0 W/m 17,9 C 23,0 C 6,4 km/h (2 Bft) 97,87 %
24.06.2016 23:22 23,0 C 72 % 1011,1 hPa 0,0 l/m 5,8 km/h (2 Bft) S-SO 147 0 min 0,000 mm 0,0 UV-I 0 W/m 17,7 C 23,0 C 8,0 km/h (2 Bft) 100,00 %
24.06.2016 23:24 22,9 C 74 % 1011,1 hPa 0,0 l/m 4,5 km/h (1 Bft) SO 146 0 min 0,000 mm 0,0 UV-I 0 W/m 18,0 C 22,9 C 6,4 km/h (2 Bft) 100,00 %
24.06.2016 23:26 22,9 C 75 % 1011,1 hPa 0,0 l/m 3,1 km/h (1 Bft) SO 146 0 min 0,000 mm 0,0 UV-I 0 W/m 18,2 C 22,9 C 4,8 km/h (1 Bft) 100,00 %
24.06.2016 23:28 22,8 C 76 % 1011,1 hPa 0,0 l/m 1,8 km/h (1 Bft) SO 146 0 min 0,000 mm 0,0 UV-I 0 W/m 18,3 C 22,8 C 3,2 km/h (1 Bft) 97,22 %
24.06.2016 23:30 22,7 C 75 % 1011,0 hPa 0,0 l/m 2,5 km/h (1 Bft) SO 146 0 min 0,000 mm 0,0 UV-I 0 W/m 18,0 C 22,7 C 4,8 km/h (1 Bft) 100,00 %
24.06.2016 23:32 22,7 C 75 % 1011,0 hPa 0,0 l/m 2,1 km/h (1 Bft) SO 146 0 min 0,000 mm 0,0 UV-I 0 W/m 18,0 C 22,7 C 4,8 km/h (1 Bft) 100,00 %
24.06.2016 23:34 22,7 C 75 % 1011,0 hPa 0,0 l/m 0,7 km/h (0 Bft) SO 146 0 min 0,000 mm 0,0 UV-I 0 W/m 18,0 C 22,7 C 3,2 km/h (1 Bft) 100,00 %
24.06.2016 23:36 22,7 C 76 % 1011,0 hPa 0,0 l/m 1,8 km/h (1 Bft) SO 146 0 min 0,000 mm 0,0 UV-I 0 W/m 18,2 C 22,7 C 3,2 km/h (1 Bft) 97,37 %
24.06.2016 23:38 22,6 C 77 % 1011,0 hPa 0,0 l/m 2,3 km/h (1 Bft) SO 146 0 min 0,000 mm 0,0 UV-I 0 W/m 18,4 C 22,6 C 4,8 km/h (1 Bft) 100,00 %
24.06.2016 23:40 22,6 C 77 % 1011,0 hPa 0,0 l/m 0,9 km/h (0 Bft) SO 146 0 min 0,000 mm 0,0 UV-I 0 W/m 18,4 C 22,6 C 1,6 km/h (1 Bft) 100,00 %
24.06.2016 23:42 22,4 C 77 % 1010,9 hPa 0,0 l/m 1,0 km/h (0 Bft) SO 146 0 min 0,000 mm 0,0 UV-I 0 W/m 18,2 C 22,4 C 1,6 km/h (1 Bft) 100,00 %
24.06.2016 23:44 22,4 C 77 % 1011,0 hPa 0,0 l/m 2,2 km/h (1 Bft) SO 146 0 min 0,000 mm 0,0 UV-I 0 W/m 18,2 C 22,4 C 4,8 km/h (1 Bft) 100,00 %
24.06.2016 23:46 22,4 C 77 % 1011,0 hPa 0,0 l/m 3,5 km/h (1 Bft) SO 146 0 min 0,000 mm 0,0 UV-I 0 W/m 18,2 C 22,4 C 4,8 km/h (1 Bft) 100,00 %
24.06.2016 23:48 22,3 C 77 % 1011,1 hPa 0,0 l/m 2,8 km/h (1 Bft) SO 146 0 min 0,000 mm 0,0 UV-I 0 W/m 18,1 C 22,3 C 4,8 km/h (1 Bft) 98,11 %
24.06.2016 23:50 22,3 C 78 % 1011,1 hPa 0,0 l/m 2,6 km/h (1 Bft) SO 146 0 min 0,000 mm 0,0 UV-I 0 W/m 18,3 C 22,3 C 3,2 km/h (1 Bft) 100,00 %
24.06.2016 23:52 22,2 C 79 % 1011,0 hPa 0,0 l/m 0,4 km/h (0 Bft) SO 146 0 min 0,000 mm 0,0 UV-I 0 W/m 18,4 C 22,2 C 1,6 km/h (1 Bft) 100,00 %
24.06.2016 23:54 22,2 C 79 % 1011,0 hPa 0,0 l/m 0,2 km/h (0 Bft) SO 146 0 min 0,000 mm 0,0 UV-I 0 W/m 18,4 C 22,2 C 1,6 km/h (1 Bft) 100,00 %
24.06.2016 23:56 22,2 C 79 % 1011,0 hPa 0,0 l/m 2,6 km/h (1 Bft) SO 146 0 min 0,000 mm 0,0 UV-I 0 W/m 18,4 C 22,2 C 4,8 km/h (1 Bft) 100,00 %
24.06.2016 23:58 22,0 C 80 % 1011,0 hPa 0,0 l/m 2,8 km/h (1 Bft) SO 146 0 min 0,000 mm 0,0 UV-I 0 W/m 18,4 C 22,0 C 4,8 km/h (1 Bft) 100,00 %
_ Min-Zeit 05:24 18:54 22:54 - 04:04 - - - - - - 05:14 05:24 04:04 16:46
Minimum _ 17,1 C 42 % 1010,9 hPa - 0,0 km/h (0 Bft) - - - - - - 15,7 C 17,1 C 0,0 km/h (0 Bft) 92,00 %
_ Max-Zeit 16:36 05:32 00:00 00:00 16:48 - - 05:18 13:02 12:44 13:06 13:48 16:40 16:48 00:12
Maximum _ 32,2 C 93 % 1017,0 hPa 0,0 l/m 15,1 km/h
O (3 Bft)
- - 2 min 0,584 mm 7,7 UV-I 877 W/m 22,3 C 32,2 C 20,9 km/h
O-NO (4 Bft)
100,00 %
Durchschnitt _ 25,2 C 68 % 1014,1 hPa #0,0 l/m 3,4 km/h (1 Bft) O-NO - #13:10 h #5,613 mm 4,2 UV-I 472 W/m 18,3 C 25,2 C 6,0 km/h (2 Bft) 98,75 %